[[{"header":{"parameterUnit":"m.s-1","parameterCategory":1,"la1":30.6,"la2":29.2853,"lo1":-89.7004,"lo2":-87.6739,"dx":0.0162,"dy":0.0183,"nx":112,"ny":82,"refTime":"2022-11-29T06:00:00:Z","depth":0,"parameterNumber":2,"parameterNumberName":"U-component_of_WINDS"},"data":[0.0,0.0,0.0,0.0,0.0,0.0,0.0,0.0,0.0,0.0,0.0,0.0,0.0,0.0,0.0,0.0,0.0,0.0,0.0,0.0,0.0,0.0,0.0,0.0,0.0,0.0,0.0,0.0,0.0,0.0,0.0,0.0,0.0,0.0,0.0,0.0,0.0,0.0,0.0,0.0,0.0,0.0,0.0,0.0,0.0,0.0,0.0,0.0,0.0,0.0,0.0,0.0,0.0,0.0,0.0,0.0,0.0,0.0,0.0,0.0,0.0,0.0,0.0,0.0,0.0,0.0,0.0,0.0,0.0,0.0,0.0,0.0,0.0,0.0,0.0,0.0,0.0,0.0,0.0,0.0,0.0,0.0,0.0,0.0,0.0,0.0,0.0,0.0,0.0,0.0,-1.2077,-1.2789,-1.2852,-1.2507,-1.1698,-1.1056,-1.0464,-0.9992,0.0,0.0,0.0,0.0,0.0,0.0,0.0,0.0,0.0,0.0,0.0,0.0,0.0,0.0,0.0,0.0,0.0,0.0,0.0,0.0,0.0,0.0,0.0,0.0,0.0,0.0,0.0,0.0,0.0,0.0,0.0,0.0,0.0,0.0,0.0,0.0,0.0,0.0,0.0,0.0,0.0,0.0,0.0,0.0,0.0,0.0,0.0,0.0,0.0,0.0,0.0,0.0,0.0,0.0,0.0,0.0,0.0,0.0,0.0,0.0,0.0,0.0,0.0,0.0,0.0,0.0,0.0,0.0,0.0,0.0,0.0,0.0,0.0,0.0,0.0,0.0,0.0,0.0,0.0,0.0,0.0,0.0,0.0,0.0,0.0,0.0,0.0,0.0,0.0,0.0,0.0,0.0,0.0,0.0,0.0,0.0,0.0,0.0,0.0,0.0,0.0,0.0,0.0,0.0,-1.0834,-1.1737,-1.1974,-1.2012,-1.1883,-1.1294,-1.0616,-0.98,0.0,0.0,0.0,0.0,0.0,0.0,0.0,0.0,0.0,0.0,0.0,0.0,0.0,0.0,0.0,0.0,0.0,0.0,0.0,0.0,0.0,0.0,0.0,0.0,0.0,0.0,0.0,0.0,0.0,0.0,0.0,0.0,0.0,0.0,0.0,0.0,0.0,0.0,0.0,0.0,0.0,0.0,0.0,0.0,0.0,0.0,0.0,0.0,0.0,0.0,0.0,0.0,0.0,0.0,0.0,0.0,0.0,0.0,0.0,0.0,0.0,0.0,0.0,0.0,0.0,0.0,0.0,0.0,0.0,0.0,0.0,0.0,0.0,0.0,0.0,0.0,0.0,0.0,0.0,0.0,0.0,0.0,0.0,0.0,0.0,0.0,0.0,0.0,0.0,0.0,0.0,0.0,0.0,0.0,0.0,0.0,0.0,0.0,0.0,0.0,0.0,0.0,0.0,-1.0771,-1.1034,-1.156,-1.1694,-1.1551,-1.1081,-1.037,-0.9734,-0.9185,-0.8352,0.0,0.0,0.0,0.0,0.0,0.0,0.0,0.0,0.0,0.0,0.0,0.0,0.0,0.0,0.0,0.0,0.0,0.0,0.0,0.0,0.0,0.0,0.0,0.0,0.0,0.0,0.0,0.0,0.0,0.0,0.0,0.0,0.0,0.0,0.0,0.0,0.0,0.0,0.0,0.0,0.0,0.0,0.0,0.0,0.0,0.0,0.0,0.0,0.0,0.0,0.0,0.0,0.0,0.0,0.0,0.0,0.0,0.0,0.0,0.0,0.0,0.0,0.0,0.0,0.0,0.0,0.0,0.0,0.0,0.0,0.0,0.0,0.0,0.0,0.0,0.0,0.0,0.0,0.0,0.0,0.0,0.0,0.0,0.0,0.0,0.0,0.0,0.0,0.0,0.0,0.0,0.0,0.0,0.0,0.0,0.0,0.0,0.0,0.0,0.0,0.0,0.0,-1.0923,-1.1205,-1.1357,-1.138,-1.1082,-1.0367,-0.9618,-0.9059,-0.8728,-0.777,0.0,0.0,0.0,0.0,0.0,0.0,0.0,0.0,0.0,0.0,0.0,0.0,0.0,0.0,0.0,0.0,0.0,0.0,0.0,0.0,0.0,0.0,0.0,0.0,0.0,0.0,0.0,0.0,0.0,0.0,0.0,0.0,0.0,0.0,0.0,0.0,0.0,0.0,0.0,0.0,0.0,0.0,0.0,0.0,0.0,0.0,0.0,0.0,0.0,0.0,0.0,0.0,0.0,0.0,0.0,0.0,0.0,0.0,0.0,0.0,0.0,0.0,0.0,0.0,0.0,0.0,0.0,0.0,0.0,0.0,0.0,0.0,0.0,0.0,0.0,0.0,0.0,0.0,0.0,0.0,0.0,0.0,0.0,0.0,0.0,0.0,0.0,0.0,0.0,0.0,0.0,0.0,0.0,0.0,0.0,0.0,0.0,0.0,0.0,0.0,0.0,0.0,-0.9996,-1.0521,-1.0654,-1.0721,-1.0628,-1.0316,-0.9799,-0.9263,-0.874,-0.777,0.0,0.0,0.0,0.0,0.0,0.0,0.0,0.0,0.0,0.0,0.0,0.0,0.0,0.0,0.0,0.0,0.0,0.0,0.0,0.0,0.0,0.0,0.0,0.0,0.0,0.0,0.0,0.0,0.0,0.0,0.0,0.0,0.0,0.0,0.0,0.0,0.0,0.0,0.0,0.0,0.0,0.0,0.0,0.0,0.0,0.0,0.0,0.0,0.0,0.0,0.0,0.0,0.0,0.0,0.0,0.0,0.0,0.0,0.0,0.0,0.0,0.0,0.0,0.0,0.0,0.0,0.0,0.0,0.0,0.0,0.0,0.0,0.0,0.0,0.0,0.0,0.0,0.0,0.0,0.0,0.0,0.0,0.0,0.0,0.0,0.0,0.0,0.0,0.0,0.0,0.0,0.0,0.0,0.0,0.0,0.0,0.0,0.0,0.0,0.0,0.0,0.0,-0.9747,-1.0296,-1.0741,-1.1,-1.0972,-1.0502,-1.0034,-0.9456,-0.8752,0.0,0.0,0.0,0.0,0.0,0.0,0.0,0.0,0.0,0.0,0.0,0.0,0.0,0.0,0.0,0.0,0.0,0.0,0.0,0.0,0.0,0.0,0.0,0.0,0.0,0.0,0.0,0.0,0.0,0.0,0.0,0.0,0.0,0.0,0.0,0.0,0.0,0.0,0.0,0.0,0.0,0.0,0.0,0.0,0.0,0.0,0.0,0.0,0.0,0.0,0.0,0.0,0.0,0.0,0.0,0.0,0.0,0.0,0.0,0.0,0.0,0.0,0.0,0.0,0.0,0.0,0.0,0.0,0.0,0.0,0.0,0.0,0.0,0.0,0.0,0.0,0.0,0.0,0.0,0.0,0.0,0.0,0.0,0.0,0.0,0.0,0.0,0.0,0.0,0.0,0.0,0.0,0.0,0.0,0.0,0.0,0.0,0.0,0.0,0.0,0.0,0.0,-0.9198,-0.9789,-1.036,-1.1047,-1.1354,-1.1371,-1.1001,-1.0393,-0.9697,-0.8968,0.0,0.0,0.0,0.0,0.0,0.0,0.0,0.0,0.0,0.0,0.0,0.0,0.0,0.0,0.0,0.0,0.0,0.0,0.0,0.0,0.0,0.0,0.0,0.0,0.0,0.0,0.0,0.0,0.0,0.0,0.0,0.0,0.0,0.0,0.0,0.0,0.0,0.0,0.0,0.0,0.0,0.0,0.0,0.0,0.0,0.0,0.0,0.0,0.0,0.0,0.0,0.0,0.0,0.0,0.0,0.0,0.0,0.0,0.0,0.0,0.0,0.0,0.0,0.0,0.0,0.0,0.0,0.0,0.0,0.0,0.0,0.0,0.0,0.0,0.0,0.0,0.0,0.0,0.0,0.0,0.0,0.0,0.0,0.0,0.0,0.0,0.0,0.0,0.0,0.0,0.0,0.0,0.0,0.0,0.0,0.0,0.0,0.0,0.0,0.0,0.0,0.0,-0.9532,-1.0047,-1.0634,-1.1523,-1.1651,-1.1744,-1.1793,-1.0817,-0.9972,0.0,0.0,0.0,0.0,0.0,0.0,0.0,0.0,0.0,0.0,0.0,0.0,0.0,0.0,0.0,0.0,0.0,0.0,0.0,0.0,0.0,0.0,0.0,0.0,0.0,0.0,0.0,0.0,0.0,0.0,0.0,0.0,0.0,0.0,0.0,0.0,0.0,0.0,0.0,0.0,0.0,0.0,0.0,0.0,0.0,0.0,0.0,0.0,0.0,0.0,0.0,0.0,0.0,0.0,0.0,0.0,0.0,0.0,0.0,0.0,0.0,0.0,0.0,0.0,0.0,0.0,0.0,0.0,0.0,0.0,0.0,0.0,0.0,0.0,0.0,0.0,0.0,0.0,0.0,0.0,0.0,0.0,0.0,0.0,0.0,0.0,0.0,0.0,0.0,0.0,0.0,0.0,0.0,0.0,0.0,0.0,0.0,0.0,0.0,0.0,0.0,0.0,0.0,-0.9588,-1.0343,-1.1056,-1.1726,-1.187,-1.1935,-1.2016,-1.1198,-1.0335,-0.9451,0.0,0.0,0.0,0.0,0.0,0.0,0.0,0.0,0.0,0.0,0.0,0.0,0.0,0.0,0.0,0.0,0.0,0.0,0.0,0.0,0.0,0.0,0.0,0.0,0.0,0.0,0.0,0.0,0.0,0.0,0.0,0.0,0.0,0.0,0.0,0.0,0.0,0.0,0.0,0.0,0.0,0.0,0.0,0.0,0.0,0.0,0.0,0.0,0.0,0.0,0.0,0.0,0.0,0.0,0.0,0.0,0.0,0.0,0.0,0.0,0.0,0.0,0.0,0.0,0.0,0.0,0.0,0.0,0.0,0.0,0.0,0.0,0.0,0.0,0.0,0.0,0.0,0.0,0.0,0.0,0.0,0.0,0.0,0.0,0.0,0.0,0.0,0.0,0.0,0.0,0.0,0.0,0.0,0.0,0.0,0.0,0.0,0.0,0.0,0.0,0.0,0.0,-0.9746,-1.0521,-1.1309,-1.2167,-1.2304,-1.2381,-1.2545,-1.1833,-1.0957,-1.0009,0.0,0.0,0.0,0.0,0.0,0.0,0.0,0.0,0.0,0.0,0.0,0.0,0.0,0.0,0.0,0.0,0.0,0.0,0.0,0.0,0.0,0.0,0.0,0.0,0.0,0.0,0.0,0.0,0.0,0.0,0.0,0.0,0.0,0.0,0.0,0.0,0.0,0.0,0.0,0.0,0.0,0.0,0.0,0.0,0.0,0.0,0.0,0.0,0.0,0.0,0.0,0.0,0.0,0.0,0.0,0.0,0.0,0.0,0.0,0.0,0.0,0.0,0.0,0.0,0.0,0.0,0.0,0.0,0.0,0.0,0.0,0.0,0.0,0.0,0.0,0.0,0.0,0.0,0.0,0.0,0.0,0.0,0.0,0.0,0.0,0.0,0.0,0.0,0.0,0.0,0.0,0.0,0.0,0.0,0.0,0.0,0.0,0.0,0.0,0.0,0.0,0.0,-0.9977,-1.0681,-1.1503,-1.2663,-1.2811,-1.2951,-1.3227,-1.2558,-1.1778,-1.0935,0.0,0.0,0.0,0.0,0.0,0.0,0.0,0.0,0.0,0.0,0.0,0.0,0.0,0.0,0.0,0.0,0.0,0.0,0.0,0.0,0.0,0.0,0.0,0.0,0.0,0.0,0.0,0.0,0.0,0.0,0.0,0.0,0.0,0.0,0.0,0.0,0.0,0.0,0.0,0.0,0.0,0.0,0.0,0.0,0.0,0.0,0.0,0.0,0.0,0.0,0.0,0.0,0.0,0.0,0.0,0.0,0.0,0.0,0.0,0.0,-1.5203,-1.3871,0.0,0.0,0.0,0.0,0.0,0.0,0.0,0.0,0.0,0.0,0.0,0.0,0.0,0.0,0.0,0.0,0.0,0.0,0.0,0.0,0.0,0.0,0.0,0.0,0.0,0.0,0.0,0.0,0.0,0.0,0.0,0.0,0.0,0.0,0.0,0.0,0.0,0.0,0.0,0.0,-1.0033,-1.1035,-1.1993,-1.271,-1.3005,-1.3227,-1.3487,-1.2747,-1.2052,-1.1541,-1.062,0.0,0.0,0.0,0.0,0.0,0.0,0.0,0.0,0.0,0.0,0.0,0.0,0.0,0.0,0.0,0.0,0.0,0.0,0.0,0.0,0.0,0.0,0.0,0.0,0.0,0.0,0.0,0.0,0.0,0.0,0.0,0.0,0.0,0.0,0.0,0.0,0.0,0.0,0.0,0.0,0.0,0.0,0.0,0.0,0.0,0.0,0.0,0.0,0.0,0.0,0.0,0.0,0.0,0.0,0.0,0.0,0.0,0.0,0.0,-1.6567,-1.5163,0.0,0.0,0.0,0.0,0.0,0.0,0.0,0.0,0.0,0.0,0.0,0.0,0.0,0.0,0.0,0.0,0.0,0.0,0.0,0.0,0.0,0.0,0.0,0.0,0.0,0.0,0.0,0.0,0.0,0.0,0.0,0.0,0.0,0.0,0.0,0.0,0.0,0.0,0.0,0.0,-1.0481,-1.1443,-1.2305,-1.2945,-1.324,-1.344,-1.3586,-1.3174,-1.2661,-1.2045,-1.1184,0.0,0.0,0.0,0.0,0.0,0.0,0.0,0.0,0.0,0.0,0.0,0.0,0.0,0.0,0.0,0.0,0.0,0.0,0.0,0.0,0.0,0.0,0.0,0.0,0.0,0.0,0.0,0.0,0.0,0.0,0.0,0.0,0.0,0.0,0.0,0.0,0.0,0.0,0.0,0.0,0.0,0.0,0.0,0.0,0.0,0.0,0.0,0.0,0.0,0.0,0.0,0.0,0.0,-1.8191,-1.8681,-1.8807,-1.9698,-2.01,-1.9998,-1.7807,-1.6598,-1.6077,-1.5394,0.0,0.0,0.0,0.0,0.0,0.0,0.0,0.0,0.0,0.0,0.0,0.0,0.0,0.0,0.0,0.0,0.0,0.0,0.0,0.0,0.0,0.0,-1.2969,-1.3183,-1.2893,-1.2108,-1.0399,0.0,0.0,0.0,0.0,0.0,0.0,0.0,0.0,0.0,0.0,0.0,-1.1162,-1.1906,-1.265,-1.322,-1.3507,-1.368,-1.368,-1.3633,-1.3287,-1.2579,-1.1794,-1.1145,0.0,0.0,0.0,0.0,0.0,0.0,0.0,0.0,0.0,0.0,0.0,0.0,0.0,0.0,0.0,0.0,0.0,0.0,0.0,0.0,0.0,0.0,0.0,0.0,0.0,0.0,0.0,0.0,0.0,0.0,0.0,0.0,-1.4148,-1.484,0.0,0.0,0.0,0.0,0.0,0.0,0.0,0.0,0.0,0.0,0.0,0.0,0.0,-1.6848,-1.7752,-1.7915,-1.8706,-2.0151,-2.0302,-2.0616,-2.1054,-2.1204,-2.1267,-2.1199,-1.9778,0.0,-1.7823,-1.7268,0.0,0.0,0.0,0.0,0.0,0.0,0.0,0.0,0.0,0.0,0.0,0.0,0.0,0.0,0.0,0.0,0.0,0.0,0.0,0.0,0.0,0.0,-1.4298,-1.3206,-1.3172,-1.3042,-1.1926,-1.096,-1.0127,-0.9559,-0.9435,-0.9435,0.0,0.0,0.0,0.0,0.0,0.0,-1.1929,-1.2556,-1.3067,-1.348,-1.3854,-1.4028,-1.4028,-1.3753,-1.3553,-1.3433,-1.2621,-1.1965,-1.1541,-1.0555,0.0,0.0,0.0,0.0,0.0,0.0,0.0,0.0,0.0,0.0,0.0,0.0,0.0,0.0,0.0,0.0,0.0,0.0,0.0,0.0,0.0,0.0,0.0,0.0,0.0,0.0,0.0,0.0,0.0,-1.4099,-1.4937,-1.5237,-1.5238,-1.5114,0.0,0.0,0.0,0.0,0.0,0.0,0.0,0.0,0.0,-1.7451,-1.8367,-1.9083,-1.961,-2.02,-2.0878,-2.1594,-2.2234,-2.2661,-2.2912,-2.3226,-2.3364,-2.3278,-2.1974,-2.1176,-2.0592,-1.8186,-1.6759,-1.6082,0.0,0.0,0.0,0.0,-1.4803,-1.4473,-1.4816,-1.4924,-1.4924,-1.4924,0.0,0.0,0.0,0.0,0.0,0.0,0.0,-1.4662,-1.465,-1.484,-1.4875,-1.4412,-1.4183,-1.3943,-1.3493,-1.2747,-1.184,-1.0859,-1.0665,-1.0605,-1.0516,-1.0604,0.0,0.0,0.0,-1.1977,-1.2512,-1.3078,-1.3546,-1.3791,-1.4103,-1.4201,-1.413,-1.3968,-1.378,-1.3613,-1.2959,-1.2425,-1.2058,-1.1016,-1.0219,0.0,0.0,0.0,0.0,0.0,0.0,0.0,0.0,0.0,0.0,0.0,0.0,0.0,0.0,0.0,0.0,0.0,0.0,0.0,0.0,0.0,0.0,0.0,0.0,0.0,0.0,0.0,0.0,-1.519,-1.5679,-1.5679,-1.5952,-1.607,0.0,0.0,0.0,0.0,0.0,0.0,-1.7551,-1.838,-1.897,-1.9246,-2.0451,-2.1257,-2.1546,-2.2334,-2.2693,-2.2637,-2.3698,-2.411,-2.3921,-2.4318,-2.4504,-2.4414,-2.3063,-2.246,-2.2211,-1.9089,-1.7539,-1.7105,-1.6892,-1.6498,-1.6118,-1.6471,-1.6391,-1.6167,-1.6754,-1.6937,-1.6937,-1.6937,-1.6836,-1.6613,-1.612,0.0,0.0,0.0,0.0,-1.6162,-1.6112,-1.5949,-1.5756,-1.5602,-1.517,-1.4735,-1.4624,-1.4194,-1.347,-1.2199,-1.1927,-1.1895,-1.1731,-1.189,0.0,-1.2194,-1.2565,-1.2925,-1.3283,-1.3733,-1.4055,-1.4158,-1.4351,-1.4405,-1.4208,-1.4166,-1.403,-1.3768,-1.3267,-1.2872,-1.2652,-1.159,-1.0902,-1.0588,0.0,0.0,0.0,0.0,0.0,0.0,0.0,0.0,0.0,0.0,0.0,0.0,0.0,0.0,0.0,0.0,0.0,0.0,0.0,0.0,0.0,0.0,0.0,0.0,0.0,0.0,0.0,0.0,0.0,-1.6455,-1.697,0.0,0.0,0.0,0.0,-1.8041,-1.8116,-1.8807,-2.0402,-2.0541,-2.1056,-2.2071,-2.2184,-2.2749,-2.3816,-2.3891,-2.3795,-2.3535,-2.4364,-2.4357,-2.3619,-2.3655,-2.3667,-2.3568,-2.2172,-2.1551,-2.1476,-2.0391,-1.9629,-1.9109,-1.8653,-1.8105,-1.7657,-1.8123,-1.8268,-1.8309,-1.8808,-1.893,-1.893,-1.893,-1.8553,-1.8042,-1.7841,-1.7757,0.0,0.0,-1.8422,-1.8924,-1.8155,-1.7814,-1.7379,-1.6325,-1.5802,-1.5427,-1.4988,-1.4867,-1.4535,-1.3587,-1.3397,-1.3397,-1.336,0.0,-1.3302,-1.3798,-1.3758,-1.3844,-1.442,-1.4527,-1.4581,-1.4678,-1.4685,-1.4608,-1.4398,-1.4398,-1.4314,-1.4104,-1.3768,-1.3553,-1.354,-1.2661,-1.1951,-1.1355,-1.0588,0.0,0.0,0.0,0.0,0.0,0.0,0.0,0.0,0.0,0.0,0.0,0.0,0.0,0.0,0.0,0.0,0.0,0.0,0.0,0.0,0.0,0.0,0.0,0.0,0.0,0.0,0.0,0.0,-1.803,-1.8606,0.0,-1.9196,-1.951,-1.9886,-2.0288,-2.0652,-2.1104,-2.1694,-2.2422,-2.2987,-2.3389,-2.374,-2.4086,-2.4519,-2.4858,-2.4978,-2.49,-2.5586,-2.5727,-2.5478,-2.5478,-2.5478,-2.5398,-2.4388,-2.3639,-2.3108,-2.1987,-2.0921,-1.9983,-1.9815,-1.9627,-1.9455,-1.9644,-1.9696,-1.9717,-1.9882,-1.9944,-1.9944,-1.9944,-1.961,-1.9232,-1.9349,-1.9168,-1.8961,-1.9132,-1.928,-1.929,-1.8767,-1.8788,-1.8594,-1.7085,-1.702,-1.7022,-1.6069,-1.5862,-1.576,-1.5416,-1.4684,-1.4159,-1.4159,-1.4083,-1.4081,-1.4275,-1.4258,-1.4333,-1.4721,-1.496,-1.5164,-1.5269,-1.544,-1.5379,-1.5016,-1.4838,-1.4606,-1.4362,-1.3866,-1.36,-1.36,-1.2966,-1.2435,-1.1997,-1.1348,-1.0625,0.0,0.0,0.0,0.0,0.0,0.0,0.0,0.0,0.0,0.0,0.0,0.0,0.0,0.0,0.0,0.0,0.0,0.0,0.0,0.0,0.0,0.0,0.0,0.0,0.0,-1.7614,-1.8468,-1.9183,-1.9924,-2.0526,-2.093,-2.1471,-2.1845,-2.2033,-2.2573,-2.2962,-2.312,-2.3866,-2.4356,-2.4531,-2.4895,-2.5172,-2.5372,-2.5724,-2.5638,-2.5103,-2.5921,-2.6073,-2.5564,-2.5697,-2.5745,-2.5709,-2.4943,-2.4276,-2.3718,-2.2945,-2.211,-2.1311,-2.0798,-2.0659,-2.0653,-2.101,-2.1124,-2.1145,-2.13,-2.1352,-2.1352,-2.1352,-2.1052,-2.0741,-2.0905,-2.0745,-2.057,-2.0747,-2.0767,-2.0625,-2.0113,-2.007,-1.9707,-1.8046,-1.7922,-1.7922,-1.6795,-1.6573,-1.6573,-1.6573,-1.5802,-1.5149,-1.5149,-1.5149,-1.5149,-1.5149,-1.5149,-1.523,-1.5394,-1.5613,-1.5783,-1.5872,-1.603,-1.5976,-1.5569,-1.5293,-1.5051,-1.4794,-1.4202,-1.39,-1.39,-1.3367,-1.2913,-1.2612,-1.1795,-1.1189,-1.0734,0.0,0.0,0.0,0.0,0.0,0.0,0.0,0.0,0.0,0.0,0.0,0.0,0.0,0.0,0.0,0.0,0.0,0.0,0.0,0.0,0.0,0.0,0.0,-1.7473,-1.8807,-1.9823,-1.9899,-2.0878,-2.1556,-2.1594,-2.2071,-2.2581,-2.3108,-2.3715,-2.428,-2.4788,-2.4825,-2.5109,-2.5598,-2.5636,-2.5912,-2.6512,-2.6537,-2.577,-2.4238,-2.5466,-2.5259,-2.3799,-2.417,-2.4349,-2.4309,-2.3596,-2.3265,-2.3224,-2.3224,-2.3224,-2.3049,-2.1704,-2.1176,-2.129,-2.219,-2.2511,-2.2584,-2.3029,-2.3184,-2.3184,-2.3184,-2.2884,-2.2511,-2.2511,-2.2511,-2.2511,-2.2511,-2.2853,-2.3042,-2.2328,-2.1668,-2.0834,-1.9153,-1.8578,-1.8086,-1.7137,-1.6963,-1.6963,-1.6963,-1.6661,-1.6433,-1.6419,-1.6411,-1.6411,-1.6411,-1.6411,0.0,-1.6411,-1.6419,-1.6426,-1.6426,-1.6433,-1.6315,-1.6056,-1.5819,-1.5634,-1.5353,-1.4821,-1.4529,-1.4516,-1.3933,-1.3527,-1.3227,-1.2064,-1.1323,-1.1035,0.0,0.0,0.0,0.0,0.0,0.0,0.0,0.0,0.0,0.0,0.0,0.0,0.0,0.0,0.0,0.0,0.0,0.0,0.0,0.0,0.0,-1.8794,-1.9133,-1.9133,-1.9522,-2.0401,-2.1992,-2.2468,-2.297,-2.3797,-2.401,-2.4161,-2.4311,-2.4858,-2.5222,-2.5372,-2.5774,-2.6109,-2.6248,-2.665,-2.6892,-2.709,-2.7457,-2.7429,-2.7005,-2.6698,-2.6373,-2.5922,-2.5413,-2.5171,-2.5171,-2.4949,-2.4528,-2.4003,-2.4003,-2.3676,-2.3153,-2.277,-2.2615,-2.2646,-2.2904,-2.2998,-2.3018,-2.3143,-2.3184,-2.3184,-2.3184,-2.3101,-2.2998,-2.2998,-2.2998,-2.2998,-2.2998,-2.2951,-2.287,-2.2661,-2.2316,-2.1705,-2.0394,-2.0035,-1.9669,-1.8539,-1.7995,-1.7757,-1.7757,-1.7359,-1.6916,-1.6492,-1.6411,-1.6411,-1.6411,-1.6411,-1.6411,-1.6411,-1.6617,-1.6763,-1.6763,-1.693,-1.6977,-1.6714,-1.6461,-1.6189,-1.5955,-1.558,-1.5221,-1.482,-1.4613,-1.4203,-1.3493,-1.2772,-1.2275,0.0,0.0,0.0,0.0,0.0,0.0,0.0,0.0,0.0,0.0,0.0,0.0,0.0,0.0,0.0,0.0,0.0,0.0,0.0,0.0,0.0,0.0,-1.9811,-2.0401,-2.1104,-2.1177,-2.1653,-2.2945,-2.3521,-2.4061,-2.4725,-2.4988,-2.5146,-2.5146,-2.5649,-2.5996,-2.5996,-2.6524,-2.6839,-2.6839,-2.7379,-2.7632,-2.7632,-2.7593,-2.7397,-2.7025,-2.6382,-2.5867,-2.5577,-2.5234,-2.5092,-2.5092,-2.5092,-2.4808,-2.436,-2.436,-2.4135,-2.3732,0.0,0.0,0.0,0.0,-2.3753,-2.3753,-2.3753,-2.3753,-2.3753,-2.3753,-2.3753,-2.3753,-2.3753,-2.3753,-2.3753,-2.3753,-2.3646,-2.3458,-2.316,-2.2983,-2.2545,-2.1347,-2.0988,-2.0664,-1.9766,-1.8942,-1.8396,-1.8396,-1.7792,0.0,-1.6835,-1.6769,-1.6769,-1.6769,-1.6769,-1.6769,-1.6769,-1.6938,-1.7055,-1.7055,-1.7216,-1.7239,-1.716,-1.6854,0.0,0.0,0.0,-1.5892,-1.5872,-1.6064,0.0,0.0,0.0,-1.421,-1.3888,-1.3638,0.0,0.0,-1.1382,-1.0856,0.0,0.0,0.0,0.0,0.0,0.0,0.0,0.0,0.0,0.0,0.0,0.0,0.0,0.0,0.0,0.0,-2.0591,-2.1481,-2.2982,-2.3308,-2.3384,-2.3384,-2.4261,-2.4933,-2.5008,-2.5423,-2.5686,-2.5686,-2.626,-2.6587,-2.6587,-2.7115,0.0,0.0,0.0,-2.8124,-2.8038,-2.7358,-2.6564,-2.5769,-2.53,-2.4768,-2.4127,-2.4364,-2.4497,-2.4497,-2.4497,-2.4497,-2.4497,-2.4497,-2.4497,-2.4456,-2.4105,-2.395,-2.4002,-2.4352,-2.4497,-2.4497,-2.4497,0.0,0.0,-2.4497,-2.4497,-2.4497,-2.4497,-2.4497,-2.4497,-2.4497,-2.4497,-2.4368,-2.3764,-2.3547,-2.3232,-2.2148,-2.165,-2.1329,-2.0908,-1.9914,-1.9063,-1.9063,-1.8288,-1.7598,-1.7512,-1.7372,-1.7279,-1.7279,-1.7279,-1.7279,-1.7279,-1.7279,-1.7279,-1.7279,-1.7279,0.0,-1.7279,-1.716,-1.7026,-1.7026,-1.6625,-1.6635,-1.7081,-1.7717,-1.7871,-1.7466,-1.7056,-1.6679,-1.6349,-1.6173,-1.6041,-1.5938,-1.3506,-1.2391,0.0,0.0,0.0,0.0,0.0,0.0,0.0,0.0,0.0,0.0,0.0,0.0,0.0,0.0,0.0,-2.1802,-2.2383,-2.2895,-2.3715,-2.4569,-2.5121,-2.5121,-2.531,-2.5636,-2.6135,-2.6273,-2.6336,-2.6336,-2.6839,-2.7165,-2.7165,-2.7645,-2.7946,-2.7946,-2.8486,-2.8412,-2.7692,-2.7999,-2.7703,-2.6812,-2.6005,0.0,-2.5407,-2.4787,-2.4497,-2.4497,-2.4497,-2.4497,-2.4497,-2.4497,-2.4497,-2.4487,-2.4404,-2.4373,-2.4373,-2.4466,-2.4497,-2.4497,-2.4497,-2.4497,-2.4497,-2.4497,-2.4497,-2.4497,-2.4497,-2.4497,0.0,-2.4497,-2.4497,-2.4454,-2.4325,-2.3894,-2.346,-2.3188,-2.2677,-2.2173,-2.2085,-2.1409,-2.0836,-2.0836,-2.0195,-1.9422,-1.865,-1.7831,-1.7279,-1.7279,-1.7279,-1.7279,-1.7279,-1.7279,-1.7279,-1.7279,-1.7279,-1.7279,-1.7279,-1.7286,-1.7239,-1.7239,-1.7484,-1.7364,-1.6679,-1.7826,-1.8112,-1.7282,-1.7888,-1.8046,-1.7811,-1.7729,-1.7579,-1.7311,-1.5744,-1.5347,0.0,0.0,0.0,0.0,0.0,0.0,0.0,0.0,0.0,0.0,0.0,-1.9177,-2.0205,0.0,-2.1542,-2.2665,-2.3231,-2.3853,-2.4682,-2.5259,-2.5598,-2.5598,-2.585,-2.6172,-2.6461,-2.6499,-2.6612,-2.6889,-2.7165,-2.7406,-2.7682,-2.8222,-2.8511,-2.8511,-2.8621,-2.8507,-2.8053,-2.7457,-2.6894,-2.6442,-2.5547,-2.5137,-2.5137,-2.47,-2.4497,-2.4497,-2.4497,-2.4497,-2.4497,-2.4497,-2.4497,-2.4497,-2.4497,-2.4497,-2.4497,-2.4497,-2.4497,-2.4497,-2.4497,-2.4497,-2.4497,-2.4497,-2.4497,-2.4497,-2.4497,-2.4497,-2.4497,-2.4497,-2.4497,-2.4497,-2.4497,-2.4239,-2.398,-2.398,-2.3657,-2.3299,-2.3299,-2.2536,-2.1863,-2.1863,-2.1051,-2.0232,-1.9786,-1.9193,-1.8419,-1.7466,-1.7279,-1.7279,-1.7279,-1.7279,-1.7279,-1.7279,-1.7279,-1.7279,-1.7279,-1.7279,-1.7279,-1.7279,-1.7995,-1.8397,-1.8352,-1.9335,-1.9834,-1.9834,-1.9974,-1.9988,-1.9841,-1.9758,-1.9617,-1.9461,-1.8784,-1.8149,0.0,0.0,0.0,0.0,0.0,0.0,0.0,-1.7869,-1.8729,-1.937,-1.9978,-2.0562,-2.1111,-2.2053,-2.2904,-2.3399,-2.3972,-2.4651,-2.5473,-2.5686,-2.5762,-2.5762,-2.621,-2.6499,-2.6499,-2.6587,-2.6839,-2.7291,-2.7482,-2.7795,-2.8247,-2.8637,-2.8811,-2.8811,-2.8443,-2.8131,-2.7971,-2.6524,-2.5704,-2.5537,-2.4818,-2.4497,-2.4497,-2.4497,-2.4497,-2.4497,-2.4497,-2.4497,-2.4497,-2.4497,-2.4497,-2.4497,-2.4497,-2.4497,-2.4497,-2.4497,-2.4497,-2.4497,-2.4497,-2.4497,-2.4497,-2.4497,-2.4497,-2.4497,-2.4497,-2.4497,-2.4497,-2.4497,-2.4497,-2.4497,-2.4497,-2.4497,-2.4497,-2.4497,-2.4368,-2.4249,-2.4249,-2.3474,-2.2755,-2.2755,-2.1898,-2.1177,-2.0998,-2.0728,-1.996,-1.8149,-1.787,-1.787,-1.787,-1.7692,-1.7645,-1.7831,-1.7512,-1.7279,-1.7279,-1.7466,-1.7598,-1.7598,-1.8696,-1.9604,-2.0187,-2.1022,-2.1748,-2.2327,-2.197,-2.1797,-2.1797,-2.1629,-2.1555,-2.1555,-2.1555,-2.0638,-1.6346,-1.671,-1.7121,-1.7121,-1.7564,-1.8141,0.0,-1.9296,-1.9939,-2.0416,-2.1051,-2.1843,-2.2892,-2.32,-2.3636,-2.4627,-2.5286,-2.5671,-2.5619,-2.6072,-2.6399,-2.6399,-2.6449,-2.6499,-2.6499,-2.6939,-2.7253,-2.7316,-2.8185,-2.8737,-2.88,-2.8648,-2.8536,-2.8536,-2.7695,-2.6894,-2.611,-2.5902,-2.5421,-2.4658,-2.454,-2.4497,-2.4497,-2.4497,-2.4497,-2.4497,-2.4497,-2.4497,-2.4497,-2.4497,-2.4497,-2.4497,-2.4497,-2.4497,-2.4497,-2.4497,-2.4497,-2.4497,-2.4497,-2.4497,-2.4497,-2.4497,-2.4497,-2.4497,-2.4497,-2.4497,-2.4497,-2.4497,-2.4497,-2.4497,-2.4497,-2.4497,-2.4497,-2.4497,-2.4497,-2.4454,-2.4454,-2.4239,-2.398,-2.398,-2.3701,-2.3159,-2.235,-2.1987,-2.1355,-2.0051,-1.9869,-1.9869,-1.9869,-1.9147,-1.8972,-1.9778,-1.8326,-1.7279,-1.7279,-1.8102,-1.8611,-1.8611,-2.0376,-2.1006,-2.0232,-2.1915,-2.2532,-2.1808,-2.2528,-2.2911,-2.2911,-2.2911,-2.2911,-2.2911,-2.2911,-2.2462,-1.7033,-1.7561,-1.809,-1.8514,-1.8951,-1.9421,-2.0067,-2.0626,-2.1131,-2.1633,-2.2315,-2.2992,-2.3624,-2.4077,-2.4545,-2.5252,-2.5547,-2.5824,-2.6084,-2.6336,-2.6612,-2.6939,-2.6977,-2.6977,-2.6977,-2.7444,-2.7896,-2.821,-2.8662,-2.8836,-2.8672,-2.8539,-2.8251,-2.7678,-2.6812,-2.6152,-2.5777,-2.5306,-2.4861,-2.4497,-2.4497,-2.4497,-2.4497,-2.4497,-2.4497,-2.4497,-2.4497,-2.4497,-2.4497,-2.4497,-2.4497,-2.4497,-2.4497,-2.4497,-2.4497,-2.4497,-2.4497,-2.4497,-2.4497,-2.4497,-2.4497,-2.4497,-2.4497,-2.4497,-2.4497,-2.4497,-2.4497,-2.4497,-2.4497,-2.4497,-2.4497,-2.4497,-2.4497,-2.4497,-2.4497,-2.4497,-2.4497,-2.4411,-2.4368,-2.4368,-2.4196,-2.3894,-2.3527,-2.3212,-2.2887,-2.235,-2.1087,-2.0187,-2.0187,-1.9869,-1.9786,-2.0141,-1.9459,-1.901,-1.901,-1.9376,-1.9604,-1.9604,-2.0376,-2.0917,-2.106,-2.1828,-2.2369,-2.2501,-2.2916,-2.3091,-2.3091,-2.3091,-2.3091,-2.3091,-2.3091,-2.296,-1.767,-1.8338,-1.8986,-1.9504,-2.0055,-2.0638,-2.1358,-2.1723,-2.2096,-2.2626,-2.3285,-2.3857,-2.4148,-2.4797,-2.5373,-2.5783,-2.5892,-2.6043,-2.6436,-2.6499,-2.67,-2.7253,-2.7419,-2.757,-2.772,-2.8097,-2.8461,-2.8863,-2.8836,-2.8816,-2.8858,-2.8171,-2.7557,-2.711,-2.6038,-2.5421,-2.5421,-2.4818,-2.4497,-2.4497,-2.4497,-2.4497,-2.4497,-2.4497,-2.4497,-2.4497,-2.4497,-2.4497,-2.4497,-2.4497,-2.4497,-2.4497,-2.4497,-2.4497,-2.4497,-2.4497,-2.4497,-2.4497,-2.4497,-2.4497,-2.4497,-2.4497,-2.4497,-2.4497,-2.4497,-2.4497,-2.4497,-2.4497,-2.4497,-2.4497,-2.4497,-2.4497,-2.4497,-2.4497,-2.4497,-2.4497,-2.4497,-2.4497,-2.4497,-2.4497,-2.4368,-2.4282,-2.4282,-2.4067,-2.3894,-2.3797,-2.2271,-2.1096,-2.1096,-2.1051,-2.0773,-2.0277,-2.0458,-2.0503,-2.0232,-2.0458,-2.0602,-2.0602,-2.0872,-2.132,-2.2059,-2.2104,-2.2422,-2.3101,-2.3091,-2.3091,-2.3091,-2.3091,-2.3091,-2.3091,-2.3091,-2.3091,-1.8331,-1.9202,-2.0042,-2.0016,-2.0814,-2.1805,-2.2417,-2.2556,-2.2734,-2.3263,-2.3791,-2.4286,-2.4695,-2.5365,-2.6021,-2.6408,-2.6598,-2.6633,-2.6521,-2.6499,-2.67,-2.7253,-2.7758,-2.8298,-2.8787,-2.8863,-2.8875,-2.8888,-2.867,-2.8897,-2.9714,-2.7302,-2.6276,-2.7069,-2.5443,-2.454,-2.454,-2.4497,-2.4497,-2.4497,-2.4497,-2.4497,-2.4497,-2.4497,-2.4497,-2.4497,-2.4497,-2.4497,-2.4497,-2.4497,-2.4497,-2.4497,-2.4497,-2.4497,-2.4497,-2.4497,-2.4497,-2.4497,-2.4497,-2.4497,-2.4497,-2.4497,-2.4497,-2.4497,-2.4497,-2.4497,-2.4497,-2.4497,-2.4497,-2.4497,-2.4497,-2.4497,-2.4497,-2.4497,-2.4497,-2.4497,-2.4497,-2.4497,-2.4497,-2.4497,-2.4497,-2.4497,-2.4497,-2.4335,-2.411,-2.3841,-2.358,-2.3406,-2.3406,-2.3178,-2.2271,-2.0413,-2.1051,-2.1239,-2.0277,-2.1096,-2.165,-2.165,-2.2501,-2.3047,-2.3047,-2.3047,-2.3047,-2.3091,-2.3091,-2.3091,-2.3091,-2.3091,-2.3091,-2.3091,-2.3091,-2.3091,-1.9518,-2.0195,-2.0962,-2.1786,-2.211,-2.2401,-2.2984,-2.32,-2.3251,-2.3203,-2.3791,-2.4423,-2.4752,-2.528,-2.59,-2.6399,-2.6521,-2.6555,-2.6499,-2.6813,-2.7241,-2.7758,-2.831,-2.8875,-2.9453,-2.9503,-2.9503,-2.9503,-2.9395,-2.9248,-2.8961,-2.8091,-2.718,-2.6276,-2.5663,-2.5105,-2.4497,-2.4497,-2.4497,-2.4497,-2.4497,-2.4497,-2.4497,-2.4497,-2.4497,-2.4497,-2.4497,-2.4497,-2.4497,-2.4497,-2.4497,-2.4497,-2.4497,-2.4497,-2.4497,-2.4497,-2.4497,-2.4497,-2.4497,-2.4497,-2.4497,-2.4497,-2.4497,-2.4497,-2.4497,-2.4497,-2.4497,-2.4497,-2.4497,-2.4497,-2.4497,-2.4497,-2.4497,-2.4497,-2.4497,-2.4497,-2.4497,-2.4497,-2.4497,-2.4497,-2.4497,-2.4497,-2.4497,-2.4454,-2.4325,-2.411,-2.358,-2.3232,-2.3232,-2.3144,-2.2862,-2.2183,-2.2413,-2.2501,-2.2138,-2.2413,-2.2643,-2.2643,-2.2916,-2.3091,-2.3091,-2.3091,-2.3091,-2.3091,-2.3091,-2.3091,-2.3091,-2.3091,-2.3091,-2.3091,-2.3091,-2.3091,-2.0515,-2.1183,-2.19,-2.2716,-2.2924,-2.2992,-2.3374,-2.3539,-2.3539,-2.3318,-2.3834,-2.4373,-2.4488,-2.5109,-2.5724,-2.6122,-2.6361,-2.6562,-2.6763,-2.709,-2.7557,-2.831,-2.8675,-2.9151,-2.9729,-2.9792,-2.9792,-2.9792,-2.9495,-2.9079,-2.8542,-2.7879,-2.7017,-2.5819,-2.5505,-2.5062,-2.4497,-2.4497,-2.4497,-2.4497,-2.4497,-2.4497,-2.4497,-2.4497,-2.4497,-2.4497,-2.4497,-2.4497,-2.4497,-2.4497,-2.4497,-2.4497,-2.4497,-2.4497,-2.4497,-2.4497,-2.4497,-2.4497,-2.4497,-2.4497,-2.4497,-2.4497,-2.4497,-2.4497,-2.4497,-2.4497,-2.4497,-2.4497,-2.4497,-2.4497,-2.4497,-2.4497,-2.4497,-2.4497,-2.4497,-2.4497,-2.4497,-2.4497,-2.4497,-2.4497,-2.4497,-2.4497,-2.4497,-2.4454,-2.4325,-2.4206,-2.3711,-2.3309,-2.3232,-2.3144,-2.3091,-2.3091,-2.3091,-2.3091,-2.3091,-2.3091,-2.3091,-2.3091,-2.3091,-2.3091,-2.3091,-2.3091,-2.3091,-2.3091,-2.3091,-2.3091,-2.3091,-2.3091,-2.3091,-2.3091,-2.3091,-2.3091,-2.1353,-2.2073,-2.2824,-2.285,-2.3231,-2.3599,-2.3599,-2.3599,-2.3599,-2.3599,-2.3882,-2.414,-2.4023,-2.4833,-2.5536,-2.5586,-2.6097,-2.665,-2.719,-2.7329,-2.772,-2.8725,-2.89,-2.9189,-2.9741,-2.9792,-2.9792,-2.9792,-2.904,-2.8542,-2.8502,-2.6853,-2.5902,-2.5777,-2.4978,-2.454,-2.4497,-2.4497,-2.4497,-2.4497,-2.4497,-2.4497,-2.4497,-2.4497,-2.4497,-2.4497,-2.4497,-2.4497,-2.4497,-2.4497,-2.4497,-2.4497,-2.4497,-2.4497,-2.4497,-2.4497,-2.4497,-2.4497,-2.4497,-2.4497,-2.4497,-2.4497,-2.4497,-2.4497,-2.4497,-2.4497,-2.4497,-2.4497,-2.4497,-2.4497,-2.4497,-2.4497,-2.4497,-2.4497,-2.4497,-2.4497,-2.4497,-2.4497,-2.4497,-2.4497,-2.4497,-2.4497,-2.4497,-2.4335,-2.4206,-2.4206,-2.398,-2.3754,-2.3547,-2.3276,-2.3135,-2.3135,-2.3101,-2.3091,-2.3091,-2.3091,-2.3091,-2.3091,-2.3091,-2.3091,-2.3091,-2.3091,-2.3091,-2.3091,-2.3091,-2.3091,-2.3091,-2.3091,-2.3091,-2.3091,-2.3091,-2.3091,-2.2337,-2.2749,-2.3057,-2.3496,-2.3614,-2.3599,-2.3599,-2.3599,-2.3569,-2.345,-2.3534,-2.3685,-2.3947,-2.4217,-2.4669,-2.5473,-2.5858,-2.6194,-2.6625,-2.7536,-2.8167,-2.8285,-2.9063,-2.9628,-2.9779,-2.9792,-2.9792,-2.9792,-2.9585,-2.917,-2.8542,-2.8051,-2.718,-2.5819,-2.5579,-2.5137,-2.4497,-2.4497,-2.4497,-2.4497,-2.4497,-2.4497,-2.4497,-2.4497,-2.4497,-2.4497,-2.4497,-2.4497,-2.4497,-2.4497,-2.4497,-2.4497,-2.4497,-2.4497,-2.4497,-2.4497,-2.4497,-2.4497,-2.4497,-2.4497,-2.4497,-2.4497,-2.4497,-2.4497,-2.4497,-2.4497,-2.4497,-2.4497,-2.4497,-2.4497,-2.4497,-2.4497,-2.4497,-2.4497,-2.4497,-2.4497,-2.4497,-2.4497,-2.4497,-2.4497,-2.4497,-2.4497,-2.4497,-2.4454,-2.4411,-2.4411,-2.4249,-2.4024,-2.3754,-2.3537,-2.3406,-2.3406,-2.3232,-2.3091,-2.3091,-2.3091,-2.3091,-2.3091,-2.3091,-2.3091,-2.3091,-2.3091,-2.3091,-2.3091,-2.3091,-2.3091,-2.3091,-2.3091,-2.3091,-2.3091,-2.3091,-2.3091,-2.2836,-2.3179,-2.3347,-2.3669,-2.3688,-2.3569,-2.3539,-2.3377,-2.3198,-2.3094,-2.2803,-2.264,-2.2866,-2.3288,-2.3816,-2.4526,-2.5264,-2.5979,-2.6514,-2.7561,-2.8307,-2.8436,-2.9252,-2.9792,-2.9792,-2.9792,-2.9792,-2.9792,-2.9792,-2.9248,-2.7971,-2.7891,-2.7069,-2.5306,-2.5221,-2.4978,-2.4497,-2.4497,-2.4497,-2.4497,-2.4497,-2.4497,-2.4497,-2.4497,-2.4497,-2.4497,-2.4497,-2.4497,-2.4497,-2.4497,-2.4497,-2.4497,-2.4497,-2.4497,-2.4497,-2.4497,-2.4497,-2.4497,-2.4497,-2.4497,-2.4497,-2.4497,-2.4497,-2.4497,-2.4497,-2.4497,-2.4497,-2.4497,-2.4497,-2.4497,-2.4497,-2.4497,-2.4497,-2.4497,-2.4497,-2.4497,-2.4497,-2.4497,-2.4497,-2.4497,-2.4497,-2.4497,-2.4497,-2.4497,-2.4497,-2.4497,-2.4325,-2.4163,-2.411,-2.3841,-2.3537,-2.3373,-2.3319,-2.3232,-2.3091,-2.3091,-2.3091,-2.3091,-2.3091,-2.3091,-2.3091,-2.3091,-2.3091,-2.3091,-2.3091,-2.3144,-2.3276,-2.3276,-2.3276,-2.3276,-2.3276,-2.3232,-2.3156,-2.3447,-2.3628,-2.3599,-2.3599,-2.3543,-2.3361,-2.3025,-2.2713,-2.2522,-2.1974,-2.1493,-2.1493,-2.2272,-2.3004,-2.3335,-2.4532,-2.5698,-2.6489,-2.7435,-2.821,-2.8712,-2.9327,-2.9704,-2.9779,-2.9792,-2.9792,-2.9792,-2.9702,-2.8882,-2.7191,-2.6987,-2.6174,-2.454,-2.4497,-2.4497,-2.4497,-2.4497,-2.4497,-2.4497,-2.4497,-2.4497,-2.4497,-2.4497,-2.4497,-2.4497,-2.4497,-2.4497,-2.4497,-2.4497,-2.4497,-2.4497,-2.4497,-2.4497,-2.4497,-2.4497,-2.4497,-2.4497,-2.4497,-2.4497,-2.4497,-2.4497,-2.4497,-2.4497,-2.4497,-2.4497,-2.4497,-2.4497,-2.4497,-2.4497,-2.4497,-2.4497,-2.4497,-2.4497,-2.4497,-2.4497,-2.4497,-2.4497,-2.4497,-2.4497,-2.4497,-2.4497,-2.4497,-2.4497,-2.4497,-2.4497,-2.4325,-2.4292,-2.4454,-2.4057,-2.3624,-2.3222,-2.3363,-2.3363,-2.3135,-2.3091,-2.3135,-2.3135,-2.3135,-2.3135,-2.3135,-2.3188,-2.3178,-2.3091,-2.3144,-2.3276,-2.346,-2.3503,-2.3503,-2.346,-2.3503,-2.3363,-2.3609,-2.3813,-2.3819,-2.3628,-2.3599,-2.3471,-2.301,-2.2745,-2.2483,-2.1972,-2.1668,-2.1493,-2.1493,-2.1644,-2.2141,-2.3221,-2.3968,-2.4805,-2.5889,-2.6983,-2.7824,-2.8185,-2.87,-2.9264,-2.9741,-2.9792,-2.9792,-2.9792,-2.9118,-2.8251,-2.7151,-2.64,-2.5547,-2.454,-2.4497,-2.4497,-2.4497,-2.4497,-2.4497,-2.4497,-2.4497,-2.4497,-2.4497,-2.4497,-2.4497,-2.4497,-2.4497,-2.4497,-2.4497,-2.4497,-2.4497,-2.4497,-2.4497,-2.4497,-2.4497,-2.4497,-2.4497,-2.4497,-2.4497,-2.4497,-2.4497,-2.4497,-2.4497,-2.4497,-2.4497,-2.4497,-2.4497,-2.4497,-2.4497,-2.4497,-2.4497,-2.4497,-2.4497,-2.4497,-2.4497,-2.4497,-2.4497,-2.4497,-2.4497,-2.4497,-2.4497,-2.4497,-2.4497,-2.4497,-2.4497,-2.4497,-2.4454,-2.4411,-2.4282,-2.3851,-2.358,-2.3667,-2.3363,-2.3135,-2.3091,-2.3091,-2.3188,-2.3416,-2.3406,-2.3406,-2.3406,-2.358,-2.3493,-2.3101,-2.3484,-2.3493,-2.3188,-2.3406,-2.3373,-2.3178,-2.3406,-2.3503,-2.3605,-2.376,-2.37,-2.3539,-2.3293,-2.297,-2.2616,-2.2096,-2.1513,-2.0862,-2.0441,-2.0213,-2.0213,-2.0426,-2.1033,-2.2296,-2.3124,-2.404,-2.5261,-2.6367,-2.7286,-2.8009,-2.8549,-2.9151,-2.9729,-2.9792,-2.9792,-2.9792,-2.8542,-2.7557,-2.711,-2.5841,-2.4946,-2.4497,-2.4497,-2.4497,-2.4497,-2.4497,-2.4497,-2.4497,-2.4497,-2.4497,-2.4497,-2.4497,-2.4497,-2.4497,-2.4497,-2.4497,-2.4497,-2.4497,-2.4497,-2.4497,-2.4497,-2.4497,-2.4497,-2.4497,-2.4497,-2.4497,-2.4497,-2.4497,-2.4497,-2.4497,-2.4497,-2.4497,-2.4497,-2.4497,-2.4497,-2.4497,-2.4497,-2.4497,-2.4497,-2.4497,-2.4497,-2.4497,-2.4497,-2.4497,-2.4497,-2.4497,-2.4497,-2.4497,-2.4497,-2.4497,-2.4497,-2.4497,-2.4497,-2.4497,-2.4411,-2.4325,-2.4378,-2.3937,-2.3667,-2.3797,-2.3711,-2.3624,-2.3493,-2.344,-2.3537,-2.3667,-2.3677,-2.3677,-2.3677,-2.3754,-2.3711,-2.3493,-2.3667,-2.3754,-2.3667,-2.3807,-2.3807,-2.3677,-2.3807,-2.3807,-2.3445,-2.3569,-2.3484,-2.3221,-2.2854,-2.2445,-2.2049,-2.1214,-2.0332,-1.9749,-1.9096,-1.8719,-1.8958,-1.9334,-2.0051,-2.1335,-2.232,-2.3382,-2.4659,-2.5673,-2.6725,-2.7795,-2.8411,-2.8976,-2.9553,-2.9716,-2.9792,-2.9792,-2.8131,-2.6946,-2.6577,-2.5232,-2.4497,-2.4497,-2.4497,-2.4497,-2.4497,-2.4497,-2.4497,-2.4497,-2.4497,-2.4497,-2.4497,-2.4497,-2.4497,-2.4497,-2.4497,-2.4497,-2.4497,-2.4497,-2.4497,-2.4497,-2.4497,-2.4497,-2.4497,-2.4497,-2.4497,-2.4497,-2.4497,-2.4497,-2.4497,-2.4497,-2.4497,-2.4497,-2.4497,-2.4497,-2.4497,-2.4497,-2.4497,-2.4497,-2.4497,-2.4497,-2.4497,-2.4497,-2.4497,-2.4497,-2.4497,-2.4497,-2.4497,-2.4497,-2.4497,-2.4497,-2.4497,-2.4497,-2.4497,-2.4497,-2.4378,-2.4335,-2.4497,-2.4186,-2.397,-2.397,-2.4067,-2.4024,-2.3841,-2.3797,-2.3841,-2.3884,-2.3894,-2.3894,-2.3894,-2.3927,-2.3884,-2.3797,-2.3884,-2.4013,-2.411,-2.4153,-2.4153,-2.411,-2.4153,-2.4067,-2.328,-2.3433,-2.3246,-2.2581,-2.2347,-2.2087,-2.1069,-1.9987,-1.9158,-1.9083,-1.8267,-1.784,-1.882,-1.9045,-1.9485,-2.0765,-2.1769,-2.2803,-2.409,-2.5093,-2.6088,-2.7218,-2.7846,-2.8398,-2.8913,-2.9478,-2.9792,-2.9792,-2.8131,-2.6412,-2.4818,-2.4583,-2.4497,-2.4497,-2.4497,-2.4497,-2.4497,-2.4497,-2.4497,-2.4497,-2.4497,-2.4497,-2.4497,-2.4497,-2.4497,-2.4497,-2.4497,-2.4497,-2.4497,-2.4497,-2.4497,-2.4497,-2.4497,-2.4497,-2.4497,-2.4497,-2.4497,-2.4497,-2.4497,-2.4497,-2.4497,-2.4497,-2.4497,-2.4497,-2.4497,-2.4497,-2.4497,-2.4497,-2.4497,-2.4497,-2.4497,-2.4497,-2.4497,-2.4497,-2.4497,-2.4497,-2.4497,-2.4497,-2.4497,-2.4497,-2.4497,-2.4497,-2.4497,-2.4497,-2.4497,-2.4497,-2.4497,-2.4497,-2.4497,-2.4454,-2.4454,-2.4454,-2.4057,-2.3841,-2.3797,-2.3797,-2.3884,-2.4163,-2.4163,-2.4163,-2.4163,-2.4325,-2.4239,-2.3797,-2.4239,-2.4239,-2.3841,-2.4067,-2.4067,-2.3841,-2.4067,-2.4206,-2.221,-2.2331,-2.2296,-2.1898,-2.1568,-2.1144,-2.0352,-1.956,-1.882,-1.8179,-1.7712,-1.7413,-1.7478,-1.8055,-1.8781,-1.9623,-2.0905,-2.2238,-2.3374,-2.4463,-2.5536,-2.6688,-2.757,-2.8323,-2.8838,-2.9453,-2.9339,-2.8263,-2.7017,-2.5799,-2.4583,-2.4497,-2.4497,-2.4497,-2.4497,-2.4497,-2.4497,-2.4497,-2.4497,-2.4497,-2.4497,-2.4497,-2.4497,-2.4497,-2.4497,-2.4497,-2.4497,-2.4497,-2.4497,-2.4497,-2.4497,-2.4497,-2.4497,-2.4497,-2.4497,-2.4497,-2.4497,-2.4497,-2.4497,-2.4497,-2.4497,-2.4497,-2.4497,-2.4497,-2.4497,-2.4497,-2.4497,-2.4497,-2.4497,-2.4497,-2.4497,-2.4497,-2.4497,-2.4497,-2.4497,-2.4497,-2.4497,-2.4497,-2.4497,-2.4497,-2.4497,-2.4497,-2.4497,-2.4497,-2.4497,-2.4497,-2.4497,-2.4497,-2.4497,-2.4497,-2.4497,-2.4497,-2.4325,-2.4239,-2.4239,-2.4239,-2.4282,-2.4368,-2.4368,-2.4368,-2.4368,-2.4454,-2.4411,-2.4239,-2.4411,-2.4411,-2.4239,-2.4325,-2.4325,-2.4239,-2.4325,-2.4368,-2.1471,-2.1564,-2.1582,-2.1335,-2.0855,-2.0289,-1.9698,-1.8882,-1.8042,-1.7287,-1.6882,-1.6631,-1.6513,-1.7174,-1.7967,-1.8857,-2.0125,-2.143,-2.2681,-2.3835,-2.4983,-2.6109,-2.7331,-2.826,-2.8612,-2.9352,-2.9052,-2.7232,-2.6524,-2.5704,-2.4583,-2.4497,-2.4497,-2.4497,-2.4497,-2.4497,-2.4497,-2.4497,-2.4497,-2.4497,-2.4497,-2.4497,-2.4497,-2.4497,-2.4497,-2.4497,-2.4497,-2.4497,-2.4497,-2.4497,-2.4497,-2.4497,-2.4497,-2.4497,-2.4497,-2.4497,-2.4497,-2.4497,-2.4497,-2.4497,-2.4497,-2.4497,-2.4497,-2.4497,-2.4497,-2.4497,-2.4497,-2.4497,-2.4497,-2.4497,-2.4497,-2.4497,-2.4497,-2.4497,-2.4497,-2.4497,-2.4497,-2.4497,-2.4497,-2.4497,-2.4497,-2.4497,-2.4497,-2.4497,-2.4497,-2.4497,-2.4497,-2.4497,-2.4497,-2.4497,-2.4497,-2.4497,-2.4497,-2.4497,-2.4497,-2.4497,-2.4497,-2.4497,-2.4497,-2.4497,-2.4497,-2.4497,-2.4497,-2.4497,-2.4497,-2.4497,-2.4497,-2.4497,-2.4497,-2.4497,-2.4497,-2.4497,-2.137,-2.1493,-2.1355,-2.0842,-2.0264,-1.9673,-1.9133,-1.7716,-1.6525,-1.65,-1.5655,-1.5248,-1.63,-1.65,-1.7052,-1.8732,-1.9447,-2.0401,-2.2083,-2.3288,-2.4406,-2.5473,-2.708,-2.8109,-2.8109,-2.9126,-2.9052,-2.7232,-2.711,-2.6329,-2.4583,-2.4497,-2.4497,-2.4497,-2.4497,-2.4497,-2.4497,-2.4497,-2.4497,-2.4497,-2.4497,-2.4497,-2.4497,-2.4497,-2.4497,-2.4497,-2.4497,-2.4497,-2.4497,-2.4497,-2.4497,-2.4497,-2.4497,-2.4497,-2.4497,-2.4497,-2.4497,-2.4497,-2.4497,-2.4497,-2.4497,-2.4497,-2.4497,-2.4497,-2.4497,-2.4497,-2.4497,-2.4497,-2.4497,-2.4497,-2.4497,-2.4497,-2.4497,-2.4497,-2.4497,-2.4497,-2.4497,-2.4497,-2.4497,-2.4497,-2.4497,-2.4497,-2.4497,-2.4497,-2.4497,-2.4497,-2.4497,-2.4497,-2.4497,-2.4497,-2.4497,-2.4497,-2.4497,-2.4497,-2.4497,-2.4497,-2.4497,-2.4497,-2.4497,-2.4497,-2.4497,-2.4497,-2.4497,-2.4497,-2.4497,-2.4497,-2.4497,-2.4497,-2.4497,-2.4497,-2.4497,-2.4497,-1.9196,-1.9246,-1.9196,-1.902,-1.8844,-1.8568,-1.8028,-1.7187,-1.6387,-1.6032,-1.5399,-1.4997,-1.5349,-1.6007,-1.6801,-1.7752,-1.9334,-2.0742,-2.1619,-2.3376,-2.4682,-2.4988,-2.6337,-2.7729,-2.9139,-2.7941,-2.7069,-2.711,-2.6008,-2.5062,-2.454,-2.4497,-2.4497,-2.4497,-2.4497,-2.4497,-2.4497,-2.4497,-2.4497,-2.4497,-2.4497,-2.4497,-2.4497,-2.4497,-2.4497,-2.4497,-2.4497,-2.4497,-2.4497,-2.4497,-2.4497,-2.4497,-2.4497,-2.4497,-2.4497,-2.4497,-2.4497,-2.4497,-2.4497,-2.4497,-2.4497,-2.4497,-2.4497,-2.4497,-2.4497,-2.4497,-2.4497,-2.4497,-2.4497,-2.4497,-2.4497,-2.4497,-2.4497,-2.4497,-2.4497,-2.4497,-2.4497,-2.4497,-2.4497,-2.4497,-2.4497,-2.4497,-2.4497,-2.4497,-2.4497,-2.4497,-2.4497,-2.4497,-2.4497,-2.4497,-2.4497,-2.4497,-2.4497,-2.4497,-2.4497,-2.4497,-2.4497,-2.4497,-2.4497,-2.4497,-2.4497,-2.4497,-2.4497,-2.4497,-2.4497,-2.4497,-2.4497,-2.4497,-2.4497,-2.4497,-2.4497,-2.4497,-1.8091,-1.8204,-1.8204,-1.8204,-1.8053,-1.7802,-1.7486,-1.6773,-1.6057,-1.5512,-1.5135,-1.4896,-1.4896,-1.5781,-1.6751,-1.7564,-1.9208,-2.0641,-2.138,-2.3238,-2.4766,-2.5472,-2.6275,-2.731,-2.8655,-2.7261,-2.6359,-2.6607,-2.5589,-2.4861,-2.4497,-2.4497,-2.4497,-2.4497,-2.4497,-2.4497,-2.4497,-2.4497,-2.4497,-2.4497,-2.4497,-2.4497,-2.4497,-2.4497,-2.4497,-2.4497,-2.4497,-2.4497,0.0,-2.4497,-2.4497,-2.4497,-2.4497,-2.4497,-2.4497,-2.4497,-2.4497,-2.4497,-2.4497,-2.4497,-2.4497,-2.4497,-2.4497,-2.4497,-2.4497,-2.4497,-2.4497,-2.4497,-2.4497,-2.4497,-2.4497,-2.4497,-2.4497,-2.4497,-2.4497,-2.4497,-2.4497,-2.4497,-2.4497,-2.4497,-2.4497,-2.4497,-2.4497,-2.4497,-2.4497,-2.4497,-2.4497,-2.4497,-2.4497,-2.4497,-2.4497,-2.4497,-2.4497,-2.4497,-2.4497,-2.4497,-2.4497,-2.4497,-2.4497,-2.4497,-2.4497,-2.4497,-2.4497,-2.4497,-2.4497,-2.4497,-2.4497,-2.4497,-2.4497,-2.4497,-2.4497,-2.4497,0.0,-1.8091,-1.8091,-1.8091,-1.7702,-1.7348,-1.7348,-1.6505,0.0,-1.506,-1.4941,-1.4916,-1.4947,-1.5806,-1.6864,-1.8016,-1.9145,-2.0263,-2.1393,-2.3025,-2.4822,-2.6661,-2.6776,-2.6839,-2.7169,-2.7028,-2.6618,-2.5861,-2.5735,-2.5337,-2.454,-2.4497,-2.4497,-2.4497,-2.4497,-2.4497,-2.4497,-2.4497,-2.4497,-2.4497,-2.4497,-2.4497,-2.4497,-2.4497,-2.4497,-2.4497,-2.4497,-2.4497,-2.4497,-2.4497,-2.4497,-2.4497,-2.4497,-2.4497,-2.4497,-2.4497,-2.4497,-2.4497,-2.4497,-2.4497,-2.4497,-2.4497,-2.4497,-2.4497,-2.4497,-2.4497,-2.4497,-2.4497,-2.4497,-2.4497,-2.4497,-2.4497,-2.4497,-2.4497,-2.4497,-2.4497,-2.4497,-2.4497,-2.4497,-2.4497,-2.4497,-2.4497,-2.4497,-2.4497,-2.4497,-2.4497,-2.4497,-2.4497,-2.4497,-2.4497,-2.4497,-2.4497,-2.4497,-2.4497,-2.4497,-2.4497,-2.4497,-2.4497,-2.4497,-2.4497,-2.4497,-2.4497,-2.4497,-2.4497,-2.4497,-2.4497,-2.4497,-2.4497,-2.4497,-2.4497,-2.4497,-2.4497,-1.6713,0.0,-1.6889,-1.6889,-1.6789,-1.6701,0.0,-1.6183,-1.5655,-1.553,-1.5185,-1.5022,-1.5449,-1.6057,-1.6864,-1.8016,-1.9497,-2.088,-2.197,-2.3904,-2.5857,-2.7604,-2.6637,-2.6426,-2.8036,-2.634,-2.5306,-2.5788,-2.5179,-2.4743,-2.4497,-2.4497,-2.4497,-2.4497,-2.4497,-2.4497,-2.4497,-2.4497,-2.4497,-2.4497,-2.4497,-2.4497,-2.4497,-2.4497,-2.4497,-2.4497,-2.4497,-2.4497,-2.4497,-2.4497,-2.4497,-2.4497,-2.4497,-2.4497,-2.4497,-2.4497,-2.4497,-2.4497,-2.4497,-2.4497,-2.4497,-2.4497,-2.4497,-2.4497,-2.4497,-2.4497,-2.4497,-2.4497,-2.4497,-2.4497,-2.4497,-2.4497,-2.4497,-2.4497,-2.4497,-2.4497,-2.4497,-2.4497,-2.4497,-2.4497,-2.4497,-2.4497,-2.4497,-2.4497,-2.4497,-2.4497,-2.4497,-2.4497,-2.4497,-2.4497,-2.4497,-2.4497,-2.4497,-2.4497,-2.4497,-2.4497,-2.4497,-2.4497,-2.4497,-2.4497,-2.4497,-2.4497,-2.4497,-2.4497,-2.4497,-2.4497,-2.4497,-2.4497,-2.4497,-2.4497,-2.4497,-2.4497,-1.6057,-1.63,-1.65,-1.65,-1.65,-1.65,-1.65,-1.6095,-1.5693,-1.5693,-1.5475,-1.5437,-1.5969,-1.6735,-1.7629,-1.8756,-2.0338,-2.1983,-2.359,-2.5071,-2.6226,-2.683,-2.6267,-2.6103,-2.6591,-2.5359,-2.47,-2.5189,-2.4775,-2.4497,-2.4497,-2.4497,-2.4497,-2.4497,-2.4497,-2.4497,-2.4497,-2.4497,-2.4497,-2.4497,-2.4497,-2.4497,-2.4497,-2.4497,-2.4497,-2.4497,-2.4497,-2.4497,-2.4497,-2.4497,-2.4497,-2.4497,-2.4497,-2.4497,-2.4497,-2.4497,-2.4497,-2.4497,-2.4497,-2.4497,-2.4497,-2.4497,-2.4497,-2.4497,-2.4497,-2.4497,-2.4497,-2.4497,-2.4497,-2.4497,-2.4497,-2.4497,-2.4497,-2.4497,-2.4497,-2.4497,-2.4497,-2.4497,-2.4497,-2.4497,-2.4497,-2.4497,-2.4497,-2.4497,-2.4497,-2.4497,-2.4497,-2.4497,-2.4497,-2.4497,-2.4497,-2.4497,-2.4497,-2.4497,-2.4497,-2.4497,-2.4497,-2.4497,-2.4497,-2.4497,-2.4497,-2.4497,-2.4497,-2.4497,-2.4497,-2.4497,-2.4497,-2.4497,-2.4497,-2.4497,-2.4497,-2.4497,-1.5668,-1.6095,-1.65,-1.65,-1.65,-1.65,-1.65,-1.6158,-1.5844,-1.5932,-1.5957,-1.612,-1.6651,-1.7689,-1.8719,-1.952,-2.1216,-2.3142,-2.531,-2.6197,-2.6448,-2.5952,-2.6122,-2.5916,-2.4988,-2.4668,-2.4497,-2.4497,-2.4497,-2.4497,-2.4497,-2.4497,-2.4497,-2.4497,-2.4497,-2.4497,-2.4497,-2.4497,-2.4497,-2.4497,-2.4497,-2.4497,-2.4497,-2.4497,-2.4497,-2.4497,-2.4497,-2.4497,-2.4497,-2.4497,-2.4497,-2.4497,-2.4497,-2.4497,-2.4497,-2.4497,-2.4497,-2.4497,-2.4497,-2.4497,-2.4497,-2.4497,-2.4497,-2.4497,-2.4497,-2.4497,-2.4497,-2.4497,-2.4497,-2.4497,-2.4497,-2.4497,-2.4497,-2.4497,-2.4497,-2.4497,-2.4497,-2.4497,-2.4497,-2.4497,-2.4497,-2.4497,-2.4497,-2.4497,-2.4497,-2.4497,-2.4497,-2.4497,-2.4497,-2.4497,-2.4497,-2.4497,-2.4497,-2.4497,-2.4497,-2.4497,-2.4497,-2.4497,-2.4497,-2.4497,-2.4497,-2.4497,-2.4497,-2.4497,-2.4497,-2.4497,-2.4497,-2.4497,-2.4497,-2.4497,-2.4497,-2.4497,-1.5567,-1.6095,-1.65,-1.65,-1.65,-1.65,-1.65,-1.6437,-1.6513,-1.7024,-1.7146,-1.7287,-1.784,-1.8832,-1.9431,-1.9018,-2.1172,-2.3528,-2.5344,-2.6502,-2.7322,-2.7643,-2.6872,-2.6399,-2.6655,-2.5359,-2.4497,-2.4497,-2.4497,-2.4497,-2.4497,-2.4497,-2.4497,-2.4497,-2.4497,-2.4497,-2.4497,-2.4497,-2.4497,-2.4497,-2.4497,-2.4497,-2.4497,-2.4497,-2.4497,-2.4497,-2.4497,-2.4497,-2.4497,-2.4497,-2.4497,-2.4497,-2.4497,-2.4497,-2.4497,-2.4497,-2.4497,-2.4497,-2.4497,-2.4497,-2.4497,-2.4497,-2.4497,-2.4497,-2.4497,-2.4497,-2.4497,-2.4497,-2.4497,-2.4497,-2.4497,-2.4497,-2.4497,-2.4497,-2.4497,-2.4497,-2.4497,-2.4497,-2.4497,-2.4497,-2.4497,-2.4497,-2.4497,-2.4497,-2.4497,-2.4497,-2.4497,-2.4497,-2.4497,-2.4497,-2.4497,-2.4497,-2.4497,-2.4497,-2.4497,-2.4497,-2.4497,-2.4497,-2.4497,-2.4497,-2.4497,-2.4497,-2.4497,-2.4497,-2.4497,-2.4497,-2.4497,-2.4497,-2.4497,-2.4497,-2.4497,-2.4497,-1.5542,-1.6095,-1.65,-1.65,-1.65,-1.6597,-1.6911,-1.6986,-1.7149,-1.7714,-1.7827,-1.8078,-1.8907,-1.9472,-2.0195,-2.142,-2.2851,-2.4292,-2.5648,-2.6539,-2.6918,-2.6484,-2.6604,-2.6452,-2.5746,-2.4988,-2.4497,-2.4497,-2.4497,-2.4497,-2.4497,-2.4497,-2.4497,-2.4497,-2.4497,-2.4497,-2.4497,-2.4497,-2.4497,-2.4497,-2.4497,-2.4497,-2.4497,-2.4497,-2.4497,-2.4497,-2.4497,-2.4497,-2.4497,-2.4497,-2.4497,-2.4497,-2.4497,-2.4497,-2.4497,-2.4497,-2.4497,-2.4497,-2.4497,-2.4497,-2.4497,-2.4497,-2.4497,-2.4497,-2.4497,-2.4497,-2.4497,-2.4497,-2.4497,-2.4497,-2.4497,-2.4497,-2.4497,-2.4497,-2.4497,-2.4497,-2.4497,-2.4497,-2.4497,-2.4497,-2.4497,-2.4497,-2.4497,-2.4497,-2.4497,-2.4497,-2.4497,-2.4497,-2.4497,-2.4497,-2.4497,-2.4497,-2.4497,-2.4497,-2.4497,-2.4497,-2.4497,-2.4497,-2.4497,-2.4497,-2.4497,-2.4497,-2.4497,-2.4497,-2.4497,-2.4497,-2.4497,-2.4497,-2.4497,-2.4497,-2.4497,-2.4497,-1.5542,-1.6095,-1.6525,-1.6685,-1.6722,-1.6835,-1.7297,-1.7511,-1.7788,-1.8442,-1.8581,-1.8907,-1.9999,-2.0295,-2.1182,-2.3704,-2.4335,-2.4856,-2.5852,-2.6501,-2.65,-2.5447,-2.6192,-2.6287,-2.4946,-2.4615,-2.4497,-2.4497,-2.4497,-2.4497,-2.4497,-2.4497,-2.4497,-2.4497,-2.4497,-2.4497,-2.4497,-2.4497,-2.4497,-2.4497,-2.4497,-2.4497,-2.4497,-2.4497,-2.4497,-2.4497,-2.4497,-2.4497,-2.4497,-2.4497,-2.4497,-2.4497,-2.4497,-2.4497,-2.4497,-2.4497,-2.4497,-2.4497,-2.4497,-2.4497,-2.4497,-2.4497,-2.4497,-2.4497,-2.4497,-2.4497,-2.4497,-2.4497,-2.4497,-2.4497,-2.4497,-2.4497,-2.4497,-2.4497,-2.4497,-2.4497,-2.4497,-2.4497,-2.4497,-2.4497,-2.4497,-2.4497,-2.4497,-2.4497,-2.4497,-2.4497,-2.4497,-2.4497,-2.4497,-2.4497,-2.4497,-2.4497,-2.4497,-2.4497,-2.4497,-2.4497,-2.4497,-2.4497,-2.4497,-2.4497,-2.4497,-2.4497,-2.4497,-2.4497,-2.4497,-2.4497,-2.4497,-2.4497,-2.4497,-2.4497,-2.4497,-2.4497,-1.5542,-1.6095,-1.6626,-1.7209,-1.7348,-1.736,-1.7398,-1.7777,-1.8442,-1.9472,-1.9685,-2.0024,-2.1154,-2.1677,-2.2501,-2.4201,-2.4538,-2.4914,-2.5889,-2.6464,-2.6664,-2.6256,-2.6017,-2.5819,-2.5704,-2.4978,-2.4497,-2.4497,-2.4497,-2.4497,-2.4497,-2.4497,-2.4497,-2.4497,-2.4497,-2.4497,-2.4497,-2.4497,-2.4497,-2.4497,-2.4497,-2.4497,-2.4497,-2.4497,-2.4497,-2.4497,-2.4497,-2.4497,-2.4497,-2.4497,-2.4497,-2.4497,-2.4497,-2.4497,-2.4497,-2.4497,-2.4497,-2.4497,-2.4497,-2.4497,-2.4497,-2.4497,-2.4497,-2.4497,-2.4497,-2.4497,-2.4497,-2.4497,-2.4497,-2.4497,-2.4497,-2.4497,-2.4497,-2.4497,-2.4497,-2.4497,-2.4497,-2.4497,-2.4497,-2.4497,-2.4497,-2.4497,-2.4497,-2.4497,-2.4497,-2.4497,-2.4497,-2.4497,-2.4497,-2.4497,-2.4497,-2.4497,-2.4497,-2.4497,-2.4497,-2.4497,-2.4497,-2.4497,-2.4497,-2.4497,-2.4497,-2.4497,-2.4497,-2.4497,-2.4497,-2.4497,-2.4497,-2.4497,-2.4497,-2.4497,-2.4497,-2.4497,-1.5969,-1.6622,-1.7032,-1.688,-1.7879,-1.8882,-1.8882,-1.9045,-1.951,-2.0627,-2.0853,-2.1041,-2.1687,-2.2369,-2.3036,-2.3665,-2.4377,-2.4862,-2.4941,-2.5912,-2.6262,-2.5276,-2.5565,-2.5579,-2.5062,-2.47,-2.4497,-2.4497,-2.4497,-2.4497,-2.4497,-2.4497,-2.4497,-2.4497,-2.4497,-2.4497,-2.4497,-2.4497,-2.4497,-2.4497,-2.4497,-2.4497,-2.4497,-2.4497,-2.4497,-2.4497,-2.4497,-2.4497,-2.4497,-2.4497,-2.4497,-2.4497,-2.4497,-2.4497,-2.4497,-2.4497,-2.4497,-2.4497,-2.4497,-2.4497,-2.4497,-2.4497,-2.4497,-2.4497,-2.4497,-2.4497,-2.4497,-2.4497,-2.4497,-2.4497,-2.4497,-2.4497,-2.4497,-2.4497,-2.4497,-2.4497,-2.4497,-2.4497,-2.4497,-2.4497,-2.4497,-2.4497,-2.4497,-2.4497,-2.4497,-2.4497,-2.4497,-2.4497,-2.4497,-2.4497,-2.4497,-2.4497,-2.4497,-2.4497,-2.4497,-2.4497,-2.4497,-2.4497,-2.4497,-2.4497,-2.4497,-2.4497,-2.4497,-2.4497,-2.4497,-2.4497,-2.4497,-2.4497,-2.4497,-2.4497,-2.4497,-2.4497,-1.6199,-1.6936,-1.7345,-1.7103,-1.8437,-1.9899,-2.025,-2.0167,-2.0409,-2.1725,-2.2097,-2.2128,-2.2051,-2.273,-2.3279,-2.3236,-2.4192,-2.4797,-2.4351,-2.5282,-2.5632,-2.4606,-2.502,-2.5147,-2.454,-2.4497,-2.4497,-2.4497,-2.4497,-2.4497,-2.4497,-2.4497,-2.4497,-2.4497,-2.4497,-2.4497,-2.4497,-2.4497,-2.4497,-2.4497,-2.4497,-2.4497,-2.4497,-2.4497,-2.4497,-2.4497,-2.4497,-2.4497,-2.4497,-2.4497,-2.4497,-2.4497,-2.4497,-2.4497,-2.4497,-2.4497,-2.4497,-2.4497,-2.4497,-2.4497,-2.4497,-2.4497,-2.4497,-2.4497,-2.4497,-2.4497,-2.4497,-2.4497,-2.4497,-2.4497,-2.4497,-2.4497,-2.4497,-2.4497,-2.4497,-2.4497,-2.4497,-2.4497,-2.4497,-2.4497,-2.4497,-2.4497,-2.4497,-2.4497,-2.4497,-2.4497,-2.4497,-2.4497,-2.4497,-2.4497,-2.4497,-2.4497,-2.4497,-2.4497,-2.4497,-2.4497,-2.4497,-2.4497,-2.4497,-2.4497,-2.4497,-2.4497,-2.4497,-2.4497,-2.4497,-2.4497,-2.4497,-2.4497,-2.4497,-2.4497,-2.4497,-2.458,-1.6199,-1.6948,-1.7513,-1.8055,-1.902,-2.0112,-2.1242,-2.0986,-2.1003,-2.2775,-2.3374,-2.3287,-2.2303,-2.2737,-2.3227,-2.3025,-2.4022,-2.4683,-2.4351,-2.4683,-2.4895,-2.452,-2.4497,-2.4497,-2.4497,-2.4497,-2.4497,-2.4497,-2.4497,-2.4497,-2.4497,-2.4497,-2.4497,-2.4497,-2.4497,-2.4497,-2.4497,-2.4497,-2.4497,-2.4497,-2.4497,-2.4497,-2.4497,-2.4497,-2.4497,-2.4497,-2.4497,-2.4497,-2.4497,-2.4497,-2.4497,-2.4497,-2.4497,-2.4497,-2.4497,-2.4497,-2.4497,-2.4497,-2.4497,-2.4497,-2.4497,-2.4497,-2.4497,-2.4497,-2.4497,-2.4497,-2.4497,-2.4497,-2.4497,-2.4497,-2.4497,-2.4497,-2.4497,-2.4497,-2.4497,-2.4497,-2.4497,-2.4497,-2.4497,-2.4497,-2.4497,-2.4497,-2.4497,-2.4497,-2.4497,-2.4497,-2.4497,-2.4497,-2.4497,-2.4497,-2.4497,-2.4497,-2.4497,-2.4497,-2.4497,-2.4497,-2.4497,-2.4497,-2.4497,-2.4497,-2.4497,-2.4497,-2.4497,-2.4497,-2.4497,-2.4497,-2.4497,-2.4497,-2.4497,-2.4497,-2.4507,-2.4755,-1.577,-1.6965,-1.7913,-1.7684,-1.934,-2.1056,-2.137,-2.1908,-2.2692,-2.4029,-2.3351,-2.2641,-2.2881,-2.2557,-2.2222,-2.2155,-2.3503,-2.4353,-2.3615,-2.4701,-2.5302,-2.4562,-2.4497,-2.4497,-2.4497,-2.4497,-2.4497,-2.4497,-2.4497,-2.4497,-2.4497,-2.4497,-2.4497,-2.4497,-2.4497,-2.4497,-2.4497,-2.4497,-2.4497,-2.4497,-2.4497,-2.4497,-2.4497,-2.4497,-2.4497,-2.4497,-2.4497,-2.4497,-2.4497,-2.4497,-2.4497,-2.4497,-2.4497,-2.4497,-2.4497,-2.4497,-2.4497,-2.4497,-2.4497,-2.4497,-2.4497,-2.4497,-2.4497,-2.4497,-2.4497,-2.4497,-2.4497,-2.4497,-2.4497,-2.4497,-2.4497,-2.4497,-2.4497,-2.4497,-2.4497,-2.4497,-2.4497,-2.4497,-2.4497,-2.4497,-2.4497,-2.4497,-2.4497,-2.4497,-2.4497,-2.4497,-2.4497,-2.4497,-2.4497,-2.4497,-2.4497,-2.4497,-2.4497,-2.4497,-2.4497,-2.4497,-2.4497,-2.4497,-2.4497,-2.4497,-2.4497,-2.4497,-2.4497,-2.4497,-2.4497,-2.4497,-2.4497,-2.4497,-2.4497,-2.4507,-2.4828,-2.5438,-1.6126,-1.7308,-1.8212,-1.834,-1.9934,-2.1652,-2.2146,-2.2804,-2.3291,-2.3342,-2.2846,-2.2506,-2.2677,-2.219,-2.1807,-2.1807,-2.3023,-2.3796,-2.3265,-2.4397,-2.5105,-2.4583,-2.4497,-2.4497,-2.4497,-2.4497,-2.4497,-2.4497,-2.4497,-2.4497,-2.4497,-2.4497,-2.4497,-2.4497,-2.4497,-2.4497,-2.4497,-2.4497,-2.4497,-2.4497,-2.4497,-2.4497,-2.4497,-2.4497,-2.4497,-2.4497,-2.4497,-2.4497,-2.4497,-2.4497,-2.4497,-2.4497,-2.4497,-2.4497,-2.4497,-2.4497,-2.4497,-2.4497,-2.4497,-2.4497,-2.4497,-2.4497,-2.4497,-2.4497,-2.4497,-2.4497,-2.4497,-2.4497,-2.4497,-2.4497,-2.4497,-2.4497,-2.4497,-2.4497,-2.4497,-2.4497,-2.4497,-2.4497,-2.4497,-2.4497,-2.4497,-2.4497,-2.4497,-2.4497,-2.4497,-2.4497,-2.4497,-2.4497,-2.4497,-2.4497,-2.4497,-2.4497,-2.4497,-2.4497,-2.4497,-2.4497,-2.4497,-2.4497,-2.4497,-2.4497,-2.4497,-2.4497,-2.4497,-2.4497,-2.4497,-2.4497,-2.4497,-2.4497,-2.459,-2.4776,-2.5055,-2.5929,-1.6879,-1.7754,-1.8456,-1.9546,-2.0776,-2.2043,-2.3211,-2.3525,-2.3164,-2.1684,-2.2168,-2.2703,-2.2035,-2.1845,-2.1807,-2.1807,-2.2584,-2.3184,-2.3184,-2.3971,-2.4497,-2.4497,-2.4497,-2.4497,-2.4497,-2.4497,-2.4497,-2.4497,-2.4497,-2.4497,-2.4497,-2.4497,-2.4497,-2.4497,-2.4497,-2.4497,-2.4497,-2.4497,-2.4497,-2.4497,-2.4497,-2.4497,-2.4497,-2.4497,-2.4497,-2.4497,-2.4497,-2.4497,-2.4497,-2.4497,-2.4497,-2.4497,-2.4497,-2.4497,-2.4497,-2.4497,-2.4497,-2.4497,-2.4497,-2.4497,-2.4497,-2.4497,-2.4497,-2.4497,-2.4497,-2.4497,-2.4497,-2.4497,-2.4497,-2.4497,-2.4497,-2.4497,-2.4497,-2.4497,-2.4497,-2.4497,-2.4497,-2.4497,-2.4497,-2.4497,-2.4497,-2.4497,-2.4497,-2.4497,-2.4497,-2.4497,-2.4497,-2.4497,-2.4497,-2.4497,-2.4497,-2.4497,-2.4497,-2.4497,-2.4497,-2.4497,-2.4497,-2.4497,-2.4497,-2.4497,-2.4497,-2.4497,-2.4497,-2.4497,-2.4497,-2.4518,-2.4559,-2.4559,-2.4797,-2.5251,-2.5425,-2.6443,-1.6398,-1.7474,-1.8471,-1.9613,-2.1683,-2.3325,-2.2868,-2.3052,-2.3374,-2.3449,-2.2717,-2.2214,-2.2665,-2.2225,-2.1807,-2.1807,-2.2584,-2.3184,-2.3184,-2.3971,-2.4497,-2.4497,-2.4497,-2.4497,-2.4497,-2.4497,-2.4497,-2.4497,-2.4497,-2.4497,-2.4497,-2.4497,-2.4497,-2.4497,-2.4497,-2.4497,-2.4497,-2.4497,-2.4497,-2.4497,-2.4497,-2.4497,-2.4497,-2.4497,-2.4497,-2.4497,-2.4497,-2.4497,-2.4497,-2.4497,-2.4497,-2.4497,-2.4497,-2.4497,-2.4497,-2.4497,-2.4497,-2.4497,-2.4497,-2.4497,-2.4497,-2.4497,-2.4497,-2.4497,-2.4497,-2.4497,-2.4497,-2.4497,-2.4497,-2.4497,-2.4497,-2.4497,-2.4497,-2.4497,-2.4497,-2.4497,-2.4497,-2.4497,-2.4497,-2.4497,-2.4497,-2.4497,-2.4497,-2.4497,-2.4497,-2.4497,-2.4497,-2.4497,-2.4497,-2.4497,-2.4497,-2.4497,-2.4497,-2.4497,-2.4497,-2.4497,-2.4497,-2.4497,-2.4497,-2.4497,-2.4497,-2.4497,-2.4497,-2.4497,-2.4497,-2.4673,-2.5034,-2.5034,-2.5316,-2.5796,-2.6896,-2.802,-1.6008,-1.7125,-1.8167,-1.9779,-2.1771,-2.3102,-2.223,-2.2616,-2.3137,-2.3025,-2.2354,-2.1911,-2.2365,-2.2063,-2.1807,-2.1807,-2.2584,-2.3184,-2.3184,-2.3971,-2.4497,-2.4497,-2.4497,-2.4497,-2.4497,-2.4497,-2.4497,-2.4497,-2.4497,-2.4497,-2.4497,-2.4497,-2.4497,-2.4497,-2.4497,-2.4497,-2.4497,-2.4497,-2.4497,-2.4497,-2.4497,-2.4497,-2.4497,-2.4497,-2.4497,-2.4497,-2.4497,-2.4497,-2.4497,-2.4497,-2.4497,-2.4497,-2.4497,-2.4497,-2.4497,-2.4497,-2.4497,-2.4497,-2.4497,-2.4497,-2.4497,-2.4497,-2.4497,-2.4497,-2.4497,-2.4497,-2.4497,-2.4497,-2.4497,-2.4497,-2.4497,-2.4497,-2.4497,-2.4497,-2.4497,-2.4497,-2.4497,-2.4497,-2.4497,-2.4497,-2.4497,-2.4497,-2.4497,-2.4497,-2.4497,-2.4497,-2.4497,-2.4497,-2.4497,-2.4497,-2.4497,-2.4497,-2.4497,-2.4497,-2.4497,-2.4497,-2.4497,-2.4497,-2.4497,-2.4497,-2.4497,-2.4714,-2.4724,-2.4507,-2.4714,-2.4952,-2.5189,-2.5862,-2.6466,-2.6913,-2.8131,-2.9361,-1.5678,-1.6923,-1.8082,-2.0009,-2.151,-2.233,-2.1644,-2.2201,-2.268,-2.1939,-2.1807,-2.1807,-2.1807,-2.1807,-2.1807,-2.1807,-2.2511,-2.3091,-2.3174,-2.3898,-2.4414,-2.4487,-2.4497,-2.4497,-2.4497,-2.4497,-2.4497,-2.4497,-2.4497,-2.4497,-2.4497,-2.4497,-2.4497,-2.4497,-2.4497,-2.4497,-2.4497,-2.4497,-2.4497,-2.4497,-2.4497,-2.4497,-2.4497,-2.4497,-2.4497,-2.4497,-2.4497,-2.4497,-2.4497,-2.4497,-2.4497,-2.4497,-2.4497,-2.4497,-2.4497,-2.4497,-2.4497,-2.4497,-2.4497,-2.4497,-2.4497,-2.4497,-2.4497,-2.4497,-2.4497,-2.4497,-2.4497,-2.4497,-2.4497,-2.4497,-2.4497,-2.4497,-2.4497,-2.4497,-2.4497,-2.4497,-2.4497,-2.4497,-2.4497,-2.4497,-2.4497,-2.4497,-2.4497,-2.4497,-2.4497,-2.4497,-2.4497,-2.4497,-2.4497,-2.4497,-2.4497,-2.4497,-2.4497,-2.4497,-2.4497,-2.4497,-2.4497,-2.4497,-2.458,-2.4621,-2.4621,-2.5055,-2.5117,-2.4735,-2.5106,-2.5344,-2.5461,-2.6775,-2.7643,-2.8169,-2.9316,-3.0479,-1.526,-1.7303,-1.9112,-2.0217,-2.1332,-2.2051,-2.1593,-2.1974,-2.2269,-2.1876,-2.1807,-2.1807,-2.1807,-2.1807,-2.1807,-2.1807,-2.2242,-2.2729,-2.3132,-2.3639,-2.4105,-2.4456,-2.4497,-2.4497,-2.4497,-2.4497,-2.4497,-2.4497,-2.4497,-2.4497,-2.4497,-2.4497,-2.4497,-2.4497,-2.4497,-2.4497,-2.4497,-2.4497,-2.4497,-2.4497,-2.4497,-2.4497,-2.4497,-2.4497,-2.4497,-2.4497,-2.4497,-2.4497,-2.4497,-2.4497,-2.4497,-2.4497,-2.4497,-2.4497,-2.4497,-2.4497,-2.4497,-2.4497,-2.4497,-2.4497,-2.4497,-2.4497,-2.4497,-2.4497,-2.4497,-2.4497,-2.4497,-2.4497,-2.4497,-2.4497,-2.4497,-2.4497,-2.4497,-2.4497,-2.4497,-2.4497,-2.4497,-2.4497,-2.4497,-2.4497,-2.4497,-2.4497,-2.4497,-2.4497,-2.4497,-2.4497,-2.4497,-2.4497,-2.4497,-2.4497,-2.4497,-2.4497,-2.4497,-2.4497,-2.4497,-2.4497,-2.4497,-2.4497,-2.4879,-2.5096,-2.5096,-2.5564,-2.5761,-2.5699,-2.5761,-2.5989,-2.6438,-2.7431,-2.8145,-2.8672,-3.0483,-3.142,-1.4576,-1.6335,-1.7786,-1.9112,-1.9947,-2.0434,-2.0514,-2.1097,-2.1571,-2.1447,-2.1621,-2.1807,-2.1807,-2.1807,-2.1807,-2.1807,-2.219,-2.2656,-2.3122,-2.3588,-2.4043,-2.4445,-2.4497,-2.4497,-2.4497,-2.4497,-2.4497,-2.4497,-2.4497,-2.4497,-2.4497,-2.4497,-2.4497,-2.4497,-2.4497,-2.4497,-2.4497,-2.4497,-2.4497,-2.4497,-2.4497,-2.4497,-2.4497,-2.4497,-2.4497,-2.4497,-2.4497,-2.4497,-2.4497,-2.4497,-2.4497,-2.4497,-2.4497,-2.4497,-2.4497,-2.4497,-2.4497,-2.4497,-2.4497,-2.4497,-2.4497,-2.4497,-2.4497,-2.4497,-2.4497,-2.4497,-2.4497,-2.4497,-2.4497,-2.4497,-2.4497,-2.4497,-2.4497,-2.4497,-2.4497,-2.4497,-2.4497,-2.4497,-2.4497,-2.4497,-2.4497,-2.4497,-2.4497,-2.4497,-2.4497,-2.4497,-2.4497,-2.4497,-2.4497,-2.4497,-2.4497,-2.4497,-2.4497,-2.4497,-2.4497,-2.4735,-2.489,-2.489,-2.5347,-2.5595,-2.5595,-2.603,-2.6314,-2.6314,-2.6314,-2.6626,-2.7377,-2.8619,-2.9591,-3.0362,-3.1757,-3.2438,-1.3849,-1.5123,-1.612,-1.7835,-1.8436,-1.8805,-1.9463,-2.0145,-2.069,0.0,-2.1393,-2.1662,-2.1787,-2.1807,-2.1807,-2.1807,-2.2097,-2.248,-2.2946,-2.3412,-2.3867,-2.4322,-2.4435,-2.4497,-2.4497,-2.4497,-2.4497,-2.4497,-2.4497,-2.4497,-2.4497,-2.4497,-2.4497,-2.4497,-2.4497,-2.4497,-2.4497,-2.4497,-2.4497,-2.4497,-2.4497,-2.4497,-2.4497,-2.4497,-2.4497,-2.4497,-2.4497,-2.4497,-2.4497,-2.4497,-2.4497,-2.4497,-2.4497,-2.4497,-2.4497,-2.4497,-2.4497,-2.4497,-2.4497,-2.4497,-2.4497,-2.4497,-2.4497,-2.4497,-2.4497,-2.4497,-2.4497,-2.4497,-2.4497,-2.4497,-2.4497,-2.4497,-2.4497,-2.4497,-2.4497,-2.4497,-2.4497,-2.4497,-2.4497,-2.4497,-2.4497,-2.4497,-2.4497,-2.4497,-2.4497,-2.4497,-2.4497,-2.4497,-2.4497,-2.4497,-2.4497,-2.4497,-2.4611,-2.4673,-2.4673,-2.5096,-2.5399,-2.5399,-2.5813,-2.6096,-2.6096,-2.6542,-2.6791,-2.6791,-2.6791,-2.7235,-2.8178,-2.9534,-3.0576,-3.1258,-3.2525,-3.2939,-1.3119,-1.3988,-1.486,-1.6803,-1.73,-1.7615,-1.8865,-1.9181,-1.9541,-2.0845,-2.1135,-2.128,-2.1725,-2.1807,-2.1807,-2.1807,-2.1828,-2.2004,-2.247,-2.2925,-2.3391,-2.3857,-2.4281,-2.4497,-2.4497,-2.4497,-2.4497,-2.4497,-2.4497,-2.4497,-2.4497,-2.4497,-2.4497,-2.4497,-2.4497,-2.4497,-2.4497,-2.4497,-2.4497,-2.4497,-2.4497,-2.4497,-2.4497,-2.4497,-2.4497,-2.4497,-2.4497,-2.4497,-2.4497,-2.4497,-2.4497,-2.4497,-2.4497,-2.4497,-2.4497,-2.4497,-2.4497,-2.4497,-2.4497,-2.4497,-2.4497,-2.4497,-2.4497,-2.4497,-2.4497,-2.4497,-2.4497,-2.4497,-2.4497,-2.4497,-2.4497,-2.4497,-2.4497,-2.4497,-2.4497,-2.4497,-2.4497,-2.4497,-2.4497,-2.4497,-2.4497,-2.4497,-2.4497,-2.4497,-2.4497,-2.4497,-2.4497,-2.4497,-2.4497,-2.4497,-2.4497,-2.4497,-2.489,-2.5148,-2.5148,-2.5595,-2.5844,-2.5844,-2.6279,-2.6573,-2.6573,-2.7019,-2.7268,-2.7268,-2.7268,-2.7731,-2.8691,-2.9704,-3.0215,-3.0306,-3.2208,-3.2581,-1.1783,-1.269,-1.3619,-1.5358,-1.6251,-1.6964,-1.7957,-1.8661,-1.9326,-2.0079,-2.071,-2.1166,-2.1331,-2.1611,-2.1807,-2.1807,-2.1807,-2.1963,-2.2428,-2.2894,-2.336,-2.3826,-2.4271,-2.4497,-2.4497,-2.4497,-2.4497,-2.4497,-2.4497,-2.4497,-2.4497,-2.4497,-2.4497,-2.4497,-2.4497,-2.4497,-2.4497,-2.4497,-2.4497,-2.4497,-2.4497,-2.4497,-2.4497,-2.4497,-2.4497,-2.4497,-2.4497,-2.4497,-2.4497,-2.4497,-2.4497,-2.4497,-2.4497,-2.4497,-2.4497,-2.4497,-2.4497,-2.4497,-2.4497,-2.4497,-2.4497,-2.4497,-2.4497,-2.4497,-2.4497,-2.4497,-2.4497,-2.4497,-2.4497,-2.4497,-2.4497,-2.4497,-2.4497,-2.4497,-2.4497,-2.4497,-2.4497,-2.4497,-2.4497,-2.4497,-2.4497,-2.4497,-2.4497,-2.4497,-2.4497,-2.4497,-2.4497,-2.4497,-2.4497,-2.4497,-2.4611,-2.491,-2.5086,-2.5303,-2.5627,-2.6061,-2.6366,-2.6366,-2.6801,-2.7061,-2.7061,-2.7216,-2.7309,-2.7309,-2.7309,-2.7762,-2.8678,-2.9084,-2.9578,-3.0215,-3.1536,-3.1945,-1.0601,-1.1497,-1.2402,-1.4113,-1.499,-1.5773,-1.6995,-1.774,-1.8455,-1.9378,-2.0041,-2.0524,-2.0824,-2.1259,-2.1621,-2.1776,-2.1807,-2.1911,-2.2221,-2.2666,-2.3122,-2.3588,-2.4043,-2.4332,-2.4487,-2.4497,-2.4497,-2.4497,-2.4497,0.0,-2.4497,-2.4497,-2.4497,-2.4497,-2.4497,-2.4497,-2.4497,-2.4497,-2.4497,-2.4497,-2.4497,-2.4497,-2.4497,-2.4497,-2.4497,-2.4497,-2.4497,-2.4497,-2.4497,-2.4497,-2.4497,-2.4497,-2.4497,-2.4497,-2.4497,-2.4497,-2.4497,-2.4497,-2.4497,-2.4497,-2.4497,-2.4497,-2.4497,-2.4497,-2.4497,-2.4497,-2.4497,-2.4497,-2.4497,-2.4497,-2.4497,-2.4497,-2.4497,-2.4497,-2.4497,-2.4497,-2.4497,-2.4497,-2.4497,-2.4497,-2.4497,-2.4497,-2.4497,-2.4497,-2.4497,-2.4497,-2.4497,-2.4497,-2.4497,-2.4631,-2.4848,-2.5158,-2.5502,-2.5802,-2.6127,-2.6584,-2.6843,-2.6843,-2.7133,-2.7309,-2.7309,-2.7309,-2.7309,-2.7309,-2.7309,-2.7631,-2.8222,-2.8538,-2.9037,-2.9715,-3.0991,-3.1769,0.0,0.0,0.0,-1.307,-1.3555,-1.4062,-1.5908,0.0,-1.691,-1.8673,-1.9067,-1.9357,-2.0189,-2.0762,-2.1228,-2.1694,-2.1787,-2.1807,-2.1807,-2.2201,-2.2666,-2.3111,-2.3588,-2.4043,-2.4435,-2.4487,-2.4497,-2.4497,-2.4497,-2.4497,-2.4497,-2.4497,-2.4497,-2.4497,-2.4497,-2.4497,-2.4497,-2.4497,-2.4497,-2.4497,-2.4497,-2.4497,-2.4497,-2.4497,-2.4497,-2.4497,-2.4497,-2.4497,-2.4497,-2.4497,-2.4497,-2.4497,-2.4497,-2.4497,-2.4497,-2.4497,-2.4497,-2.4497,-2.4497,-2.4497,-2.4497,-2.4497,-2.4497,-2.4497,-2.4497,-2.4497,-2.4497,-2.4497,-2.4497,-2.4497,-2.4497,-2.4497,-2.4497,-2.4497,-2.4497,-2.4497,-2.4497,-2.4497,-2.4497,-2.4497,-2.4497,-2.4497,-2.4497,-2.4497,-2.4497,-2.4497,-2.4497,-2.4507,-2.4518,-2.491,-2.5199,-2.523,-2.6051,-2.6625,-2.6635,-2.705,-2.7309,-2.7309,-2.7309,-2.7309,-2.7309,-2.7309,-2.7309,-2.7309,-2.7309,-2.7309,-2.7309,-2.8222,-2.8678,-2.8724,-3.0633,-3.212,-0.8866,0.0,0.0,0.0,0.0,0.0,0.0,0.0,-1.6525,-1.7399,-1.8123,-1.8776,-1.9334,-1.9855,-2.0286,-2.0731,-2.1373,-2.1807,-2.1807,-2.2201,-2.2542,-2.2677,-2.3391,-2.3929,-2.4053,-2.4311,-2.4497,0.0,-2.4497,-2.4497,-2.4497,-2.4497,-2.4497,-2.4497,-2.4497,-2.4497,-2.4497,-2.4497,-2.4497,-2.4497,-2.4497,-2.4497,-2.4497,-2.4497,-2.4497,-2.4497,-2.4497,-2.4497,-2.4497,-2.4497,-2.4497,-2.4497,-2.4497,-2.4497,-2.4497,-2.4497,-2.4497,-2.4497,-2.4497,-2.4497,-2.4497,-2.4497,-2.4497,-2.4497,-2.4497,-2.4497,-2.4497,-2.4497,-2.4497,-2.4497,-2.4497,-2.4497,-2.4497,-2.4497,-2.4497,-2.4497,-2.4497,-2.4497,-2.4497,-2.4497,-2.4497,-2.4497,-2.4497,-2.4497,-2.4497,-2.4497,-2.4497,-2.4621,-2.4952,-2.5106,-2.5482,-2.6134,-2.647,-2.675,-2.7092,-2.7237,-2.7309,-2.7309,-2.7309,-2.7309,-2.7309,-2.7309,-2.7309,-2.7309,-2.7309,-2.7309,-2.7309,-2.7584,-2.7668,-2.7715,-2.9669,-3.148,0.0,0.0,0.0,0.0,0.0,0.0,-1.3628,-1.4502,-1.5328,0.0,-1.6891,-1.746,-1.8102,-1.8609,-1.9054,-1.9499,-2.0348,-2.1083,-2.1466,-2.1745,-2.2066,-2.2449,-2.2977,-2.3381,-2.3567,-2.3826,-2.4053,-2.425,-2.426,-2.4301,-2.4487,-2.4497,-2.4497,-2.4497,-2.4497,-2.4497,-2.4497,-2.4497,-2.4497,-2.4497,-2.4497,-2.4497,-2.4497,-2.4497,-2.4497,-2.4497,-2.4497,-2.4497,-2.4497,-2.4497,-2.4497,-2.4497,-2.4497,-2.4497,-2.4497,-2.4497,-2.4497,-2.4497,-2.4497,-2.4497,-2.4497,-2.4497,-2.4497,-2.4497,-2.4497,-2.4497,-2.4497,-2.4497,-2.4497,-2.4497,-2.4497,-2.4497,-2.4497,-2.4497,-2.4497,-2.4497,-2.4497,-2.4497,-2.4497,-2.4497,-2.4497,-2.4497,-2.4497,-2.4497,-2.4497,-2.4497,-2.4662,-2.4879,-2.5148,-2.5554,-2.5989,-2.6563,-2.6791,-2.7009,-2.7289,-2.7309,-2.7309,-2.7309,-2.7309,-2.7309,-2.7309,-2.7309,-2.7309,-2.7309,-2.7309,-2.7309,-2.7309,-2.7309,-2.7489,-2.7904,-2.9498,-3.08,0.0,0.0,0.0,0.0,0.0,0.0,-1.2838,-1.3321,-1.3775,0.0,-1.5467,-1.5787,-1.6667,-1.7162,-1.7616,-1.8092,-1.8922,-1.9844,-2.0824,-2.101,-2.1362,-2.2242,-2.2387,-2.2604,-2.307,-2.3153,-2.336,-2.3774,-2.3888,-2.4074,-2.4476,-2.4497,-2.4497,-2.4497,-2.4497,-2.4497,-2.4497,-2.4497,-2.4497,-2.4497,-2.4497,-2.4497,-2.4497,-2.4497,-2.4497,-2.4497,-2.4497,-2.4497,-2.4497,-2.4497,-2.4497,-2.4497,-2.4497,-2.4497,-2.4497,-2.4497,-2.4497,-2.4497,-2.4497,-2.4497,-2.4497,-2.4497,-2.4497,-2.4497,-2.4497,-2.4497,-2.4497,-2.4497,-2.4497,-2.4497,-2.4497,-2.4497,-2.4497,-2.4497,-2.4497,-2.4497,-2.4497,-2.4497,-2.4497,-2.4497,-2.4497,-2.4497,-2.4497,-2.4497,-2.4518,-2.4569,-2.4921,-2.523,-2.5323,-2.6082,-2.6635,-2.6687,-2.7061,-2.7309,-2.7309,-2.7309,-2.7309,-2.7309,-2.7309,-2.7309,-2.7309,-2.7309,-2.7309,-2.7309,-2.7309,-2.7309,-2.7309,-2.7309,-2.7762,-2.8724,-2.9624,-3.0079,0.0,0.0,0.0,0.0,0.0,0.0,-1.1394,-1.2115,-1.2829,0.0,-1.4073,-1.4628,-1.5608,-1.5882,-1.6115,-1.6694,-1.7222,-1.8112,-1.9824,-2.0327,-2.0726,-2.1321,0.0,0.0,-2.2584,-2.2967,-2.3225,-2.3318,-2.3712,-2.4074,-2.4476,-2.4497,-2.4497,-2.4497,-2.4497,-2.4497,-2.4497,-2.4497,-2.4497,-2.4497,-2.4497,-2.4497,-2.4497,-2.4497,-2.4497,-2.4497,-2.4497,-2.4497,-2.4497,-2.4497,-2.4497,-2.4497,-2.4497,-2.4497,-2.4497,-2.4497,-2.4497,-2.4497,-2.4497,-2.4497,-2.4497,-2.4497,-2.4497,-2.4497,-2.4497,-2.4497,-2.4497,-2.4497,-2.4497,-2.4497,-2.4497,-2.4497,-2.4497,-2.4497,-2.4497,-2.4497,-2.4497,-2.4497,-2.4497,-2.4497,-2.4497,-2.4497,-2.4497,-2.4497,-2.4621,-2.5003,-2.5127,-2.5492,-2.6216,-2.6511,-2.676,-2.7133,-2.7258,-2.7309,-2.7309,-2.7309,-2.7309,-2.7309,-2.7309,-2.7309,-2.7309,-2.7309,-2.7309,-2.7309,-2.7309,-2.7309,-2.7309,-2.7309,-2.7762,-2.8678,-2.8899,-2.9452,0.0,0.0,0.0,-0.9397,0.0,0.0,0.0,-1.1143,-1.1684,-1.2489,-1.2835,-1.3283,-1.4236,-1.4389,-1.4675,-1.5457,-1.5979,-1.6597,-1.7605,-1.8692,0.0,0.0,0.0,0.0,-2.1414,-2.188,-2.2346,-2.2811,-2.3267,-2.3732,-2.4188,-2.4209,-2.427,-2.4487,-2.4497,-2.4497,-2.4497,-2.4497,-2.4497,-2.4497,-2.4497,-2.4497,-2.4497,-2.4497,-2.4497,-2.4497,-2.4497,-2.4497,-2.4497,-2.4497,-2.4497,-2.4497,-2.4497,-2.4497,-2.4497,-2.4497,-2.4497,-2.4497,-2.4497,-2.4497,-2.4497,-2.4497,-2.4497,-2.4497,-2.4497,-2.4497,-2.4497,-2.4497,-2.4497,-2.4497,-2.4497,-2.4497,-2.4497,-2.4497,-2.4497,-2.4497,-2.4497,-2.4497,-2.4497,-2.4497,-2.4497,-2.4497,-2.4497,-2.4497,-2.4652,-2.5117,-2.5409,-2.5802,-2.6532,-2.6812,-2.705,-2.7278,-2.7309,-2.7309,-2.7309,-2.7309,-2.7309,-2.7309,-2.7309,-2.7309,-2.7309,-2.7309,-2.7309,-2.7309,-2.7309,-2.7309,-2.7309,-2.7309,-2.7536,-2.7987,-2.8491,-2.8724,0.0,0.0,0.0,0.0,0.0,-0.9354,0.0,0.0,0.0,0.0,0.0,0.0,0.0,0.0,0.0,0.0,0.0,0.0,0.0,0.0,0.0,0.0,0.0,0.0,-2.012,-2.0659,-2.1362,-2.2294,-2.2791,-2.3298,-2.3888,-2.3919,-2.4084,-2.4487,-2.4497,-2.4497,-2.4497,-2.4497,-2.4497,-2.4497,-2.4497,-2.4497,-2.4497,-2.4497,-2.4497,-2.4497,-2.4497,-2.4497,-2.4497,-2.4497,-2.4497,-2.4497,-2.4497,-2.4497,-2.4497,-2.4497,-2.4497,-2.4497,-2.4497,-2.4497,-2.4497,-2.4497,-2.4497,-2.4497,-2.4497,-2.4497,-2.4497,-2.4497,-2.4497,-2.4497,-2.4497,-2.4497,-2.4497,-2.4497,-2.4497,-2.4497,-2.4497,-2.4497,-2.4497,-2.4497,-2.4497,-2.4497,-2.4497,-2.4569,-2.4786,-2.5241,-2.573,-2.6175,-2.6687,-2.7081,-2.7309,-2.7309,-2.7309,-2.7309,-2.7309,-2.7309,-2.7309,-2.7309,-2.7309,-2.7309,-2.7309,-2.7309,-2.7309,-2.7309,-2.7309,-2.7309,-2.7309,-2.7309,-2.7309,-2.7309,-2.8081,-2.8034,0.0,0.0,0.0,0.0,-1.0098,0.0,0.0,0.0,-0.9862,-1.0391,0.0,0.0,0.0,0.0,0.0,0.0,0.0,0.0,0.0,0.0,0.0,0.0,0.0,0.0,0.0,-1.9996,-2.085,-2.1818,-2.2315,-2.2956,-2.3836,-2.3919,-2.4084,-2.4487,-2.4497,-2.4497,-2.4497,-2.4497,-2.4497,-2.4497,-2.4497,-2.4497,-2.4497,-2.4497,-2.4497,-2.4497,-2.4497,-2.4497,-2.4497,-2.4497,-2.4497,-2.4497,-2.4497,-2.4497,-2.4497,-2.4497,-2.4497,-2.4497,-2.4497,-2.4497,-2.4497,-2.4497,-2.4497,-2.4497,-2.4497,-2.4497,-2.4497,-2.4497,-2.4497,-2.4497,-2.4497,-2.4497,-2.4497,-2.4497,-2.4497,-2.4497,-2.4497,-2.4497,-2.4497,-2.4497,-2.4497,-2.4497,-2.4497,-2.4838,-2.5261,-2.574,-2.6196,-2.6708,-2.7164,-2.7278,-2.7309,-2.7309,-2.7309,-2.7309,-2.7309,-2.7309,-2.7309,-2.7309,-2.7309,-2.7309,-2.7309,-2.7309,-2.7309,-2.7309,-2.7309,-2.7309,-2.7309,-2.7309,-2.7309,-2.7309,-2.7394,-2.7404,0.0,0.0,0.0,0.0,0.0,0.0,-1.0283,0.0,-0.9367,0.0,0.0,0.0,0.0,0.0,0.0,0.0,-1.1277,0.0,0.0,0.0,0.0,0.0,0.0,0.0,0.0,0.0,0.0,0.0,-2.1435,-2.2097,-2.3029,-2.3329,-2.3691,-2.4146,-2.4363,-2.4497,-2.4497,-2.4497,-2.4497,-2.4497,-2.4497,-2.4497,-2.4497,-2.4497,-2.4497,-2.4497,-2.4497,-2.4497,-2.4497,-2.4497,-2.4497,-2.4497,-2.4497,-2.4497,-2.4497,-2.4497,-2.4497,-2.4497,-2.4497,-2.4497,-2.4497,-2.4497,-2.4497,-2.4497,-2.4497,-2.4497,-2.4497,-2.4497,-2.4497,-2.4497,-2.4497,-2.4497,-2.4497,-2.4497,-2.4497,-2.4497,-2.4497,-2.4497,-2.4497,-2.4497,-2.4497,-2.459,-2.4848,-2.5065,-2.5378,-2.5813,-2.6324,-2.6781,-2.7247,-2.7309,-2.7309,-2.7309,-2.7309,-2.7309,-2.7309,-2.7177,-2.7119,-2.7309,-2.7309,-2.7309,-2.7309,-2.7309,-2.7309,-2.7309,-2.7309,-2.7309,-2.7309,-2.7309,-2.7309,-2.7309,-2.7309,-2.7309,-1.3957,0.0,0.0,0.0,0.0,0.0,0.0,0.0,0.0,0.0,0.0,0.0,0.0,0.0,0.0,0.0,0.0,0.0,0.0,0.0,0.0,0.0,0.0,0.0,0.0,0.0,0.0,0.0,0.0,-2.1331,-2.2263,-2.2873,-2.3401,-2.3909,-2.427,-2.4497,-2.4497,-2.4497,-2.4497,-2.4497,-2.4497,-2.4497,-2.4497,-2.4497,-2.4497,-2.4497,-2.4497,-2.4497,-2.4497,-2.4497,-2.4497,-2.4497,-2.4497,-2.4497,-2.4497,-2.4497,-2.4497,-2.4497,-2.4497,-2.4497,-2.4497,-2.4497,-2.4497,-2.4497,-2.4497,-2.4497,-2.4497,-2.4497,-2.4497,-2.4497,-2.4497,-2.4497,-2.4497,-2.4497,-2.4497,-2.4497,-2.4497,-2.4497,-2.4497,-2.4497,-2.4497,-2.4642,-2.5106,-2.5326,-2.5564,-2.5999,-2.6511,-2.6926,-2.7268,-2.7309,-2.7309,-2.7309,-2.7309,-2.7262,-2.7225,-2.6996,-2.6996,-2.7167,-2.7167,-2.7214,-2.7309,-2.7309,-2.7262,-2.7167,-2.7262,-2.7262,-2.7167,-2.7262,-2.7309,-2.7309,-2.7309,-2.7309,0.0,0.0,0.0,-1.3034,0.0,0.0,0.0,0.0,-1.0263,0.0,0.0,0.0,0.0,0.0,0.0,0.0,0.0,0.0,0.0,0.0,0.0,0.0,0.0,0.0,0.0,0.0,0.0,0.0,0.0,0.0,-2.1776,-2.2687,-2.3401,-2.3909,-2.427,-2.4497,-2.4497,-2.4497,-2.4497,-2.4497,-2.4497,-2.4497,-2.4497,-2.4497,-2.4497,-2.4497,-2.4497,-2.4497,-2.4497,-2.4497,-2.4497,-2.4497,-2.4497,-2.4497,-2.4497,-2.4497,-2.4497,-2.4497,-2.4497,-2.4497,-2.4497,-2.4497,-2.4497,-2.4497,-2.4497,-2.4497,-2.4497,-2.4497,-2.4497,-2.4497,-2.4497,-2.4497,-2.4497,-2.4497,-2.4497,-2.4497,-2.4497,-2.4497,-2.4497,-2.4497,-2.4497,-2.4642,-2.5106,-2.5585,-2.6065,-2.6521,-2.6988,-2.7289,-2.7309,-2.7309,-2.7309,-2.7309,-2.7309,-2.7167,-2.6948,-2.69,-2.69,-2.69,-2.69,-2.7034,-2.7309,-2.7309,-2.7167,-2.69,-2.7177,-2.7177,-2.69,-2.7167,-2.7309,-2.7309,-2.7309,-2.7309,0.0,0.0,-1.4928,-1.4254,0.0,0.0,0.0,0.0,0.0,0.0,0.0,0.0,0.0,0.0,0.0,0.0,0.0,0.0,0.0,0.0,0.0,0.0,0.0,0.0,0.0,0.0,0.0,0.0,0.0,0.0,0.0,-2.1932,-2.2625,-2.3391,-2.3867,-2.425,-2.4497,-2.4497,-2.4497,-2.4497,-2.4497,-2.4497,-2.4497,-2.4497,-2.4497,-2.4497,-2.4497,-2.4497,-2.4497,-2.4497,-2.4497,-2.4497,-2.4497,-2.4497,-2.4497,-2.4497,-2.4497,-2.4497,-2.4497,-2.4497,-2.4497,-2.4497,-2.4497,-2.4497,-2.4497,-2.4497,-2.4497,-2.4497,-2.4497,-2.4497,-2.4497,-2.4497,-2.4497,-2.4497,-2.4497,-2.4497,-2.4497,-2.4497,-2.4497,-2.4497,-2.4745,-2.5096,-2.5585,-2.603,-2.6438,-2.6594,-2.7009,-2.7309,-2.7309,-2.7309,-2.7309,-2.7309,-2.7129,-2.6996,-2.69,-2.69,-2.6805,-2.6651,-2.6976,-2.7214,-2.7309,-2.7129,-2.6986,-2.69,-2.6794,-2.6736,-2.6651,-2.6736,-2.6842,-2.7034,-2.6832,-2.6976,-1.7389,-1.6786,0.0,-1.5358,-1.4653,0.0,-1.3716,0.0,0.0,0.0,0.0,0.0,0.0,0.0,0.0,0.0,0.0,0.0,0.0,0.0,0.0,0.0,0.0,0.0,0.0,0.0,0.0,0.0,0.0,0.0,0.0,0.0,-2.2159,-2.2915,-2.3557,-2.4012,-2.4302,-2.4425,-2.4497,-2.4497,-2.4497,-2.4497,-2.4497,-2.4497,-2.4497,-2.4497,-2.4497,-2.4497,-2.4497,-2.4497,-2.4497,-2.4497,-2.4497,-2.4497,-2.4497,-2.4497,-2.4497,-2.4497,-2.4497,-2.4497,-2.4497,-2.4497,-2.4497,-2.4497,-2.4497,-2.4497,-2.4497,-2.4497,-2.4497,-2.4497,-2.4497,-2.4497,-2.4497,-2.4497,-2.4497,-2.4497,-2.4497,-2.4497,-2.4497,-2.4497,-2.4879,-2.5368,-2.5802,-2.6304,-2.6677,-2.6832,-2.7123,-2.7309,-2.7309,-2.7309,-2.7309,-2.7309,-2.7129,-2.6986,-2.6747,-2.6554,-2.6458,-2.6352,-2.6678,-2.6928,-2.7023,-2.6842,-2.6699,-2.6602,-2.6544,-2.6448,-2.6352,-2.6448,-2.6602,-2.6747,-2.6699,-2.6876]},{"header":{"parameterUnit":"m.s-1","parameterCategory":1,"la1":30.6,"la2":29.2853,"lo1":-89.7004,"lo2":-87.6739,"dx":0.0162,"dy":0.0183,"nx":112,"ny":82,"refTime":"2022-11-29T06:00:00:Z","depth":0,"parameterNumber":3,"parameterNumberName":"V-component_of_WINDS"},"data":[0.0,0.0,0.0,0.0,0.0,0.0,0.0,0.0,0.0,0.0,0.0,0.0,0.0,0.0,0.0,0.0,0.0,0.0,0.0,0.0,0.0,0.0,0.0,0.0,0.0,0.0,0.0,0.0,0.0,0.0,0.0,0.0,0.0,0.0,0.0,0.0,0.0,0.0,0.0,0.0,0.0,0.0,0.0,0.0,0.0,0.0,0.0,0.0,0.0,0.0,0.0,0.0,0.0,0.0,0.0,0.0,0.0,0.0,0.0,0.0,0.0,0.0,0.0,0.0,0.0,0.0,0.0,0.0,0.0,0.0,0.0,0.0,0.0,0.0,0.0,0.0,0.0,0.0,0.0,0.0,0.0,0.0,0.0,0.0,0.0,0.0,0.0,0.0,0.0,0.0,2.3702,2.5443,2.7173,2.834,2.8683,2.7278,2.6064,2.5285,0.0,0.0,0.0,0.0,0.0,0.0,0.0,0.0,0.0,0.0,0.0,0.0,0.0,0.0,0.0,0.0,0.0,0.0,0.0,0.0,0.0,0.0,0.0,0.0,0.0,0.0,0.0,0.0,0.0,0.0,0.0,0.0,0.0,0.0,0.0,0.0,0.0,0.0,0.0,0.0,0.0,0.0,0.0,0.0,0.0,0.0,0.0,0.0,0.0,0.0,0.0,0.0,0.0,0.0,0.0,0.0,0.0,0.0,0.0,0.0,0.0,0.0,0.0,0.0,0.0,0.0,0.0,0.0,0.0,0.0,0.0,0.0,0.0,0.0,0.0,0.0,0.0,0.0,0.0,0.0,0.0,0.0,0.0,0.0,0.0,0.0,0.0,0.0,0.0,0.0,0.0,0.0,0.0,0.0,0.0,0.0,0.0,0.0,0.0,0.0,0.0,0.0,0.0,0.0,2.5446,2.7736,2.8907,2.9546,2.9598,2.813,2.6949,2.63,0.0,0.0,0.0,0.0,0.0,0.0,0.0,0.0,0.0,0.0,0.0,0.0,0.0,0.0,0.0,0.0,0.0,0.0,0.0,0.0,0.0,0.0,0.0,0.0,0.0,0.0,0.0,0.0,0.0,0.0,0.0,0.0,0.0,0.0,0.0,0.0,0.0,0.0,0.0,0.0,0.0,0.0,0.0,0.0,0.0,0.0,0.0,0.0,0.0,0.0,0.0,0.0,0.0,0.0,0.0,0.0,0.0,0.0,0.0,0.0,0.0,0.0,0.0,0.0,0.0,0.0,0.0,0.0,0.0,0.0,0.0,0.0,0.0,0.0,0.0,0.0,0.0,0.0,0.0,0.0,0.0,0.0,0.0,0.0,0.0,0.0,0.0,0.0,0.0,0.0,0.0,0.0,0.0,0.0,0.0,0.0,0.0,0.0,0.0,0.0,0.0,0.0,0.0,2.5069,2.714,2.9726,3.0365,3.0691,3.0864,2.8982,2.7488,2.6769,2.3584,0.0,0.0,0.0,0.0,0.0,0.0,0.0,0.0,0.0,0.0,0.0,0.0,0.0,0.0,0.0,0.0,0.0,0.0,0.0,0.0,0.0,0.0,0.0,0.0,0.0,0.0,0.0,0.0,0.0,0.0,0.0,0.0,0.0,0.0,0.0,0.0,0.0,0.0,0.0,0.0,0.0,0.0,0.0,0.0,0.0,0.0,0.0,0.0,0.0,0.0,0.0,0.0,0.0,0.0,0.0,0.0,0.0,0.0,0.0,0.0,0.0,0.0,0.0,0.0,0.0,0.0,0.0,0.0,0.0,0.0,0.0,0.0,0.0,0.0,0.0,0.0,0.0,0.0,0.0,0.0,0.0,0.0,0.0,0.0,0.0,0.0,0.0,0.0,0.0,0.0,0.0,0.0,0.0,0.0,0.0,0.0,0.0,0.0,0.0,0.0,0.0,0.0,2.6784,2.8355,3.1097,3.1587,3.1734,3.179,2.9712,2.7984,2.6962,2.3824,0.0,0.0,0.0,0.0,0.0,0.0,0.0,0.0,0.0,0.0,0.0,0.0,0.0,0.0,0.0,0.0,0.0,0.0,0.0,0.0,0.0,0.0,0.0,0.0,0.0,0.0,0.0,0.0,0.0,0.0,0.0,0.0,0.0,0.0,0.0,0.0,0.0,0.0,0.0,0.0,0.0,0.0,0.0,0.0,0.0,0.0,0.0,0.0,0.0,0.0,0.0,0.0,0.0,0.0,0.0,0.0,0.0,0.0,0.0,0.0,0.0,0.0,0.0,0.0,0.0,0.0,0.0,0.0,0.0,0.0,0.0,0.0,0.0,0.0,0.0,0.0,0.0,0.0,0.0,0.0,0.0,0.0,0.0,0.0,0.0,0.0,0.0,0.0,0.0,0.0,0.0,0.0,0.0,0.0,0.0,0.0,0.0,0.0,0.0,0.0,0.0,0.0,2.7185,2.8615,3.1385,3.2393,3.2588,3.1868,3.027,2.8616,2.6999,2.3824,0.0,0.0,0.0,0.0,0.0,0.0,0.0,0.0,0.0,0.0,0.0,0.0,0.0,0.0,0.0,0.0,0.0,0.0,0.0,0.0,0.0,0.0,0.0,0.0,0.0,0.0,0.0,0.0,0.0,0.0,0.0,0.0,0.0,0.0,0.0,0.0,0.0,0.0,0.0,0.0,0.0,0.0,0.0,0.0,0.0,0.0,0.0,0.0,0.0,0.0,0.0,0.0,0.0,0.0,0.0,0.0,0.0,0.0,0.0,0.0,0.0,0.0,0.0,0.0,0.0,0.0,0.0,0.0,0.0,0.0,0.0,0.0,0.0,0.0,0.0,0.0,0.0,0.0,0.0,0.0,0.0,0.0,0.0,0.0,0.0,0.0,0.0,0.0,0.0,0.0,0.0,0.0,0.0,0.0,0.0,0.0,0.0,0.0,0.0,0.0,0.0,0.0,2.7814,2.9381,3.1418,3.2876,3.3153,3.1848,3.0768,2.9211,2.7037,0.0,0.0,0.0,0.0,0.0,0.0,0.0,0.0,0.0,0.0,0.0,0.0,0.0,0.0,0.0,0.0,0.0,0.0,0.0,0.0,0.0,0.0,0.0,0.0,0.0,0.0,0.0,0.0,0.0,0.0,0.0,0.0,0.0,0.0,0.0,0.0,0.0,0.0,0.0,0.0,0.0,0.0,0.0,0.0,0.0,0.0,0.0,0.0,0.0,0.0,0.0,0.0,0.0,0.0,0.0,0.0,0.0,0.0,0.0,0.0,0.0,0.0,0.0,0.0,0.0,0.0,0.0,0.0,0.0,0.0,0.0,0.0,0.0,0.0,0.0,0.0,0.0,0.0,0.0,0.0,0.0,0.0,0.0,0.0,0.0,0.0,0.0,0.0,0.0,0.0,0.0,0.0,0.0,0.0,0.0,0.0,0.0,0.0,0.0,0.0,0.0,0.0,2.6247,2.813,2.9876,3.1746,3.321,3.3617,3.2526,3.1288,2.9625,2.7398,0.0,0.0,0.0,0.0,0.0,0.0,0.0,0.0,0.0,0.0,0.0,0.0,0.0,0.0,0.0,0.0,0.0,0.0,0.0,0.0,0.0,0.0,0.0,0.0,0.0,0.0,0.0,0.0,0.0,0.0,0.0,0.0,0.0,0.0,0.0,0.0,0.0,0.0,0.0,0.0,0.0,0.0,0.0,0.0,0.0,0.0,0.0,0.0,0.0,0.0,0.0,0.0,0.0,0.0,0.0,0.0,0.0,0.0,0.0,0.0,0.0,0.0,0.0,0.0,0.0,0.0,0.0,0.0,0.0,0.0,0.0,0.0,0.0,0.0,0.0,0.0,0.0,0.0,0.0,0.0,0.0,0.0,0.0,0.0,0.0,0.0,0.0,0.0,0.0,0.0,0.0,0.0,0.0,0.0,0.0,0.0,0.0,0.0,0.0,0.0,0.0,0.0,2.619,2.8081,3.0028,3.2427,3.348,3.3985,3.4009,3.1866,2.9802,0.0,0.0,0.0,0.0,0.0,0.0,0.0,0.0,0.0,0.0,0.0,0.0,0.0,0.0,0.0,0.0,0.0,0.0,0.0,0.0,0.0,0.0,0.0,0.0,0.0,0.0,0.0,0.0,0.0,0.0,0.0,0.0,0.0,0.0,0.0,0.0,0.0,0.0,0.0,0.0,0.0,0.0,0.0,0.0,0.0,0.0,0.0,0.0,0.0,0.0,0.0,0.0,0.0,0.0,0.0,0.0,0.0,0.0,0.0,0.0,0.0,0.0,0.0,0.0,0.0,0.0,0.0,0.0,0.0,0.0,0.0,0.0,0.0,0.0,0.0,0.0,0.0,0.0,0.0,0.0,0.0,0.0,0.0,0.0,0.0,0.0,0.0,0.0,0.0,0.0,0.0,0.0,0.0,0.0,0.0,0.0,0.0,0.0,0.0,0.0,0.0,0.0,0.0,2.6253,2.8514,3.0582,3.2438,3.3403,3.3939,3.3931,3.2293,3.0339,2.8143,0.0,0.0,0.0,0.0,0.0,0.0,0.0,0.0,0.0,0.0,0.0,0.0,0.0,0.0,0.0,0.0,0.0,0.0,0.0,0.0,0.0,0.0,0.0,0.0,0.0,0.0,0.0,0.0,0.0,0.0,0.0,0.0,0.0,0.0,0.0,0.0,0.0,0.0,0.0,0.0,0.0,0.0,0.0,0.0,0.0,0.0,0.0,0.0,0.0,0.0,0.0,0.0,0.0,0.0,0.0,0.0,0.0,0.0,0.0,0.0,0.0,0.0,0.0,0.0,0.0,0.0,0.0,0.0,0.0,0.0,0.0,0.0,0.0,0.0,0.0,0.0,0.0,0.0,0.0,0.0,0.0,0.0,0.0,0.0,0.0,0.0,0.0,0.0,0.0,0.0,0.0,0.0,0.0,0.0,0.0,0.0,0.0,0.0,0.0,0.0,0.0,0.0,2.6778,2.8906,3.1072,3.3316,3.4036,3.4485,3.4821,3.3416,3.1488,2.9067,0.0,0.0,0.0,0.0,0.0,0.0,0.0,0.0,0.0,0.0,0.0,0.0,0.0,0.0,0.0,0.0,0.0,0.0,0.0,0.0,0.0,0.0,0.0,0.0,0.0,0.0,0.0,0.0,0.0,0.0,0.0,0.0,0.0,0.0,0.0,0.0,0.0,0.0,0.0,0.0,0.0,0.0,0.0,0.0,0.0,0.0,0.0,0.0,0.0,0.0,0.0,0.0,0.0,0.0,0.0,0.0,0.0,0.0,0.0,0.0,0.0,0.0,0.0,0.0,0.0,0.0,0.0,0.0,0.0,0.0,0.0,0.0,0.0,0.0,0.0,0.0,0.0,0.0,0.0,0.0,0.0,0.0,0.0,0.0,0.0,0.0,0.0,0.0,0.0,0.0,0.0,0.0,0.0,0.0,0.0,0.0,0.0,0.0,0.0,0.0,0.0,0.0,2.7504,2.9347,3.1604,3.4674,3.5078,3.5463,3.634,3.4858,3.2917,3.0667,0.0,0.0,0.0,0.0,0.0,0.0,0.0,0.0,0.0,0.0,0.0,0.0,0.0,0.0,0.0,0.0,0.0,0.0,0.0,0.0,0.0,0.0,0.0,0.0,0.0,0.0,0.0,0.0,0.0,0.0,0.0,0.0,0.0,0.0,0.0,0.0,0.0,0.0,0.0,0.0,0.0,0.0,0.0,0.0,0.0,0.0,0.0,0.0,0.0,0.0,0.0,0.0,0.0,0.0,0.0,0.0,0.0,0.0,0.0,0.0,1.8525,1.7015,0.0,0.0,0.0,0.0,0.0,0.0,0.0,0.0,0.0,0.0,0.0,0.0,0.0,0.0,0.0,0.0,0.0,0.0,0.0,0.0,0.0,0.0,0.0,0.0,0.0,0.0,0.0,0.0,0.0,0.0,0.0,0.0,0.0,0.0,0.0,0.0,0.0,0.0,0.0,0.0,2.7567,3.032,3.2839,3.4802,3.561,3.634,3.718,3.5142,3.3338,3.2255,3.0095,0.0,0.0,0.0,0.0,0.0,0.0,0.0,0.0,0.0,0.0,0.0,0.0,0.0,0.0,0.0,0.0,0.0,0.0,0.0,0.0,0.0,0.0,0.0,0.0,0.0,0.0,0.0,0.0,0.0,0.0,0.0,0.0,0.0,0.0,0.0,0.0,0.0,0.0,0.0,0.0,0.0,0.0,0.0,0.0,0.0,0.0,0.0,0.0,0.0,0.0,0.0,0.0,0.0,0.0,0.0,0.0,0.0,0.0,0.0,2.0688,1.9234,0.0,0.0,0.0,0.0,0.0,0.0,0.0,0.0,0.0,0.0,0.0,0.0,0.0,0.0,0.0,0.0,0.0,0.0,0.0,0.0,0.0,0.0,0.0,0.0,0.0,0.0,0.0,0.0,0.0,0.0,0.0,0.0,0.0,0.0,0.0,0.0,0.0,0.0,0.0,0.0,2.8796,3.1439,3.3807,3.5445,3.6376,3.7052,3.7456,3.6317,3.4904,3.3319,3.1366,0.0,0.0,0.0,0.0,0.0,0.0,0.0,0.0,0.0,0.0,0.0,0.0,0.0,0.0,0.0,0.0,0.0,0.0,0.0,0.0,0.0,0.0,0.0,0.0,0.0,0.0,0.0,0.0,0.0,0.0,0.0,0.0,0.0,0.0,0.0,0.0,0.0,0.0,0.0,0.0,0.0,0.0,0.0,0.0,0.0,0.0,0.0,0.0,0.0,0.0,0.0,0.0,0.0,2.168,2.2263,2.2413,2.3475,2.3954,2.3886,2.2894,2.1729,2.0577,2.0899,0.0,0.0,0.0,0.0,0.0,0.0,0.0,0.0,0.0,0.0,0.0,0.0,0.0,0.0,0.0,0.0,0.0,0.0,0.0,0.0,0.0,0.0,2.4846,2.5527,2.6002,2.5818,2.406,0.0,0.0,0.0,0.0,0.0,0.0,0.0,0.0,0.0,0.0,0.0,3.0461,3.2601,3.4637,3.6321,3.7235,3.7713,3.7713,3.7584,3.6629,3.4559,3.2849,3.1256,0.0,0.0,0.0,0.0,0.0,0.0,0.0,0.0,0.0,0.0,0.0,0.0,0.0,0.0,0.0,0.0,0.0,0.0,0.0,0.0,0.0,0.0,0.0,0.0,0.0,0.0,0.0,0.0,0.0,0.0,0.0,0.0,1.4683,1.54,0.0,0.0,0.0,0.0,0.0,0.0,0.0,0.0,0.0,0.0,0.0,0.0,0.0,2.0079,2.1156,2.135,2.2293,2.3962,2.4141,2.4515,2.5091,2.527,2.5345,2.5377,2.601,0.0,2.1478,2.0948,0.0,0.0,0.0,0.0,0.0,0.0,0.0,0.0,0.0,0.0,0.0,0.0,0.0,0.0,0.0,0.0,0.0,0.0,0.0,0.0,0.0,0.0,2.7985,2.8645,2.9326,2.964,2.8969,2.7212,2.5546,2.4741,2.4579,2.4579,0.0,0.0,0.0,0.0,0.0,0.0,3.1905,3.3694,3.542,3.7162,3.8065,3.8542,3.8542,3.7915,3.7364,3.7033,3.4793,3.3099,3.2255,2.9704,0.0,0.0,0.0,0.0,0.0,0.0,0.0,0.0,0.0,0.0,0.0,0.0,0.0,0.0,0.0,0.0,0.0,0.0,0.0,0.0,0.0,0.0,0.0,0.0,0.0,0.0,0.0,0.0,0.0,1.5053,1.6301,1.6556,1.7186,1.7502,0.0,0.0,0.0,0.0,0.0,0.0,0.0,0.0,0.0,2.0797,2.1889,2.2742,2.3319,2.4073,2.4881,2.5734,2.6497,2.7006,2.7305,2.7679,2.7844,2.7865,2.8189,2.7473,2.5946,2.4859,2.4102,2.3619,0.0,0.0,0.0,0.0,2.4098,2.391,2.4296,2.4413,2.4413,2.4413,0.0,0.0,0.0,0.0,0.0,0.0,0.0,2.6865,2.7846,2.9046,3.0164,3.0906,3.1484,3.1783,3.1595,3.087,2.9678,2.7567,2.7161,2.7184,2.7219,2.7624,0.0,0.0,0.0,3.1407,3.2917,3.452,3.5992,3.7256,3.8099,3.8624,3.8692,3.8377,3.7988,3.7529,3.5605,3.4137,3.3356,3.0576,2.8559,0.0,0.0,0.0,0.0,0.0,0.0,0.0,0.0,0.0,0.0,0.0,0.0,0.0,0.0,0.0,0.0,0.0,0.0,0.0,0.0,0.0,0.0,0.0,0.0,0.0,0.0,0.0,0.0,1.7019,1.7839,1.7839,1.8636,1.9151,0.0,0.0,0.0,0.0,0.0,0.0,2.0917,2.1904,2.2607,2.2936,2.4373,2.5277,2.5621,2.6617,2.7285,2.7584,2.843,2.8925,2.9083,2.9565,2.9791,2.9815,2.9989,3.0078,2.9948,2.8234,2.7268,2.685,2.6708,2.6402,2.6109,2.6878,2.6813,2.6446,2.714,2.7371,2.7371,2.7371,2.7273,2.7043,2.6566,0.0,0.0,0.0,0.0,2.9383,3.0144,3.1133,3.2126,3.2894,3.3481,3.3888,3.3936,3.4161,3.3444,3.0481,2.9896,2.9909,2.9973,3.0477,0.0,3.1156,3.2206,3.3344,3.4379,3.5545,3.6614,3.7494,3.8131,3.8528,3.8643,3.8658,3.8417,3.7826,3.645,3.5367,3.4761,3.1843,3.0056,2.9692,0.0,0.0,0.0,0.0,0.0,0.0,0.0,0.0,0.0,0.0,0.0,0.0,0.0,0.0,0.0,0.0,0.0,0.0,0.0,0.0,0.0,0.0,0.0,0.0,0.0,0.0,0.0,0.0,0.0,1.9567,2.018,0.0,0.0,0.0,0.0,2.15,2.159,2.2413,2.4261,2.4425,2.5038,2.6303,2.6437,2.7111,2.8382,2.8472,2.9059,3.0192,2.9754,2.9811,3.0299,3.0346,3.0361,3.0438,3.1446,3.1875,3.169,2.9188,2.8362,2.8598,2.7916,2.7879,2.8326,2.9003,2.9234,2.9301,3.0026,3.0294,3.0294,3.0294,2.9908,2.9443,2.9474,2.9479,0.0,0.0,3.0583,3.1808,3.2253,3.3154,3.4109,3.4712,3.5702,3.6566,3.6749,3.6798,3.6089,3.3628,3.3158,3.3158,3.3172,0.0,3.3553,3.4259,3.4486,3.5145,3.6724,3.6996,3.7374,3.8237,3.838,3.843,3.851,3.851,3.8541,3.8618,3.7826,3.7364,3.7327,3.4904,3.2834,3.1305,2.9692,0.0,0.0,0.0,0.0,0.0,0.0,0.0,0.0,0.0,0.0,0.0,0.0,0.0,0.0,0.0,0.0,0.0,0.0,0.0,0.0,0.0,0.0,0.0,0.0,0.0,0.0,0.0,0.0,2.1535,2.2173,0.0,2.2826,2.3251,2.3699,2.4178,2.4612,2.5151,2.5854,2.6722,2.7395,2.7874,2.8293,2.8768,2.922,2.9624,3.0033,3.0477,3.0696,3.0934,3.1114,3.1114,3.1114,3.1155,3.1927,3.2461,3.2697,3.1694,3.131,3.1292,3.1029,3.1033,3.121,3.1437,3.152,3.1553,3.1818,3.1918,3.1918,3.1918,3.1459,3.1004,3.1574,3.1433,3.117,3.1683,3.2732,3.3922,3.4837,3.5711,3.669,3.8038,3.8452,3.8686,3.9155,3.926,3.9007,3.8156,3.6345,3.4935,3.4935,3.4966,3.5072,3.5331,3.5401,3.5812,3.6898,3.7497,3.813,3.9013,3.9575,3.9934,4.003,3.9554,3.9328,3.946,3.8227,3.7492,3.7492,3.5624,3.405,3.2963,3.1391,2.9492,0.0,0.0,0.0,0.0,0.0,0.0,0.0,0.0,0.0,0.0,0.0,0.0,0.0,0.0,0.0,0.0,0.0,0.0,0.0,0.0,0.0,0.0,0.0,0.0,0.0,2.0991,2.2009,2.2912,2.3744,2.4462,2.4889,2.5531,2.6033,2.6258,2.6901,2.7365,2.7615,2.8442,2.9026,2.9235,2.9669,2.9998,3.0238,3.0657,3.1033,3.1418,3.1938,3.2342,3.2721,3.2964,3.31,3.3128,3.3709,3.4192,3.451,3.4421,3.4291,3.4104,3.3365,3.3061,3.3133,3.3624,3.3806,3.3839,3.4087,3.417,3.417,3.417,3.369,3.3193,3.3781,3.3605,3.3322,3.3856,3.4734,3.5723,3.6661,3.7352,3.8161,3.9597,4.0018,4.0253,4.0799,4.089,4.089,4.089,3.899,3.7379,3.7379,3.7379,3.7379,3.7379,3.7379,3.7578,3.8101,3.8645,3.9187,3.9783,4.0308,4.0687,4.0823,4.0364,4.0121,4.0237,3.9019,3.8319,3.8319,3.6725,3.5477,3.4651,3.2517,3.0742,2.939,0.0,0.0,0.0,0.0,0.0,0.0,0.0,0.0,0.0,0.0,0.0,0.0,0.0,0.0,0.0,0.0,0.0,0.0,0.0,0.0,0.0,0.0,0.0,2.0778,2.2413,2.3625,2.3714,2.4881,2.5689,2.5734,2.6303,2.6971,2.76,2.8263,2.8936,2.9606,2.9651,2.9924,3.0507,3.0552,3.0881,3.1525,3.1555,3.2109,3.3208,3.3414,3.4058,3.5117,3.5833,3.6184,3.621,3.6772,3.7051,3.7077,3.7077,3.7077,3.6887,3.4733,3.3889,3.4071,3.5512,3.6025,3.6141,3.6854,3.7102,3.7102,3.7102,3.6622,3.6025,3.6025,3.6025,3.6025,3.6025,3.6572,3.7236,3.7623,3.8007,3.8471,3.9269,4.0299,4.1227,4.163,4.1722,4.1722,4.1722,4.1107,4.0546,4.051,4.0492,4.0492,4.0492,4.0492,0.0,4.0492,4.051,4.0528,4.0528,4.0546,4.0636,4.076,4.0811,4.0861,4.0926,4.0311,3.9918,3.9882,3.841,3.7165,3.634,3.3146,3.1109,3.032,0.0,0.0,0.0,0.0,0.0,0.0,0.0,0.0,0.0,0.0,0.0,0.0,0.0,0.0,0.0,0.0,0.0,0.0,0.0,0.0,0.0,2.2398,2.2802,2.2802,2.3266,2.4313,2.6267,2.6836,2.7435,2.8423,2.8678,2.8858,2.9037,2.9624,3.0058,3.0238,3.0717,3.1047,3.1212,3.169,3.2048,3.2213,3.2721,3.3126,3.3422,3.3942,3.4293,3.4635,3.53,3.5616,3.5616,3.5796,3.6109,3.6437,3.6437,3.672,3.7052,3.6439,3.6191,3.6241,3.6655,3.6804,3.6837,3.7036,3.7102,3.7102,3.7102,3.697,3.6804,3.6804,3.6804,3.6804,3.6804,3.7544,3.8346,3.847,3.9144,3.9976,4.0682,4.1078,4.147,4.2009,4.2266,4.2345,4.2345,4.2299,4.1868,4.0691,4.0492,4.0492,4.0492,4.0492,4.0492,4.0492,4.0999,4.1361,4.1361,4.1904,4.2285,4.2432,4.1923,4.1631,4.17,4.0986,4.0308,3.977,3.9347,3.8499,3.7199,3.5092,3.361,0.0,0.0,0.0,0.0,0.0,0.0,0.0,0.0,0.0,0.0,0.0,0.0,0.0,0.0,0.0,0.0,0.0,0.0,0.0,0.0,0.0,0.0,2.361,2.4313,2.5151,2.5294,2.5863,2.7405,2.8094,2.8738,2.9532,2.9846,2.9968,2.9968,3.0567,3.0913,3.0913,3.154,3.1914,3.1914,3.2557,3.2931,3.2931,3.3547,3.3984,3.4281,3.5169,3.5767,3.6023,3.6715,3.7025,3.7025,3.7025,3.7216,3.7511,3.7511,3.7702,3.798,0.0,0.0,0.0,0.0,3.8013,3.8013,3.8013,3.8013,3.8013,3.8013,3.8013,3.8013,3.8013,3.8013,3.8013,3.8013,3.8493,3.9041,3.9219,3.9707,4.036,4.1007,4.1192,4.1333,4.1792,4.2172,4.2434,4.2434,4.2691,0.0,4.1669,4.1506,4.1506,4.1506,4.1506,4.1506,4.1506,4.1922,4.2212,4.2212,4.2611,4.2938,4.3012,4.265,0.0,0.0,0.0,4.0866,3.9909,3.9389,0.0,0.0,0.0,3.5062,3.4265,3.3861,0.0,0.0,3.0442,3.0031,0.0,0.0,0.0,0.0,0.0,0.0,0.0,0.0,0.0,0.0,0.0,0.0,0.0,0.0,0.0,0.0,2.4485,2.56,2.745,2.7839,2.7929,2.7929,2.8978,2.9714,2.9804,3.0298,3.0612,3.0612,3.1227,3.1615,3.1615,3.2243,0.0,0.0,0.0,3.3666,3.3712,3.4316,3.4934,3.5549,3.6812,3.7687,3.8239,3.899,3.9299,3.9299,3.9299,3.9299,3.9299,3.9299,3.9299,3.9232,3.8576,3.8328,3.8411,3.9067,3.9299,3.9299,3.9299,0.0,0.0,3.9299,3.9299,3.9299,3.9299,3.9299,3.9299,3.9299,3.9299,3.9379,3.9746,3.9875,4.0037,4.058,4.0825,4.0972,4.1145,4.1635,4.2074,4.2074,4.2438,4.275,4.2806,4.2863,4.2901,4.2901,4.2901,4.2901,4.2901,4.2901,4.2901,4.2901,4.2901,0.0,4.2901,4.3012,4.3086,4.3086,4.2341,4.1434,4.0363,3.9103,3.8107,3.7456,3.6785,3.6077,3.5261,3.5385,3.5403,3.5278,3.364,3.2921,0.0,0.0,0.0,0.0,0.0,0.0,0.0,0.0,0.0,0.0,0.0,0.0,0.0,0.0,0.0,2.5583,2.6499,2.7345,2.8263,2.928,2.9939,2.9939,3.0163,3.0552,3.1077,3.1241,3.1316,3.1316,3.1914,3.2303,3.2303,3.2946,3.3305,3.3305,3.3948,3.4543,3.5048,3.5676,3.6349,3.6988,3.7749,0.0,3.8295,3.9001,3.9299,3.9299,3.9299,3.9299,3.9299,3.9299,3.9299,3.9282,3.9149,3.91,3.91,3.9249,3.9299,3.9299,3.9299,3.9299,3.9299,3.9299,3.9299,3.9299,3.9299,3.9299,0.0,3.9299,3.9299,3.9325,3.9405,3.9668,3.9926,4.0062,4.0286,4.0521,4.057,4.0908,4.1225,4.1225,4.1521,4.1888,4.2259,4.2653,4.2901,4.2901,4.2901,4.2901,4.2901,4.2901,4.2901,4.2901,4.2901,4.2901,4.2901,4.2919,4.2938,4.2938,4.1951,4.1409,4.1542,4.0039,3.9288,3.9511,3.9025,3.8371,3.7553,3.7591,3.7273,3.6601,3.5258,3.4878,0.0,0.0,0.0,0.0,0.0,0.0,0.0,0.0,0.0,0.0,0.0,2.2354,2.3762,0.0,2.5446,2.6773,2.7624,2.8427,2.9415,3.0103,3.0507,3.0507,3.0806,3.1122,3.1466,3.1511,3.1645,3.1974,3.2303,3.2662,3.2991,3.3634,3.3978,3.3978,3.4953,3.5598,3.5907,3.6853,3.7531,3.7851,3.8507,3.8799,3.8799,3.9148,3.9299,3.9299,3.9299,3.9299,3.9299,3.9299,3.9299,3.9299,3.9299,3.9299,3.9299,3.9299,3.9299,3.9299,3.9299,3.9299,3.9299,3.9299,3.9299,3.9299,3.9299,3.9299,3.9299,3.9299,3.9299,3.9299,3.9299,3.9458,3.9616,3.9616,3.9764,3.9952,3.9952,4.0343,4.0689,4.0689,4.1094,4.1481,4.1717,4.1994,4.236,4.2825,4.2901,4.2901,4.2901,4.2901,4.2901,4.2901,4.2901,4.2901,4.2901,4.2901,4.2901,4.2901,4.2139,4.1687,4.1707,4.031,3.9565,3.9565,3.899,3.8499,3.8114,3.8157,3.7987,3.7585,3.6966,3.6803,0.0,0.0,0.0,0.0,0.0,0.0,0.0,2.1108,2.2222,2.278,2.3391,2.4075,2.4992,2.5935,2.6877,2.7763,2.8506,2.9313,3.0357,3.0612,3.0702,3.0702,3.1167,3.1511,3.1511,3.1615,3.1914,3.2452,3.2751,3.3125,3.3664,3.4433,3.4872,3.4872,3.5998,3.6662,3.6784,3.7793,3.8379,3.849,3.905,3.9299,3.9299,3.9299,3.9299,3.9299,3.9299,3.9299,3.9299,3.9299,3.9299,3.9299,3.9299,3.9299,3.9299,3.9299,3.9299,3.9299,3.9299,3.9299,3.9299,3.9299,3.9299,3.9299,3.9299,3.9299,3.9299,3.9299,3.9299,3.9299,3.9299,3.9299,3.9299,3.9299,3.9379,3.9475,3.9475,3.985,4.022,4.022,4.0648,4.1007,4.1099,4.1236,4.1613,4.2498,4.2616,4.2616,4.2616,4.2711,4.2731,4.2653,4.2806,4.2901,4.2901,4.2825,4.275,4.275,4.2239,4.1803,4.1503,4.0383,3.9641,3.9363,3.8734,3.8428,3.8428,3.8523,3.8587,3.8587,3.8587,3.851,1.948,1.9914,2.0359,2.0359,2.0932,2.162,0.0,2.2843,2.3501,2.4224,2.4812,2.5575,2.6862,2.7164,2.7613,2.8898,2.9671,3.019,3.0464,3.1002,3.1391,3.1391,3.1451,3.1511,3.1511,3.2034,3.2407,3.2482,3.3589,3.4324,3.4399,3.5535,3.6198,3.6198,3.6919,3.7531,3.808,3.8222,3.859,3.9175,3.9272,3.9299,3.9299,3.9299,3.9299,3.9299,3.9299,3.9299,3.9299,3.9299,3.9299,3.9299,3.9299,3.9299,3.9299,3.9299,3.9299,3.9299,3.9299,3.9299,3.9299,3.9299,3.9299,3.9299,3.9299,3.9299,3.9299,3.9299,3.9299,3.9299,3.9299,3.9299,3.9299,3.9299,3.9299,3.9325,3.9325,3.9458,3.9616,3.9616,3.9738,4.0011,4.0424,4.0601,4.0914,4.1569,4.1656,4.1656,4.1656,4.2015,4.2115,4.17,4.24,4.2901,4.2901,4.2518,4.2297,4.2297,4.1432,4.1116,4.1481,4.0573,4.0234,4.0586,4.0124,3.9884,3.9884,3.9884,3.9884,3.9884,3.9884,3.96,2.0076,2.0652,2.1228,2.1534,2.2188,2.2891,2.3444,2.4097,2.4796,2.5497,2.607,2.6802,2.7906,2.8315,2.8866,2.9829,3.0244,3.0572,3.1017,3.1316,3.1645,3.2034,3.2079,3.2079,3.2079,3.2706,3.3245,3.3619,3.4158,3.4826,3.5565,3.6121,3.6569,3.6981,3.7589,3.8051,3.8306,3.8689,3.9023,3.9299,3.9299,3.9299,3.9299,3.9299,3.9299,3.9299,3.9299,3.9299,3.9299,3.9299,3.9299,3.9299,3.9299,3.9299,3.9299,3.9299,3.9299,3.9299,3.9299,3.9299,3.9299,3.9299,3.9299,3.9299,3.9299,3.9299,3.9299,3.9299,3.9299,3.9299,3.9299,3.9299,3.9299,3.9299,3.9299,3.9299,3.9299,3.9352,3.9379,3.9379,3.9484,3.9668,3.9841,4.0003,4.0145,4.0424,4.1053,4.1503,4.1503,4.1656,4.1717,4.1525,4.1849,4.2077,4.2077,4.1909,4.1803,4.1803,4.1432,4.1162,4.1111,4.0731,4.0458,4.0385,4.0196,4.0096,4.0096,4.0096,4.0096,4.0096,4.0096,3.9968,2.0688,2.1376,2.2132,2.2536,2.3326,2.4164,2.4678,2.5266,2.5872,2.655,2.7143,2.781,2.8715,2.9292,2.9905,3.0658,3.072,3.0899,3.1436,3.1511,3.175,3.2407,3.2677,3.2856,3.3036,3.3484,3.3994,3.4474,3.4826,3.5348,3.6117,3.6631,3.7071,3.7399,3.8153,3.859,3.859,3.905,3.9299,3.9299,3.9299,3.9299,3.9299,3.9299,3.9299,3.9299,3.9299,3.9299,3.9299,3.9299,3.9299,3.9299,3.9299,3.9299,3.9299,3.9299,3.9299,3.9299,3.9299,3.9299,3.9299,3.9299,3.9299,3.9299,3.9299,3.9299,3.9299,3.9299,3.9299,3.9299,3.9299,3.9299,3.9299,3.9299,3.9299,3.9299,3.9299,3.9299,3.9299,3.9299,3.9379,3.9432,3.9432,3.9563,3.9668,3.9703,4.049,4.1071,4.1071,4.1094,4.1213,4.1459,4.137,4.1348,4.1481,4.137,4.1321,4.1321,4.1185,4.0955,4.0628,4.0604,4.0451,4.0113,4.0096,4.0096,4.0096,4.0096,4.0096,4.0096,4.0096,4.0096,2.151,2.2384,2.3363,2.3436,2.4424,2.553,2.6189,2.6352,2.656,2.7238,2.7917,2.8624,2.943,2.9963,3.0534,3.1332,3.135,3.1321,3.1467,3.1511,3.175,3.2407,3.308,3.3724,3.4384,3.4474,3.4488,3.4503,3.5642,3.6086,3.5569,3.7235,3.7966,3.7429,3.8623,3.9272,3.9272,3.9299,3.9299,3.9299,3.9299,3.9299,3.9299,3.9299,3.9299,3.9299,3.9299,3.9299,3.9299,3.9299,3.9299,3.9299,3.9299,3.9299,3.9299,3.9299,3.9299,3.9299,3.9299,3.9299,3.9299,3.9299,3.9299,3.9299,3.9299,3.9299,3.9299,3.9299,3.9299,3.9299,3.9299,3.9299,3.9299,3.9299,3.9299,3.9299,3.9299,3.9299,3.9299,3.9299,3.9299,3.9299,3.9299,3.9422,3.9537,3.9677,3.9833,3.9935,3.9935,4.0045,4.049,4.1393,4.1094,4.1019,4.1459,4.1071,4.0825,4.0825,4.0385,4.0121,4.0121,4.0121,4.0121,4.0096,4.0096,4.0096,4.0096,4.0096,4.0096,4.0096,4.0096,4.0096,2.2602,2.3334,2.4168,2.4952,2.5603,2.6228,2.6911,2.6984,2.7043,2.7469,2.7917,2.8533,2.9433,3.0061,3.0662,3.1391,3.1467,3.1438,3.1511,3.1884,3.2392,3.308,3.3739,3.4412,3.51,3.516,3.516,3.516,3.558,3.5878,3.6085,3.6692,3.7324,3.7966,3.8407,3.8843,3.9299,3.9299,3.9299,3.9299,3.9299,3.9299,3.9299,3.9299,3.9299,3.9299,3.9299,3.9299,3.9299,3.9299,3.9299,3.9299,3.9299,3.9299,3.9299,3.9299,3.9299,3.9299,3.9299,3.9299,3.9299,3.9299,3.9299,3.9299,3.9299,3.9299,3.9299,3.9299,3.9299,3.9299,3.9299,3.9299,3.9299,3.9299,3.9299,3.9299,3.9299,3.9299,3.9299,3.9299,3.9299,3.9299,3.9299,3.9325,3.9405,3.9537,3.9833,4.0037,4.0037,4.0087,4.0204,4.0538,4.0434,4.0385,4.0563,4.0434,4.0328,4.0328,4.0196,4.0096,4.0096,4.0096,4.0096,4.0096,4.0096,4.0096,4.0096,4.0096,4.0096,4.0096,4.0096,4.0096,2.3496,2.4261,2.5138,2.5903,2.6371,2.6802,2.7246,2.7258,2.7258,2.7423,2.7906,2.8474,2.9119,2.9924,3.0657,3.1062,3.1346,3.1585,3.1824,3.2213,3.2841,3.3739,3.4249,3.4741,3.5429,3.5504,3.5504,3.5504,3.5701,3.599,3.6368,3.6829,3.7442,3.8278,3.8535,3.8871,3.9299,3.9299,3.9299,3.9299,3.9299,3.9299,3.9299,3.9299,3.9299,3.9299,3.9299,3.9299,3.9299,3.9299,3.9299,3.9299,3.9299,3.9299,3.9299,3.9299,3.9299,3.9299,3.9299,3.9299,3.9299,3.9299,3.9299,3.9299,3.9299,3.9299,3.9299,3.9299,3.9299,3.9299,3.9299,3.9299,3.9299,3.9299,3.9299,3.9299,3.9299,3.9299,3.9299,3.9299,3.9299,3.9299,3.9299,3.9325,3.9405,3.9501,3.9755,3.9969,4.0037,4.0087,4.0096,4.0096,4.0096,4.0096,4.0096,4.0096,4.0096,4.0096,4.0096,4.0096,4.0096,4.0096,4.0096,4.0096,4.0096,4.0096,4.0096,4.0096,4.0096,4.0096,4.0096,4.0096,2.4189,2.5169,2.6198,2.6228,2.6724,2.7207,2.7207,2.7207,2.7207,2.7207,2.7839,2.839,2.8566,2.9594,3.0432,3.0492,3.1032,3.169,3.2333,3.2497,3.3036,3.4309,3.4518,3.4786,3.5444,3.5504,3.5504,3.5504,3.6022,3.6368,3.6399,3.756,3.8222,3.8306,3.8925,3.9272,3.9299,3.9299,3.9299,3.9299,3.9299,3.9299,3.9299,3.9299,3.9299,3.9299,3.9299,3.9299,3.9299,3.9299,3.9299,3.9299,3.9299,3.9299,3.9299,3.9299,3.9299,3.9299,3.9299,3.9299,3.9299,3.9299,3.9299,3.9299,3.9299,3.9299,3.9299,3.9299,3.9299,3.9299,3.9299,3.9299,3.9299,3.9299,3.9299,3.9299,3.9299,3.9299,3.9299,3.9299,3.9299,3.9299,3.9299,3.9422,3.9501,3.9501,3.9616,3.9729,3.9875,4.0011,4.007,4.007,4.0113,4.0096,4.0096,4.0096,4.0096,4.0096,4.0096,4.0096,4.0096,4.0096,4.0096,4.0096,4.0096,4.0096,4.0096,4.0096,4.0096,4.0096,4.0096,4.0096,2.5248,2.577,2.6176,2.6674,2.6986,2.7207,2.7207,2.7207,2.7233,2.7335,2.7494,2.7854,2.8476,2.8861,2.94,3.0357,3.0544,3.0873,3.166,3.2527,3.3272,3.3709,3.4637,3.531,3.5489,3.5504,3.5504,3.5504,3.5651,3.5941,3.6368,3.6723,3.7324,3.8278,3.8463,3.8799,3.9299,3.9299,3.9299,3.9299,3.9299,3.9299,3.9299,3.9299,3.9299,3.9299,3.9299,3.9299,3.9299,3.9299,3.9299,3.9299,3.9299,3.9299,3.9299,3.9299,3.9299,3.9299,3.9299,3.9299,3.9299,3.9299,3.9299,3.9299,3.9299,3.9299,3.9299,3.9299,3.9299,3.9299,3.9299,3.9299,3.9299,3.9299,3.9299,3.9299,3.9299,3.9299,3.9299,3.9299,3.9299,3.9299,3.9299,3.9325,3.9352,3.9352,3.9475,3.959,3.9729,3.9858,3.9935,3.9935,4.0037,4.0096,4.0096,4.0096,4.0096,4.0096,4.0096,4.0096,4.0096,4.0096,4.0096,4.0096,4.0096,4.0096,4.0096,4.0096,4.0096,4.0096,4.0096,4.0096,2.5641,2.6199,2.6623,2.699,2.713,2.7233,2.7258,2.7011,2.6804,2.692,2.6758,2.6743,2.7191,2.7754,2.8382,2.9035,2.9844,3.062,3.1319,3.2557,3.3512,3.3888,3.4861,3.5504,3.5504,3.5504,3.5504,3.5504,3.5504,3.5878,3.6784,3.6845,3.7429,3.8689,3.8745,3.8925,3.9299,3.9299,3.9299,3.9299,3.9299,3.9299,3.9299,3.9299,3.9299,3.9299,3.9299,3.9299,3.9299,3.9299,3.9299,3.9299,3.9299,3.9299,3.9299,3.9299,3.9299,3.9299,3.9299,3.9299,3.9299,3.9299,3.9299,3.9299,3.9299,3.9299,3.9299,3.9299,3.9299,3.9299,3.9299,3.9299,3.9299,3.9299,3.9299,3.9299,3.9299,3.9299,3.9299,3.9299,3.9299,3.9299,3.9299,3.9299,3.9299,3.9299,3.9405,3.9528,3.9537,3.9677,3.9858,3.9977,3.9986,4.0037,4.0096,4.0096,4.0096,4.0096,4.0096,4.0096,4.0096,4.0096,4.0096,4.0096,4.0096,4.0087,4.0011,4.0011,4.0011,4.0011,4.0011,4.0037,2.5774,2.6561,2.7181,2.7207,2.7207,2.7203,2.7232,2.6722,2.6243,2.6253,2.5899,2.5615,2.5615,2.6542,2.7355,2.7382,2.8979,3.0423,3.1084,3.2407,3.3619,3.4294,3.4951,3.54,3.5489,3.5504,3.5504,3.5504,3.5554,3.6148,3.734,3.7488,3.8084,3.9272,3.9299,3.9299,3.9299,3.9299,3.9299,3.9299,3.9299,3.9299,3.9299,3.9299,3.9299,3.9299,3.9299,3.9299,3.9299,3.9299,3.9299,3.9299,3.9299,3.9299,3.9299,3.9299,3.9299,3.9299,3.9299,3.9299,3.9299,3.9299,3.9299,3.9299,3.9299,3.9299,3.9299,3.9299,3.9299,3.9299,3.9299,3.9299,3.9299,3.9299,3.9299,3.9299,3.9299,3.9299,3.9299,3.9299,3.9299,3.9299,3.9299,3.9299,3.9299,3.9299,3.9405,3.9448,3.9325,3.9547,3.9807,4.002,3.9961,3.9961,4.007,4.0096,4.007,4.007,4.007,4.007,4.007,4.0062,4.0045,4.0096,4.0087,4.0011,3.9926,3.9901,3.9901,3.9926,3.9901,3.9961,2.6626,2.6916,2.7041,2.7181,2.7207,2.7059,2.6528,2.6396,2.6209,2.5669,2.5595,2.5615,2.5615,2.5794,2.627,2.7248,2.8125,2.9107,3.0312,3.1663,3.2795,3.3589,3.4279,3.4876,3.5444,3.5504,3.5504,3.5504,3.5958,3.6569,3.737,3.7879,3.8507,3.9272,3.9299,3.9299,3.9299,3.9299,3.9299,3.9299,3.9299,3.9299,3.9299,3.9299,3.9299,3.9299,3.9299,3.9299,3.9299,3.9299,3.9299,3.9299,3.9299,3.9299,3.9299,3.9299,3.9299,3.9299,3.9299,3.9299,3.9299,3.9299,3.9299,3.9299,3.9299,3.9299,3.9299,3.9299,3.9299,3.9299,3.9299,3.9299,3.9299,3.9299,3.9299,3.9299,3.9299,3.9299,3.9299,3.9299,3.9299,3.9299,3.9299,3.9299,3.9299,3.9299,3.9325,3.9352,3.9432,3.9694,3.9833,3.9781,3.9961,4.007,4.0096,4.0096,4.0062,3.9952,3.9935,3.9935,3.9935,3.9833,3.9884,4.0113,3.9867,3.9884,4.0062,3.9935,3.9977,4.0045,3.9935,3.9901,2.6916,2.7093,2.7144,2.7258,2.7033,2.6717,2.648,2.5872,2.5188,2.4588,2.4253,2.4088,2.4088,2.4343,2.4955,2.6163,2.7254,2.8398,2.9642,3.1008,3.2303,3.338,3.4099,3.4741,3.5429,3.5504,3.5504,3.5504,3.6368,3.7071,3.7399,3.8311,3.8969,3.9299,3.9299,3.9299,3.9299,3.9299,3.9299,3.9299,3.9299,3.9299,3.9299,3.9299,3.9299,3.9299,3.9299,3.9299,3.9299,3.9299,3.9299,3.9299,3.9299,3.9299,3.9299,3.9299,3.9299,3.9299,3.9299,3.9299,3.9299,3.9299,3.9299,3.9299,3.9299,3.9299,3.9299,3.9299,3.9299,3.9299,3.9299,3.9299,3.9299,3.9299,3.9299,3.9299,3.9299,3.9299,3.9299,3.9299,3.9299,3.9299,3.9299,3.9299,3.9299,3.9299,3.9352,3.9405,3.9395,3.9642,3.9781,3.9703,3.9755,3.9807,3.9884,3.9893,3.9858,3.9781,3.9798,3.9798,3.9798,3.9729,3.9755,3.9884,3.9781,3.9729,3.9781,3.972,3.972,3.9798,3.972,3.972,2.703,2.7233,2.7255,2.7248,2.6817,2.6396,2.6219,2.5058,2.3911,2.3483,2.2808,2.2358,2.2643,2.3092,2.379,2.498,2.6424,2.7803,2.9,3.0393,3.178,3.3125,3.3858,3.4532,3.522,3.5415,3.5504,3.5504,3.6662,3.7517,3.778,3.8761,3.9299,3.9299,3.9299,3.9299,3.9299,3.9299,3.9299,3.9299,3.9299,3.9299,3.9299,3.9299,3.9299,3.9299,3.9299,3.9299,3.9299,3.9299,3.9299,3.9299,3.9299,3.9299,3.9299,3.9299,3.9299,3.9299,3.9299,3.9299,3.9299,3.9299,3.9299,3.9299,3.9299,3.9299,3.9299,3.9299,3.9299,3.9299,3.9299,3.9299,3.9299,3.9299,3.9299,3.9299,3.9299,3.9299,3.9299,3.9299,3.9299,3.9299,3.9299,3.9299,3.9299,3.9299,3.9395,3.9422,3.9299,3.9468,3.9599,3.9599,3.9563,3.959,3.9677,3.9703,3.9677,3.9651,3.9668,3.9668,3.9668,3.9625,3.9651,3.9703,3.9651,3.9573,3.9537,3.9511,3.9511,3.9537,3.9511,3.9563,2.7198,2.7376,2.7278,2.6792,2.6632,2.6264,2.5053,2.3767,2.2832,2.2793,2.1769,2.1261,2.2478,2.2748,2.317,2.4312,2.5714,2.7116,2.833,2.9707,3.1091,3.2437,3.3185,3.3844,3.4533,3.513,3.5504,3.5504,3.6662,3.7895,3.905,3.9245,3.9299,3.9299,3.9299,3.9299,3.9299,3.9299,3.9299,3.9299,3.9299,3.9299,3.9299,3.9299,3.9299,3.9299,3.9299,3.9299,3.9299,3.9299,3.9299,3.9299,3.9299,3.9299,3.9299,3.9299,3.9299,3.9299,3.9299,3.9299,3.9299,3.9299,3.9299,3.9299,3.9299,3.9299,3.9299,3.9299,3.9299,3.9299,3.9299,3.9299,3.9299,3.9299,3.9299,3.9299,3.9299,3.9299,3.9299,3.9299,3.9299,3.9299,3.9299,3.9299,3.9299,3.9299,3.9299,3.9299,3.9299,3.9325,3.9325,3.9325,3.9547,3.9677,3.9703,3.9703,3.9651,3.9528,3.9528,3.9528,3.9528,3.9405,3.9458,3.9703,3.9458,3.9458,3.9677,3.9563,3.9563,3.9677,3.9563,3.9501,2.6236,2.6262,2.6163,2.604,2.5704,2.5143,2.4201,2.331,2.2478,2.1665,2.1062,2.0752,2.0876,2.1565,2.2383,2.3231,2.4859,2.6443,2.7733,2.9089,3.0432,3.1735,3.2856,3.3754,3.4444,3.51,3.5829,3.6585,3.7442,3.8339,3.9245,3.9299,3.9299,3.9299,3.9299,3.9299,3.9299,3.9299,3.9299,3.9299,3.9299,3.9299,3.9299,3.9299,3.9299,3.9299,3.9299,3.9299,3.9299,3.9299,3.9299,3.9299,3.9299,3.9299,3.9299,3.9299,3.9299,3.9299,3.9299,3.9299,3.9299,3.9299,3.9299,3.9299,3.9299,3.9299,3.9299,3.9299,3.9299,3.9299,3.9299,3.9299,3.9299,3.9299,3.9299,3.9299,3.9299,3.9299,3.9299,3.9299,3.9299,3.9299,3.9299,3.9299,3.9299,3.9299,3.9299,3.9299,3.9299,3.9299,3.9299,3.9299,3.9405,3.9458,3.9458,3.9458,3.9432,3.9379,3.9379,3.9379,3.9379,3.9325,3.9352,3.9458,3.9352,3.9352,3.9458,3.9405,3.9405,3.9458,3.9405,3.9379,2.5531,2.5529,2.5437,2.5314,2.4799,2.4126,2.3475,2.2553,2.155,2.0602,2.0075,1.9776,1.9723,2.0468,2.146,2.2523,2.3984,2.554,2.7091,2.8468,2.9774,3.1047,3.2572,3.3679,3.4174,3.4981,3.6037,3.731,3.7793,3.8379,3.9245,3.9299,3.9299,3.9299,3.9299,3.9299,3.9299,3.9299,3.9299,3.9299,3.9299,3.9299,3.9299,3.9299,3.9299,3.9299,3.9299,3.9299,3.9299,3.9299,3.9299,3.9299,3.9299,3.9299,3.9299,3.9299,3.9299,3.9299,3.9299,3.9299,3.9299,3.9299,3.9299,3.9299,3.9299,3.9299,3.9299,3.9299,3.9299,3.9299,3.9299,3.9299,3.9299,3.9299,3.9299,3.9299,3.9299,3.9299,3.9299,3.9299,3.9299,3.9299,3.9299,3.9299,3.9299,3.9299,3.9299,3.9299,3.9299,3.9299,3.9299,3.9299,3.9299,3.9299,3.9299,3.9299,3.9299,3.9299,3.9299,3.9299,3.9299,3.9299,3.9299,3.9299,3.9299,3.9299,3.9299,3.9299,3.9299,3.9299,3.9299,3.9299,2.5412,2.5615,2.545,2.4784,2.4096,2.3445,2.2853,2.116,1.9738,1.9708,1.8657,1.8132,1.9468,1.9708,2.0367,2.2373,2.3227,2.4313,2.6318,2.7754,2.9086,3.0357,3.2273,3.3499,3.3499,3.4711,3.6037,3.731,3.7399,3.7953,3.9245,3.9299,3.9299,3.9299,3.9299,3.9299,3.9299,3.9299,3.9299,3.9299,3.9299,3.9299,3.9299,3.9299,3.9299,3.9299,3.9299,3.9299,3.9299,3.9299,3.9299,3.9299,3.9299,3.9299,3.9299,3.9299,3.9299,3.9299,3.9299,3.9299,3.9299,3.9299,3.9299,3.9299,3.9299,3.9299,3.9299,3.9299,3.9299,3.9299,3.9299,3.9299,3.9299,3.9299,3.9299,3.9299,3.9299,3.9299,3.9299,3.9299,3.9299,3.9299,3.9299,3.9299,3.9299,3.9299,3.9299,3.9299,3.9299,3.9299,3.9299,3.9299,3.9299,3.9299,3.9299,3.9299,3.9299,3.9299,3.9299,3.9299,3.9299,3.9299,3.9299,3.9299,3.9299,3.9299,3.9299,3.9299,3.9299,3.9299,3.9299,3.9299,2.2877,2.2936,2.2877,2.2667,2.2458,2.2128,2.1485,2.0483,1.9573,1.9106,1.8311,1.7833,1.8252,1.9076,2.0067,2.1156,2.299,2.4664,2.5764,2.7859,2.9415,2.9846,3.2379,3.4319,3.4803,3.6414,3.7429,3.7399,3.8197,3.8871,3.9272,3.9299,3.9299,3.9299,3.9299,3.9299,3.9299,3.9299,3.9299,3.9299,3.9299,3.9299,3.9299,3.9299,3.9299,3.9299,3.9299,3.9299,3.9299,3.9299,3.9299,3.9299,3.9299,3.9299,3.9299,3.9299,3.9299,3.9299,3.9299,3.9299,3.9299,3.9299,3.9299,3.9299,3.9299,3.9299,3.9299,3.9299,3.9299,3.9299,3.9299,3.9299,3.9299,3.9299,3.9299,3.9299,3.9299,3.9299,3.9299,3.9299,3.9299,3.9299,3.9299,3.9299,3.9299,3.9299,3.9299,3.9299,3.9299,3.9299,3.9299,3.9299,3.9299,3.9299,3.9299,3.9299,3.9299,3.9299,3.9299,3.9299,3.9299,3.9299,3.9299,3.9299,3.9299,3.9299,3.9299,3.9299,3.9299,3.9299,3.9299,3.9299,2.156,2.1695,2.1695,2.1695,2.1515,2.1216,2.0793,1.9989,1.9136,1.8446,1.7997,1.7713,1.7713,1.8807,2.0007,2.0932,2.2841,2.4545,2.548,2.7694,2.9778,3.1245,3.3181,3.4877,3.6105,3.7265,3.7908,3.7735,3.8479,3.9023,3.9299,3.9299,3.9299,3.9299,3.9299,3.9299,3.9299,3.9299,3.9299,3.9299,3.9299,3.9299,3.9299,3.9299,3.9299,3.9299,3.9299,3.9299,0.0,3.9299,3.9299,3.9299,3.9299,3.9299,3.9299,3.9299,3.9299,3.9299,3.9299,3.9299,3.9299,3.9299,3.9299,3.9299,3.9299,3.9299,3.9299,3.9299,3.9299,3.9299,3.9299,3.9299,3.9299,3.9299,3.9299,3.9299,3.9299,3.9299,3.9299,3.9299,3.9299,3.9299,3.9299,3.9299,3.9299,3.9299,3.9299,3.9299,3.9299,3.9299,3.9299,3.9299,3.9299,3.9299,3.9299,3.9299,3.9299,3.9299,3.9299,3.9299,3.9299,3.9299,3.9299,3.9299,3.9299,3.9299,3.9299,3.9299,3.9299,3.9299,3.9299,3.9299,0.0,2.156,2.156,2.156,2.1096,2.0628,2.0628,1.9627,0.0,1.7908,1.7727,1.7697,1.7773,1.8837,2.0142,2.147,2.2817,2.4148,2.5495,2.744,3.0111,3.3896,3.4426,3.5216,3.7139,3.7458,3.7751,3.825,3.8334,3.8645,3.9272,3.9299,3.9299,3.9299,3.9299,3.9299,3.9299,3.9299,3.9299,3.9299,3.9299,3.9299,3.9299,3.9299,3.9299,3.9299,3.9299,3.9299,3.9299,3.9299,3.9299,3.9299,3.9299,3.9299,3.9299,3.9299,3.9299,3.9299,3.9299,3.9299,3.9299,3.9299,3.9299,3.9299,3.9299,3.9299,3.9299,3.9299,3.9299,3.9299,3.9299,3.9299,3.9299,3.9299,3.9299,3.9299,3.9299,3.9299,3.9299,3.9299,3.9299,3.9299,3.9299,3.9299,3.9299,3.9299,3.9299,3.9299,3.9299,3.9299,3.9299,3.9299,3.9299,3.9299,3.9299,3.9299,3.9299,3.9299,3.9299,3.9299,3.9299,3.9299,3.9299,3.9299,3.9299,3.9299,3.9299,3.9299,3.9299,3.9299,3.9299,3.9299,1.9962,0.0,2.0172,2.0172,2.0052,1.9947,0.0,1.9286,1.8657,1.8508,1.8057,1.7863,1.8371,1.9136,2.0142,2.147,2.3184,2.4829,2.6183,2.8487,3.0953,3.3412,3.4558,3.5551,3.6538,3.7969,3.8689,3.8322,3.8772,3.9121,3.9299,3.9299,3.9299,3.9299,3.9299,3.9299,3.9299,3.9299,3.9299,3.9299,3.9299,3.9299,3.9299,3.9299,3.9299,3.9299,3.9299,3.9299,3.9299,3.9299,3.9299,3.9299,3.9299,3.9299,3.9299,3.9299,3.9299,3.9299,3.9299,3.9299,3.9299,3.9299,3.9299,3.9299,3.9299,3.9299,3.9299,3.9299,3.9299,3.9299,3.9299,3.9299,3.9299,3.9299,3.9299,3.9299,3.9299,3.9299,3.9299,3.9299,3.9299,3.9299,3.9299,3.9299,3.9299,3.9299,3.9299,3.9299,3.9299,3.9299,3.9299,3.9299,3.9299,3.9299,3.9299,3.9299,3.9299,3.9299,3.9299,3.9299,3.9299,3.9299,3.9299,3.9299,3.9299,3.9299,3.9299,3.9299,3.9299,3.9299,3.9299,3.9299,1.9136,1.9468,1.9708,1.9708,1.9708,1.9708,1.9708,1.9181,1.8702,1.8702,1.8401,1.8356,1.9031,1.9944,2.1055,2.2353,2.4238,2.6198,2.8113,2.9879,3.1814,3.4111,3.5256,3.6343,3.7626,3.8678,3.9148,3.8788,3.9077,3.9299,3.9299,3.9299,3.9299,3.9299,3.9299,3.9299,3.9299,3.9299,3.9299,3.9299,3.9299,3.9299,3.9299,3.9299,3.9299,3.9299,3.9299,3.9299,3.9299,3.9299,3.9299,3.9299,3.9299,3.9299,3.9299,3.9299,3.9299,3.9299,3.9299,3.9299,3.9299,3.9299,3.9299,3.9299,3.9299,3.9299,3.9299,3.9299,3.9299,3.9299,3.9299,3.9299,3.9299,3.9299,3.9299,3.9299,3.9299,3.9299,3.9299,3.9299,3.9299,3.9299,3.9299,3.9299,3.9299,3.9299,3.9299,3.9299,3.9299,3.9299,3.9299,3.9299,3.9299,3.9299,3.9299,3.9299,3.9299,3.9299,3.9299,3.9299,3.9299,3.9299,3.9299,3.9299,3.9299,3.9299,3.9299,3.9299,3.9299,3.9299,3.9299,3.9299,1.8672,1.9181,1.9708,1.9708,1.9708,1.9708,1.9708,1.9256,1.8882,1.8986,1.9016,1.9211,1.9887,2.1081,2.2358,2.3522,2.5566,2.7825,3.0163,3.1152,3.2516,3.4833,3.5872,3.7098,3.8849,3.9191,3.9299,3.9299,3.9299,3.9299,3.9299,3.9299,3.9299,3.9299,3.9299,3.9299,3.9299,3.9299,3.9299,3.9299,3.9299,3.9299,3.9299,3.9299,3.9299,3.9299,3.9299,3.9299,3.9299,3.9299,3.9299,3.9299,3.9299,3.9299,3.9299,3.9299,3.9299,3.9299,3.9299,3.9299,3.9299,3.9299,3.9299,3.9299,3.9299,3.9299,3.9299,3.9299,3.9299,3.9299,3.9299,3.9299,3.9299,3.9299,3.9299,3.9299,3.9299,3.9299,3.9299,3.9299,3.9299,3.9299,3.9299,3.9299,3.9299,3.9299,3.9299,3.9299,3.9299,3.9299,3.9299,3.9299,3.9299,3.9299,3.9299,3.9299,3.9299,3.9299,3.9299,3.9299,3.9299,3.9299,3.9299,3.9299,3.9299,3.9299,3.9299,3.9299,3.9299,3.9299,3.9299,3.9299,1.8553,1.9181,1.9708,1.9708,1.9708,1.9708,1.9708,1.9633,1.9723,2.0288,2.0389,2.0602,2.1261,2.2443,2.3519,2.4178,2.6857,2.925,3.0338,3.1584,3.2706,3.3683,3.5338,3.6756,3.7629,3.8678,3.9299,3.9299,3.9299,3.9299,3.9299,3.9299,3.9299,3.9299,3.9299,3.9299,3.9299,3.9299,3.9299,3.9299,3.9299,3.9299,3.9299,3.9299,3.9299,3.9299,3.9299,3.9299,3.9299,3.9299,3.9299,3.9299,3.9299,3.9299,3.9299,3.9299,3.9299,3.9299,3.9299,3.9299,3.9299,3.9299,3.9299,3.9299,3.9299,3.9299,3.9299,3.9299,3.9299,3.9299,3.9299,3.9299,3.9299,3.9299,3.9299,3.9299,3.9299,3.9299,3.9299,3.9299,3.9299,3.9299,3.9299,3.9299,3.9299,3.9299,3.9299,3.9299,3.9299,3.9299,3.9299,3.9299,3.9299,3.9299,3.9299,3.9299,3.9299,3.9299,3.9299,3.9299,3.9299,3.9299,3.9299,3.9299,3.9299,3.9299,3.9299,3.9299,3.9299,3.9299,3.9299,3.9299,1.8523,1.9181,1.9708,1.9708,1.9708,1.9779,2.0154,2.0243,2.0438,2.1111,2.1246,2.1545,2.2532,2.3206,2.4282,2.6334,2.8792,3.0814,3.1957,3.292,3.3992,3.5386,3.6366,3.7342,3.8351,3.8942,3.9299,3.9299,3.9299,3.9299,3.9299,3.9299,3.9299,3.9299,3.9299,3.9299,3.9299,3.9299,3.9299,3.9299,3.9299,3.9299,3.9299,3.9299,3.9299,3.9299,3.9299,3.9299,3.9299,3.9299,3.9299,3.9299,3.9299,3.9299,3.9299,3.9299,3.9299,3.9299,3.9299,3.9299,3.9299,3.9299,3.9299,3.9299,3.9299,3.9299,3.9299,3.9299,3.9299,3.9299,3.9299,3.9299,3.9299,3.9299,3.9299,3.9299,3.9299,3.9299,3.9299,3.9299,3.9299,3.9299,3.9299,3.9299,3.9299,3.9299,3.9299,3.9299,3.9299,3.9299,3.9299,3.9299,3.9299,3.9299,3.9299,3.9299,3.9299,3.9299,3.9299,3.9299,3.9299,3.9299,3.9299,3.9299,3.9299,3.9299,3.9299,3.9299,3.9299,3.9299,3.9299,3.9299,1.8523,1.9181,1.9738,1.9884,1.9929,2.0064,2.0569,2.0823,2.1152,2.1979,2.2143,2.2532,2.3834,2.4402,2.5696,2.8755,3.0456,3.1886,3.3314,3.3996,3.5007,3.6853,3.7406,3.7982,3.8969,3.9202,3.9299,3.9299,3.9299,3.9299,3.9299,3.9299,3.9299,3.9299,3.9299,3.9299,3.9299,3.9299,3.9299,3.9299,3.9299,3.9299,3.9299,3.9299,3.9299,3.9299,3.9299,3.9299,3.9299,3.9299,3.9299,3.9299,3.9299,3.9299,3.9299,3.9299,3.9299,3.9299,3.9299,3.9299,3.9299,3.9299,3.9299,3.9299,3.9299,3.9299,3.9299,3.9299,3.9299,3.9299,3.9299,3.9299,3.9299,3.9299,3.9299,3.9299,3.9299,3.9299,3.9299,3.9299,3.9299,3.9299,3.9299,3.9299,3.9299,3.9299,3.9299,3.9299,3.9299,3.9299,3.9299,3.9299,3.9299,3.9299,3.9299,3.9299,3.9299,3.9299,3.9299,3.9299,3.9299,3.9299,3.9299,3.9299,3.9299,3.9299,3.9299,3.9299,3.9299,3.9299,3.9299,3.9299,1.8523,1.9181,1.9857,2.0464,2.0628,2.0643,2.0688,2.1186,2.1979,2.3206,2.346,2.3864,2.5211,2.6829,2.867,3.0837,3.1267,3.1816,3.3285,3.4025,3.4907,3.6305,3.7504,3.8278,3.8379,3.8925,3.9299,3.9299,3.9299,3.9299,3.9299,3.9299,3.9299,3.9299,3.9299,3.9299,3.9299,3.9299,3.9299,3.9299,3.9299,3.9299,3.9299,3.9299,3.9299,3.9299,3.9299,3.9299,3.9299,3.9299,3.9299,3.9299,3.9299,3.9299,3.9299,3.9299,3.9299,3.9299,3.9299,3.9299,3.9299,3.9299,3.9299,3.9299,3.9299,3.9299,3.9299,3.9299,3.9299,3.9299,3.9299,3.9299,3.9299,3.9299,3.9299,3.9299,3.9299,3.9299,3.9299,3.9299,3.9299,3.9299,3.9299,3.9299,3.9299,3.9299,3.9299,3.9299,3.9299,3.9299,3.9299,3.9299,3.9299,3.9299,3.9299,3.9299,3.9299,3.9299,3.9299,3.9299,3.9299,3.9299,3.9299,3.9299,3.9299,3.9299,3.9299,3.9299,3.9299,3.9299,3.9299,3.9299,1.9031,1.9809,2.0434,2.0938,2.1786,2.2503,2.2503,2.2697,2.3251,2.4582,2.4852,2.5356,2.7022,2.9217,3.0989,3.1763,3.2571,3.3599,3.4966,3.542,3.6229,3.8007,3.8261,3.8463,3.8871,3.9148,3.9299,3.9299,3.9299,3.9299,3.9299,3.9299,3.9299,3.9299,3.9299,3.9299,3.9299,3.9299,3.9299,3.9299,3.9299,3.9299,3.9299,3.9299,3.9299,3.9299,3.9299,3.9299,3.9299,3.9299,3.9299,3.9299,3.9299,3.9299,3.9299,3.9299,3.9299,3.9299,3.9299,3.9299,3.9299,3.9299,3.9299,3.9299,3.9299,3.9299,3.9299,3.9299,3.9299,3.9299,3.9299,3.9299,3.9299,3.9299,3.9299,3.9299,3.9299,3.9299,3.9299,3.9299,3.9299,3.9299,3.9299,3.9299,3.9299,3.9299,3.9299,3.9299,3.9299,3.9299,3.9299,3.9299,3.9299,3.9299,3.9299,3.9299,3.9299,3.9299,3.9299,3.9299,3.9299,3.9299,3.9299,3.9299,3.9299,3.9299,3.9299,3.9299,3.9299,3.9299,3.9299,3.9299,1.9348,2.0183,2.0809,2.131,2.2516,2.3714,2.4133,2.4356,2.4814,2.6006,2.6687,2.7695,2.9531,3.1142,3.2336,3.2727,3.3604,3.4684,3.6017,3.6444,3.7295,3.9092,3.8898,3.8816,3.9272,3.9299,3.9299,3.9299,3.9299,3.9299,3.9299,3.9299,3.9299,3.9299,3.9299,3.9299,3.9299,3.9299,3.9299,3.9299,3.9299,3.9299,3.9299,3.9299,3.9299,3.9299,3.9299,3.9299,3.9299,3.9299,3.9299,3.9299,3.9299,3.9299,3.9299,3.9299,3.9299,3.9299,3.9299,3.9299,3.9299,3.9299,3.9299,3.9299,3.9299,3.9299,3.9299,3.9299,3.9299,3.9299,3.9299,3.9299,3.9299,3.9299,3.9299,3.9299,3.9299,3.9299,3.9299,3.9299,3.9299,3.9299,3.9299,3.9299,3.9299,3.9299,3.9299,3.9299,3.9299,3.9299,3.9299,3.9299,3.9299,3.9299,3.9299,3.9299,3.9299,3.9299,3.9299,3.9299,3.9299,3.9299,3.9299,3.9299,3.9299,3.9299,3.9299,3.9299,3.9299,3.9299,3.9299,3.9431,1.9348,2.0198,2.0872,2.1565,2.2667,2.3969,2.5315,2.6032,2.6642,2.7445,2.9124,3.0972,3.2757,3.2624,3.2638,3.3896,3.4228,3.4765,3.6017,3.6853,3.7791,3.9146,3.9299,3.9299,3.9299,3.9299,3.9299,3.9299,3.9299,3.9299,3.9299,3.9299,3.9299,3.9299,3.9299,3.9299,3.9299,3.9299,3.9299,3.9299,3.9299,3.9299,3.9299,3.9299,3.9299,3.9299,3.9299,3.9299,3.9299,3.9299,3.9299,3.9299,3.9299,3.9299,3.9299,3.9299,3.9299,3.9299,3.9299,3.9299,3.9299,3.9299,3.9299,3.9299,3.9299,3.9299,3.9299,3.9299,3.9299,3.9299,3.9299,3.9299,3.9299,3.9299,3.9299,3.9299,3.9299,3.9299,3.9299,3.9299,3.9299,3.9299,3.9299,3.9299,3.9299,3.9299,3.9299,3.9299,3.9299,3.9299,3.9299,3.9299,3.9299,3.9299,3.9299,3.9299,3.9299,3.9299,3.9299,3.9299,3.9299,3.9299,3.9299,3.9299,3.9299,3.9299,3.9299,3.9299,3.9299,3.9299,3.9315,3.9713,1.9649,2.0718,2.1682,2.2891,2.4097,2.5318,2.6449,2.6994,2.7589,2.8764,3.0777,3.2334,3.2451,3.3364,3.4218,3.461,3.5175,3.5851,3.6713,3.7497,3.8318,3.9212,3.9299,3.9299,3.9299,3.9299,3.9299,3.9299,3.9299,3.9299,3.9299,3.9299,3.9299,3.9299,3.9299,3.9299,3.9299,3.9299,3.9299,3.9299,3.9299,3.9299,3.9299,3.9299,3.9299,3.9299,3.9299,3.9299,3.9299,3.9299,3.9299,3.9299,3.9299,3.9299,3.9299,3.9299,3.9299,3.9299,3.9299,3.9299,3.9299,3.9299,3.9299,3.9299,3.9299,3.9299,3.9299,3.9299,3.9299,3.9299,3.9299,3.9299,3.9299,3.9299,3.9299,3.9299,3.9299,3.9299,3.9299,3.9299,3.9299,3.9299,3.9299,3.9299,3.9299,3.9299,3.9299,3.9299,3.9299,3.9299,3.9299,3.9299,3.9299,3.9299,3.9299,3.9299,3.9299,3.9299,3.9299,3.9299,3.9299,3.9299,3.9299,3.9299,3.9299,3.9299,3.9299,3.9299,3.9299,3.9315,3.9829,3.9929,1.9914,2.1043,2.2044,2.3369,2.4672,2.6092,2.8029,2.8604,2.9215,3.0906,3.2476,3.3445,3.3306,3.4169,3.4899,3.4899,3.5793,3.6643,3.7051,3.8021,3.8843,3.9245,3.9299,3.9299,3.9299,3.9299,3.9299,3.9299,3.9299,3.9299,3.9299,3.9299,3.9299,3.9299,3.9299,3.9299,3.9299,3.9299,3.9299,3.9299,3.9299,3.9299,3.9299,3.9299,3.9299,3.9299,3.9299,3.9299,3.9299,3.9299,3.9299,3.9299,3.9299,3.9299,3.9299,3.9299,3.9299,3.9299,3.9299,3.9299,3.9299,3.9299,3.9299,3.9299,3.9299,3.9299,3.9299,3.9299,3.9299,3.9299,3.9299,3.9299,3.9299,3.9299,3.9299,3.9299,3.9299,3.9299,3.9299,3.9299,3.9299,3.9299,3.9299,3.9299,3.9299,3.9299,3.9299,3.9299,3.9299,3.9299,3.9299,3.9299,3.9299,3.9299,3.9299,3.9299,3.9299,3.9299,3.9299,3.9299,3.9299,3.9299,3.9299,3.9299,3.9299,3.9299,3.9299,3.9299,3.9448,3.9746,4.0194,4.0311,2.0205,2.1205,2.2044,2.3398,2.4814,2.6681,2.9776,3.0521,3.1162,3.331,3.3973,3.43,3.4756,3.4875,3.4899,3.4899,3.6141,3.7102,3.7102,3.8361,3.9299,3.9299,3.9299,3.9299,3.9299,3.9299,3.9299,3.9299,3.9299,3.9299,3.9299,3.9299,3.9299,3.9299,3.9299,3.9299,3.9299,3.9299,3.9299,3.9299,3.9299,3.9299,3.9299,3.9299,3.9299,3.9299,3.9299,3.9299,3.9299,3.9299,3.9299,3.9299,3.9299,3.9299,3.9299,3.9299,3.9299,3.9299,3.9299,3.9299,3.9299,3.9299,3.9299,3.9299,3.9299,3.9299,3.9299,3.9299,3.9299,3.9299,3.9299,3.9299,3.9299,3.9299,3.9299,3.9299,3.9299,3.9299,3.9299,3.9299,3.9299,3.9299,3.9299,3.9299,3.9299,3.9299,3.9299,3.9299,3.9299,3.9299,3.9299,3.9299,3.9299,3.9299,3.9299,3.9299,3.9299,3.9299,3.9299,3.9299,3.9299,3.9299,3.9299,3.9299,3.9299,3.9332,3.9398,3.9398,3.9779,4.0509,4.0492,4.0816,2.0523,2.1386,2.2209,2.4329,2.6421,2.8485,3.0554,3.1439,3.2098,3.3103,3.4079,3.4618,3.4325,3.4635,3.4899,3.4899,3.6141,3.7102,3.7102,3.8361,3.9299,3.9299,3.9299,3.9299,3.9299,3.9299,3.9299,3.9299,3.9299,3.9299,3.9299,3.9299,3.9299,3.9299,3.9299,3.9299,3.9299,3.9299,3.9299,3.9299,3.9299,3.9299,3.9299,3.9299,3.9299,3.9299,3.9299,3.9299,3.9299,3.9299,3.9299,3.9299,3.9299,3.9299,3.9299,3.9299,3.9299,3.9299,3.9299,3.9299,3.9299,3.9299,3.9299,3.9299,3.9299,3.9299,3.9299,3.9299,3.9299,3.9299,3.9299,3.9299,3.9299,3.9299,3.9299,3.9299,3.9299,3.9299,3.9299,3.9299,3.9299,3.9299,3.9299,3.9299,3.9299,3.9299,3.9299,3.9299,3.9299,3.9299,3.9299,3.9299,3.9299,3.9299,3.9299,3.9299,3.9299,3.9299,3.9299,3.9299,3.9299,3.9299,3.9299,3.9299,3.9299,3.958,4.016,4.016,4.0514,4.1182,4.122,4.1057,2.0035,2.1242,2.2585,2.5146,2.7803,3.0107,3.1309,3.2375,3.3274,3.3896,3.4505,3.4811,3.4521,3.4715,3.4899,3.4899,3.6141,3.7102,3.7102,3.8361,3.9299,3.9299,3.9299,3.9299,3.9299,3.9299,3.9299,3.9299,3.9299,3.9299,3.9299,3.9299,3.9299,3.9299,3.9299,3.9299,3.9299,3.9299,3.9299,3.9299,3.9299,3.9299,3.9299,3.9299,3.9299,3.9299,3.9299,3.9299,3.9299,3.9299,3.9299,3.9299,3.9299,3.9299,3.9299,3.9299,3.9299,3.9299,3.9299,3.9299,3.9299,3.9299,3.9299,3.9299,3.9299,3.9299,3.9299,3.9299,3.9299,3.9299,3.9299,3.9299,3.9299,3.9299,3.9299,3.9299,3.9299,3.9299,3.9299,3.9299,3.9299,3.9299,3.9299,3.9299,3.9299,3.9299,3.9299,3.9299,3.9299,3.9299,3.9299,3.9299,3.9299,3.9299,3.9299,3.9299,3.9299,3.9299,3.9299,3.9299,3.9299,3.9647,3.9663,3.9315,3.9647,4.0028,4.0409,4.04,4.0754,4.1442,4.1123,4.0785,1.9448,2.1228,2.3249,2.5784,2.8545,3.0877,3.1788,3.2991,3.4104,3.4771,3.4899,3.4899,3.4899,3.4899,3.4899,3.4899,3.6025,3.6953,3.7085,3.8245,3.9166,3.9282,3.9299,3.9299,3.9299,3.9299,3.9299,3.9299,3.9299,3.9299,3.9299,3.9299,3.9299,3.9299,3.9299,3.9299,3.9299,3.9299,3.9299,3.9299,3.9299,3.9299,3.9299,3.9299,3.9299,3.9299,3.9299,3.9299,3.9299,3.9299,3.9299,3.9299,3.9299,3.9299,3.9299,3.9299,3.9299,3.9299,3.9299,3.9299,3.9299,3.9299,3.9299,3.9299,3.9299,3.9299,3.9299,3.9299,3.9299,3.9299,3.9299,3.9299,3.9299,3.9299,3.9299,3.9299,3.9299,3.9299,3.9299,3.9299,3.9299,3.9299,3.9299,3.9299,3.9299,3.9299,3.9299,3.9299,3.9299,3.9299,3.9299,3.9299,3.9299,3.9299,3.9299,3.9299,3.9299,3.9299,3.9431,3.9497,3.9497,4.0194,4.0293,3.968,4.0276,4.0658,4.0746,4.0645,4.0982,4.1664,4.0817,4.0446,1.9753,2.2048,2.4353,2.5993,2.7551,2.9262,3.1492,3.2579,3.3486,3.4671,3.4899,3.4899,3.4899,3.4899,3.4899,3.4899,3.5595,3.6373,3.7019,3.7831,3.8576,3.9232,3.9299,3.9299,3.9299,3.9299,3.9299,3.9299,3.9299,3.9299,3.9299,3.9299,3.9299,3.9299,3.9299,3.9299,3.9299,3.9299,3.9299,3.9299,3.9299,3.9299,3.9299,3.9299,3.9299,3.9299,3.9299,3.9299,3.9299,3.9299,3.9299,3.9299,3.9299,3.9299,3.9299,3.9299,3.9299,3.9299,3.9299,3.9299,3.9299,3.9299,3.9299,3.9299,3.9299,3.9299,3.9299,3.9299,3.9299,3.9299,3.9299,3.9299,3.9299,3.9299,3.9299,3.9299,3.9299,3.9299,3.9299,3.9299,3.9299,3.9299,3.9299,3.9299,3.9299,3.9299,3.9299,3.9299,3.9299,3.9299,3.9299,3.9299,3.9299,3.9299,3.9299,3.9299,3.9299,3.9299,3.9912,4.026,4.026,4.0912,4.1226,4.1127,4.1226,4.1591,4.2208,4.164,4.1727,4.2408,4.1102,4.0488,1.9925,2.2534,2.4763,2.5947,2.79,2.9942,3.1438,3.2643,3.3616,3.4157,3.4601,3.4899,3.4899,3.4899,3.4899,3.4899,3.5512,3.6257,3.7003,3.7748,3.8477,3.9216,3.9299,3.9299,3.9299,3.9299,3.9299,3.9299,3.9299,3.9299,3.9299,3.9299,3.9299,3.9299,3.9299,3.9299,3.9299,3.9299,3.9299,3.9299,3.9299,3.9299,3.9299,3.9299,3.9299,3.9299,3.9299,3.9299,3.9299,3.9299,3.9299,3.9299,3.9299,3.9299,3.9299,3.9299,3.9299,3.9299,3.9299,3.9299,3.9299,3.9299,3.9299,3.9299,3.9299,3.9299,3.9299,3.9299,3.9299,3.9299,3.9299,3.9299,3.9299,3.9299,3.9299,3.9299,3.9299,3.9299,3.9299,3.9299,3.9299,3.9299,3.9299,3.9299,3.9299,3.9299,3.9299,3.9299,3.9299,3.9299,3.9299,3.9299,3.9299,3.9299,3.9299,3.968,3.9928,3.9928,4.0564,4.0961,4.0961,4.1657,4.2009,4.2009,4.2009,4.1997,4.1956,4.1641,4.1485,4.1409,4.0374,3.9879,1.9963,2.2263,2.4182,2.5589,2.7591,2.9589,3.0997,3.2161,3.311,0.0,3.4237,3.4667,3.4866,3.4899,3.4899,3.4899,3.5363,3.5976,3.6721,3.7466,3.8195,3.8924,3.9199,3.9299,3.9299,3.9299,3.9299,3.9299,3.9299,3.9299,3.9299,3.9299,3.9299,3.9299,3.9299,3.9299,3.9299,3.9299,3.9299,3.9299,3.9299,3.9299,3.9299,3.9299,3.9299,3.9299,3.9299,3.9299,3.9299,3.9299,3.9299,3.9299,3.9299,3.9299,3.9299,3.9299,3.9299,3.9299,3.9299,3.9299,3.9299,3.9299,3.9299,3.9299,3.9299,3.9299,3.9299,3.9299,3.9299,3.9299,3.9299,3.9299,3.9299,3.9299,3.9299,3.9299,3.9299,3.9299,3.9299,3.9299,3.9299,3.9299,3.9299,3.9299,3.9299,3.9299,3.9299,3.9299,3.9299,3.9299,3.9299,3.9299,3.9481,3.958,3.958,4.026,4.0647,4.0647,4.1309,4.1662,4.1662,4.2373,4.2771,4.2771,4.2771,4.2443,4.1776,4.1597,4.1227,4.0737,3.9809,3.9517,1.9774,2.0885,2.2135,2.4853,2.5648,2.6613,2.9828,3.0621,3.1272,3.3359,3.3822,3.4054,3.4767,3.4899,3.4899,3.4899,3.4932,3.5214,3.5959,3.6688,3.7433,3.8179,3.8858,3.9299,3.9299,3.9299,3.9299,3.9299,3.9299,3.9299,3.9299,3.9299,3.9299,3.9299,3.9299,3.9299,3.9299,3.9299,3.9299,3.9299,3.9299,3.9299,3.9299,3.9299,3.9299,3.9299,3.9299,3.9299,3.9299,3.9299,3.9299,3.9299,3.9299,3.9299,3.9299,3.9299,3.9299,3.9299,3.9299,3.9299,3.9299,3.9299,3.9299,3.9299,3.9299,3.9299,3.9299,3.9299,3.9299,3.9299,3.9299,3.9299,3.9299,3.9299,3.9299,3.9299,3.9299,3.9299,3.9299,3.9299,3.9299,3.9299,3.9299,3.9299,3.9299,3.9299,3.9299,3.9299,3.9299,3.9299,3.9299,3.9299,3.9928,4.0343,4.0343,4.0961,4.1359,4.1359,4.2054,4.2423,4.2423,4.3135,4.3532,4.3532,4.3532,4.3216,4.2537,4.1836,4.1492,4.1426,4.0041,3.9788,1.7801,1.9588,2.1429,2.3094,2.4728,2.65,2.8668,2.9864,3.0853,3.2133,3.3143,3.3872,3.4137,3.4584,3.4899,3.4899,3.4899,3.5148,3.5893,3.6638,3.7384,3.8129,3.8841,3.9299,3.9299,3.9299,3.9299,3.9299,3.9299,3.9299,3.9299,3.9299,3.9299,3.9299,3.9299,3.9299,3.9299,3.9299,3.9299,3.9299,3.9299,3.9299,3.9299,3.9299,3.9299,3.9299,3.9299,3.9299,3.9299,3.9299,3.9299,3.9299,3.9299,3.9299,3.9299,3.9299,3.9299,3.9299,3.9299,3.9299,3.9299,3.9299,3.9299,3.9299,3.9299,3.9299,3.9299,3.9299,3.9299,3.9299,3.9299,3.9299,3.9299,3.9299,3.9299,3.9299,3.9299,3.9299,3.9299,3.9299,3.9299,3.9299,3.9299,3.9299,3.9299,3.9299,3.9299,3.9299,3.9299,3.9299,3.9481,3.9962,4.0243,4.0591,4.1011,4.1707,4.2092,4.2092,4.2787,4.3201,4.3201,4.3449,4.3598,4.3598,4.3598,4.3265,4.2617,4.2317,4.1949,4.1492,4.0547,4.025,1.652,1.8265,2.014,2.1785,2.3473,2.5243,2.7197,2.839,2.9463,3.0936,3.1995,3.2845,3.3326,3.4021,3.4601,3.4849,3.4899,3.5065,3.5562,3.6274,3.7003,3.7748,3.8477,3.9033,3.9282,3.9299,3.9299,3.9299,3.9299,0.0,3.9299,3.9299,3.9299,3.9299,3.9299,3.9299,3.9299,3.9299,3.9299,3.9299,3.9299,3.9299,3.9299,3.9299,3.9299,3.9299,3.9299,3.9299,3.9299,3.9299,3.9299,3.9299,3.9299,3.9299,3.9299,3.9299,3.9299,3.9299,3.9299,3.9299,3.9299,3.9299,3.9299,3.9299,3.9299,3.9299,3.9299,3.9299,3.9299,3.9299,3.9299,3.9299,3.9299,3.9299,3.9299,3.9299,3.9299,3.9299,3.9299,3.9299,3.9299,3.9299,3.9299,3.9299,3.9299,3.9299,3.9299,3.9299,3.9299,3.9514,3.9862,4.0359,4.0812,4.1293,4.1711,4.244,4.2853,4.2853,4.3317,4.3598,4.3598,4.3598,4.3598,4.3598,4.3598,4.3372,4.2943,4.271,4.2349,4.1852,4.094,4.0389,0.0,0.0,0.0,2.0967,2.1746,2.2558,2.5458,0.0,2.6996,2.981,3.0439,3.0903,3.2387,3.3226,3.3972,3.4717,3.4866,3.4899,3.4899,3.5528,3.6274,3.6986,3.7748,3.8477,3.9199,3.9282,3.9299,3.9299,3.9299,3.9299,3.9299,3.9299,3.9299,3.9299,3.9299,3.9299,3.9299,3.9299,3.9299,3.9299,3.9299,3.9299,3.9299,3.9299,3.9299,3.9299,3.9299,3.9299,3.9299,3.9299,3.9299,3.9299,3.9299,3.9299,3.9299,3.9299,3.9299,3.9299,3.9299,3.9299,3.9299,3.9299,3.9299,3.9299,3.9299,3.9299,3.9299,3.9299,3.9299,3.9299,3.9299,3.9299,3.9299,3.9299,3.9299,3.9299,3.9299,3.9299,3.9299,3.9299,3.9299,3.9299,3.9299,3.9299,3.9299,3.9299,3.9299,3.9315,3.9332,3.9962,4.0426,4.0475,4.169,4.2506,4.2522,4.3184,4.3598,4.3598,4.3598,4.3598,4.3598,4.3598,4.3598,4.3598,4.3598,4.3598,4.3598,4.2943,4.2617,4.2585,4.1209,4.0111,1.461,0.0,0.0,0.0,0.0,0.0,0.0,0.0,2.6638,2.7912,2.9003,2.9976,3.094,3.1697,3.2464,3.3176,3.4203,3.4899,3.4899,3.5528,3.6075,3.629,3.7433,3.8295,3.8493,3.9,3.9299,0.0,3.9299,3.9299,3.9299,3.9299,3.9299,3.9299,3.9299,3.9299,3.9299,3.9299,3.9299,3.9299,3.9299,3.9299,3.9299,3.9299,3.9299,3.9299,3.9299,3.9299,3.9299,3.9299,3.9299,3.9299,3.9299,3.9299,3.9299,3.9299,3.9299,3.9299,3.9299,3.9299,3.9299,3.9299,3.9299,3.9299,3.9299,3.9299,3.9299,3.9299,3.9299,3.9299,3.9299,3.9299,3.9299,3.9299,3.9299,3.9299,3.9299,3.9299,3.9299,3.9299,3.9299,3.9299,3.9299,3.9299,3.9299,3.9299,3.9299,3.9497,4.0028,4.0276,4.0779,4.1823,4.2258,4.2704,4.3251,4.3482,4.3598,4.3598,4.3598,4.3598,4.3598,4.3598,4.3598,4.3598,4.3598,4.3598,4.3598,4.3402,4.3325,4.3295,4.1884,4.0566,0.0,0.0,0.0,0.0,0.0,0.0,2.2184,2.3549,2.483,0.0,2.7031,2.7942,2.8969,2.9781,3.0493,3.1205,3.2564,3.374,3.4352,3.48,3.5313,3.5926,3.6771,3.7417,3.7715,3.8129,3.8493,3.8808,3.8825,3.8984,3.9282,3.9299,3.9299,3.9299,3.9299,3.9299,3.9299,3.9299,3.9299,3.9299,3.9299,3.9299,3.9299,3.9299,3.9299,3.9299,3.9299,3.9299,3.9299,3.9299,3.9299,3.9299,3.9299,3.9299,3.9299,3.9299,3.9299,3.9299,3.9299,3.9299,3.9299,3.9299,3.9299,3.9299,3.9299,3.9299,3.9299,3.9299,3.9299,3.9299,3.9299,3.9299,3.9299,3.9299,3.9299,3.9299,3.9299,3.9299,3.9299,3.9299,3.9299,3.9299,3.9299,3.9299,3.9299,3.9299,3.9564,3.9912,4.0343,4.0895,4.1591,4.2406,4.2771,4.3118,4.3565,4.3598,4.3598,4.3598,4.3598,4.3598,4.3598,4.3598,4.3598,4.3598,4.3598,4.3598,4.3598,4.3598,4.3462,4.3174,4.2029,4.106,0.0,0.0,0.0,0.0,0.0,0.0,2.095,2.1684,2.2368,0.0,2.4812,2.5326,2.6803,2.7599,2.826,2.8953,3.0208,3.1681,3.3326,3.3624,3.4187,3.5595,3.5827,3.6174,3.692,3.7052,3.7384,3.8046,3.8136,3.8526,3.9265,3.9299,3.9299,3.9299,3.9299,3.9299,3.9299,3.9299,3.9299,3.9299,3.9299,3.9299,3.9299,3.9299,3.9299,3.9299,3.9299,3.9299,3.9299,3.9299,3.9299,3.9299,3.9299,3.9299,3.9299,3.9299,3.9299,3.9299,3.9299,3.9299,3.9299,3.9299,3.9299,3.9299,3.9299,3.9299,3.9299,3.9299,3.9299,3.9299,3.9299,3.9299,3.9299,3.9299,3.9299,3.9299,3.9299,3.9299,3.9299,3.9299,3.9299,3.9299,3.9299,3.9299,3.9332,3.9415,3.9978,4.0475,4.0625,4.174,4.2522,4.2605,4.3201,4.3598,4.3598,4.3598,4.3598,4.3598,4.3598,4.3598,4.3598,4.3598,4.3598,4.3598,4.3598,4.3598,4.3598,4.3598,4.3265,4.2585,4.1917,4.1591,0.0,0.0,0.0,0.0,0.0,0.0,1.9152,2.0314,2.1457,0.0,2.3079,2.393,2.5345,2.5727,2.6042,2.6717,2.7561,2.9055,3.1648,3.2531,3.3249,3.4121,0.0,0.0,3.6141,3.6754,3.7168,3.7317,3.7855,3.8526,3.9265,3.9299,3.9299,3.9299,3.9299,3.9299,3.9299,3.9299,3.9299,3.9299,3.9299,3.9299,3.9299,3.9299,3.9299,3.9299,3.9299,3.9299,3.9299,3.9299,3.9299,3.9299,3.9299,3.9299,3.9299,3.9299,3.9299,3.9299,3.9299,3.9299,3.9299,3.9299,3.9299,3.9299,3.9299,3.9299,3.9299,3.9299,3.9299,3.9299,3.9299,3.9299,3.9299,3.9299,3.9299,3.9299,3.9299,3.9299,3.9299,3.9299,3.9299,3.9299,3.9299,3.9299,3.9497,4.0111,4.031,4.0796,4.1955,4.2324,4.2721,4.3317,4.3515,4.3598,4.3598,4.3598,4.3598,4.3598,4.3598,4.3598,4.3598,4.3598,4.3598,4.3598,4.3598,4.3598,4.3598,4.3598,4.3265,4.2617,4.2443,4.2061,0.0,0.0,0.0,1.6113,0.0,0.0,0.0,1.8824,1.9639,2.0682,2.1203,2.189,2.3345,2.3596,2.3947,2.4979,2.5759,2.6755,2.8174,2.9914,0.0,0.0,0.0,0.0,3.427,3.5015,3.576,3.6506,3.7235,3.798,3.8709,3.8742,3.8934,3.9282,3.9299,3.9299,3.9299,3.9299,3.9299,3.9299,3.9299,3.9299,3.9299,3.9299,3.9299,3.9299,3.9299,3.9299,3.9299,3.9299,3.9299,3.9299,3.9299,3.9299,3.9299,3.9299,3.9299,3.9299,3.9299,3.9299,3.9299,3.9299,3.9299,3.9299,3.9299,3.9299,3.9299,3.9299,3.9299,3.9299,3.9299,3.9299,3.9299,3.9299,3.9299,3.9299,3.9299,3.9299,3.9299,3.9299,3.9299,3.9299,3.9299,3.9299,3.9547,4.0293,4.0663,4.1293,4.2357,4.2804,4.3184,4.3549,4.3598,4.3598,4.3598,4.3598,4.3598,4.3598,4.3598,4.3598,4.3598,4.3598,4.3598,4.3598,4.3598,4.3598,4.3598,4.3598,4.3432,4.3096,4.2741,4.2585,0.0,0.0,0.0,0.0,0.0,1.616,0.0,0.0,0.0,0.0,0.0,0.0,0.0,0.0,0.0,0.0,0.0,0.0,0.0,0.0,0.0,0.0,0.0,0.0,3.2199,3.3061,3.4187,3.5678,3.6473,3.7284,3.8136,3.8186,3.8543,3.9282,3.9299,3.9299,3.9299,3.9299,3.9299,3.9299,3.9299,3.9299,3.9299,3.9299,3.9299,3.9299,3.9299,3.9299,3.9299,3.9299,3.9299,3.9299,3.9299,3.9299,3.9299,3.9299,3.9299,3.9299,3.9299,3.9299,3.9299,3.9299,3.9299,3.9299,3.9299,3.9299,3.9299,3.9299,3.9299,3.9299,3.9299,3.9299,3.9299,3.9299,3.9299,3.9299,3.9299,3.9299,3.9299,3.9299,3.9299,3.9299,3.9299,3.9415,3.9763,4.0492,4.1177,4.1889,4.2605,4.3234,4.3598,4.3598,4.3598,4.3598,4.3598,4.3598,4.3598,4.3598,4.3598,4.3598,4.3598,4.3598,4.3598,4.3598,4.3598,4.3598,4.3598,4.3598,4.3598,4.3598,4.3035,4.3066,0.0,0.0,0.0,0.0,1.7534,0.0,0.0,0.0,1.7039,1.7862,0.0,0.0,0.0,0.0,0.0,0.0,0.0,0.0,0.0,0.0,0.0,0.0,0.0,0.0,0.0,3.2,3.3448,3.4916,3.5711,3.6738,3.8146,3.8186,3.8543,3.9282,3.9299,3.9299,3.9299,3.9299,3.9299,3.9299,3.9299,3.9299,3.9299,3.9299,3.9299,3.9299,3.9299,3.9299,3.9299,3.9299,3.9299,3.9299,3.9299,3.9299,3.9299,3.9299,3.9299,3.9299,3.9299,3.9299,3.9299,3.9299,3.9299,3.9299,3.9299,3.9299,3.9299,3.9299,3.9299,3.9299,3.9299,3.9299,3.9299,3.9299,3.9299,3.9299,3.9299,3.9299,3.9299,3.9299,3.9299,3.9299,3.9299,3.9846,4.0525,4.1193,4.1922,4.2638,4.3367,4.3549,4.3598,4.3598,4.3598,4.3598,4.3598,4.3598,4.3598,4.3598,4.3598,4.3598,4.3598,4.3598,4.3598,4.3598,4.3598,4.3598,4.3598,4.3598,4.3598,4.3598,4.3522,4.3539,0.0,0.0,0.0,0.0,0.0,0.0,1.7721,0.0,1.6265,0.0,0.0,0.0,0.0,0.0,0.0,0.0,1.8539,0.0,0.0,0.0,0.0,0.0,0.0,0.0,0.0,0.0,0.0,0.0,3.4303,3.5363,3.6854,3.7334,3.7914,3.8642,3.9083,3.9299,3.9299,3.9299,3.9299,3.9299,3.9299,3.9299,3.9299,3.9299,3.9299,3.9299,3.9299,3.9299,3.9299,3.9299,3.9299,3.9299,3.9299,3.9299,3.9299,3.9299,3.9299,3.9299,3.9299,3.9299,3.9299,3.9299,3.9299,3.9299,3.9299,3.9299,3.9299,3.9299,3.9299,3.9299,3.9299,3.9299,3.9299,3.9299,3.9299,3.9299,3.9299,3.9299,3.9299,3.9299,3.9299,3.9448,3.9862,4.021,4.0613,4.1309,4.2026,4.2754,4.3499,4.3598,4.3598,4.3598,4.3598,4.3598,4.3598,4.3704,4.3717,4.3598,4.3598,4.3598,4.3598,4.3598,4.3598,4.3598,4.3598,4.3598,4.3598,4.3598,4.3598,4.3598,4.3598,4.3598,2.3286,0.0,0.0,0.0,0.0,0.0,0.0,0.0,0.0,0.0,0.0,0.0,0.0,0.0,0.0,0.0,0.0,0.0,0.0,0.0,0.0,0.0,0.0,0.0,0.0,0.0,0.0,0.0,0.0,3.4137,3.5628,3.6605,3.745,3.8169,3.8934,3.9299,3.9299,3.9299,3.9299,3.9299,3.9299,3.9299,3.9299,3.9299,3.9299,3.9299,3.9299,3.9299,3.9299,3.9299,3.9299,3.9299,3.9299,3.9299,3.9299,3.9299,3.9299,3.9299,3.9299,3.9299,3.9299,3.9299,3.9299,3.9299,3.9299,3.9299,3.9299,3.9299,3.9299,3.9299,3.9299,3.9299,3.9299,3.9299,3.9299,3.9299,3.9299,3.9299,3.9299,3.9299,3.9299,3.9531,4.0276,4.0531,4.0912,4.1607,4.2324,4.2986,4.3532,4.3598,4.3598,4.3598,4.3598,4.3628,4.3674,4.3839,4.3839,4.3687,4.3687,4.3658,4.3598,4.3598,4.3628,4.3687,4.3628,4.3628,4.3687,4.3628,4.3598,4.3598,4.3598,4.3598,0.0,0.0,0.0,2.2017,0.0,0.0,0.0,0.0,1.7732,0.0,0.0,0.0,0.0,0.0,0.0,0.0,0.0,0.0,0.0,0.0,0.0,0.0,0.0,0.0,0.0,0.0,0.0,0.0,0.0,0.0,3.4849,3.6307,3.745,3.8169,3.8934,3.9299,3.9299,3.9299,3.9299,3.9299,3.9299,3.9299,3.9299,3.9299,3.9299,3.9299,3.9299,3.9299,3.9299,3.9299,3.9299,3.9299,3.9299,3.9299,3.9299,3.9299,3.9299,3.9299,3.9299,3.9299,3.9299,3.9299,3.9299,3.9299,3.9299,3.9299,3.9299,3.9299,3.9299,3.9299,3.9299,3.9299,3.9299,3.9299,3.9299,3.9299,3.9299,3.9299,3.9299,3.9299,3.9299,3.9531,4.0276,4.0945,4.1612,4.234,4.3085,4.3565,4.3598,4.3598,4.3598,4.3598,4.3598,4.3687,4.3868,4.3898,4.3898,4.3898,4.3898,4.3793,4.3598,4.3598,4.3687,4.3898,4.3704,4.3704,4.3898,4.3687,4.3598,4.3598,4.3598,4.3598,0.0,0.0,2.4662,2.3723,0.0,0.0,0.0,0.0,0.0,0.0,0.0,0.0,0.0,0.0,0.0,0.0,0.0,0.0,0.0,0.0,0.0,0.0,0.0,0.0,0.0,0.0,0.0,0.0,0.0,0.0,0.0,3.5098,3.6208,3.7433,3.8195,3.8808,3.9299,3.9299,3.9299,3.9299,3.9299,3.9299,3.9299,3.9299,3.9299,3.9299,3.9299,3.9299,3.9299,3.9299,3.9299,3.9299,3.9299,3.9299,3.9299,3.9299,3.9299,3.9299,3.9299,3.9299,3.9299,3.9299,3.9299,3.9299,3.9299,3.9299,3.9299,3.9299,3.9299,3.9299,3.9299,3.9299,3.9299,3.9299,3.9299,3.9299,3.9299,3.9299,3.9299,3.9299,3.9696,4.026,4.0945,4.1657,4.2208,4.2456,4.3118,4.3598,4.3598,4.3598,4.3598,4.3598,4.3734,4.3839,4.3898,4.3898,4.3956,4.4027,4.3805,4.3658,4.3598,4.3734,4.3822,4.3898,4.3939,4.3952,4.4027,4.3952,4.391,4.3793,4.3894,4.3805,2.8033,2.7258,0.0,2.5247,2.4029,0.0,2.2884,0.0,0.0,0.0,0.0,0.0,0.0,0.0,0.0,0.0,0.0,0.0,0.0,0.0,0.0,0.0,0.0,0.0,0.0,0.0,0.0,0.0,0.0,0.0,0.0,0.0,3.5462,3.6671,3.7698,3.8427,3.8891,3.9183,3.9299,3.9299,3.9299,3.9299,3.9299,3.9299,3.9299,3.9299,3.9299,3.9299,3.9299,3.9299,3.9299,3.9299,3.9299,3.9299,3.9299,3.9299,3.9299,3.9299,3.9299,3.9299,3.9299,3.9299,3.9299,3.9299,3.9299,3.9299,3.9299,3.9299,3.9299,3.9299,3.9299,3.9299,3.9299,3.9299,3.9299,3.9299,3.9299,3.9299,3.9299,3.9299,3.9912,4.0597,4.1293,4.1993,4.2589,4.2837,4.33,4.3598,4.3598,4.3598,4.3598,4.3598,4.3734,4.3822,4.3969,4.4085,4.4143,4.4184,4.3964,4.3835,4.3776,4.391,4.3998,4.4056,4.4068,4.4126,4.4184,4.4126,4.4056,4.3969,4.3998,4.4073]}]]